[[{"header":{"parameterUnit":"m.s-1","parameterCategory":1,"la1":31.0,"la2":29.5877,"lo1":-88.7671,"lo2":-86.6584,"dx":0.0162,"dy":0.0185,"nx":115,"ny":88,"refTime":"2023-01-27T06:00:00:Z","depth":0,"parameterNumber":2,"parameterNumberName":"U-component_of_WINDS"},"data":[0.0,0.0,0.0,0.0,0.0,0.0,0.0,0.0,0.0,0.0,0.0,0.0,0.0,0.0,0.0,0.0,0.0,0.0,0.0,0.0,0.0,0.0,0.0,0.0,0.0,0.0,0.0,0.0,0.0,0.0,0.0,0.0,0.0,0.0,0.0,0.0,0.0,0.0,0.0,0.0,0.0,0.0,0.0,0.0,0.0,0.0,0.0,0.0,0.0,0.0,0.0,0.0,0.0,0.0,0.0,0.0,0.0,0.0,0.0,0.0,0.0,0.0,0.0,0.0,0.0,0.0,0.0,0.0,0.0,0.0,0.0,0.0,0.0,0.0,0.0,0.0,0.0,0.0,0.0,0.0,0.0,0.0,0.0,0.0,0.0,0.0,0.0,0.0,0.0,0.0,0.0,0.0,0.0,0.0,0.0,0.0,0.0,0.0,0.0,0.0,0.0,0.0,0.0,0.0,0.0,0.0,0.0,0.0,0.0,0.0,0.0,0.0,0.0,0.0,0.0,0.0,0.0,0.0,0.0,0.0,0.0,0.0,0.0,0.0,0.0,0.0,0.0,0.0,0.0,0.0,0.0,0.0,0.0,0.0,0.0,0.0,0.0,0.0,0.0,0.0,0.0,0.0,0.0,0.0,0.0,0.0,0.0,0.0,0.0,0.0,0.0,0.0,0.0,0.0,0.0,0.0,0.0,0.0,0.0,0.0,0.0,0.0,0.0,0.0,0.0,0.0,0.0,0.0,0.0,0.0,0.0,0.0,0.0,0.0,0.0,0.0,0.0,0.0,0.0,0.0,0.0,0.0,0.0,0.0,0.0,0.0,0.0,0.0,0.0,0.0,0.0,0.0,0.0,0.0,0.0,0.0,0.0,0.0,0.0,0.0,0.0,0.0,0.0,0.0,0.0,0.0,0.0,0.0,0.0,0.0,0.0,0.0,0.0,0.0,0.0,0.0,0.0,0.0,0.0,0.0,0.0,0.0,0.0,0.0,0.0,0.0,0.0,0.0,0.0,0.0,0.0,0.0,0.0,0.0,0.0,0.0,0.0,0.0,0.0,0.0,0.0,0.0,0.0,0.0,0.0,0.0,0.0,0.0,0.0,0.0,0.0,0.0,0.0,0.0,0.0,0.0,0.0,0.0,0.0,0.0,0.0,0.0,0.0,0.0,0.0,0.0,0.0,0.0,0.0,0.0,0.0,0.0,0.0,0.0,0.0,0.0,0.0,0.0,0.0,0.0,0.0,0.0,0.0,0.0,0.0,0.0,0.0,0.0,0.0,0.0,0.0,0.0,0.0,0.0,0.0,0.0,0.0,0.0,0.0,0.0,0.0,0.0,0.0,0.0,0.0,0.0,0.0,0.0,0.0,0.0,0.0,0.0,0.0,0.0,0.0,0.0,0.0,0.0,0.0,0.0,0.0,0.0,0.0,0.0,0.0,0.0,0.0,0.0,0.0,0.0,0.0,0.0,0.0,0.0,0.0,0.0,0.0,0.0,0.0,0.0,0.0,0.0,0.0,0.0,0.0,0.0,0.0,0.0,0.0,0.0,0.0,0.0,0.0,0.0,0.0,0.0,0.0,0.0,0.0,0.0,0.0,0.0,0.0,0.0,0.0,0.0,0.0,0.0,0.0,0.0,0.0,0.0,0.0,0.0,0.0,0.0,0.0,0.0,0.0,0.0,0.0,0.0,0.0,0.0,0.0,0.0,0.0,0.0,0.0,0.0,0.0,0.0,0.0,0.0,0.0,0.0,0.0,0.0,0.0,0.0,0.0,0.0,0.0,0.0,0.0,0.0,0.0,0.0,0.0,0.0,0.0,0.0,0.0,0.0,0.0,0.0,0.0,0.0,0.0,0.0,0.0,0.0,0.0,0.0,0.0,0.0,0.0,0.0,0.0,0.0,0.0,0.0,0.0,0.0,0.0,0.0,0.0,0.0,0.0,0.0,0.0,0.0,0.0,0.0,0.0,0.0,0.0,0.0,0.0,0.0,0.0,0.0,0.0,0.0,0.0,0.0,0.0,0.0,0.0,0.0,0.0,0.0,0.0,0.0,0.0,0.0,0.0,0.0,0.0,0.0,0.0,0.0,0.0,0.0,0.0,0.0,0.0,0.0,0.0,0.0,0.0,0.0,0.0,0.0,0.0,0.0,0.0,0.0,0.0,0.0,0.0,0.0,0.0,0.0,0.0,0.0,0.0,0.0,0.0,0.0,0.0,0.0,0.0,0.0,0.0,0.0,0.0,0.0,0.0,0.0,0.0,0.0,0.0,0.0,0.0,0.0,0.0,0.0,0.0,0.0,0.0,0.0,0.0,0.0,0.0,0.0,0.0,0.0,0.0,0.0,0.0,0.0,0.0,0.0,0.0,0.0,0.0,0.0,0.0,0.0,0.0,0.0,0.0,0.0,0.0,0.0,0.0,0.0,0.0,0.0,0.0,0.0,0.0,0.0,0.0,0.0,0.0,0.0,0.0,0.0,0.0,0.0,0.0,0.0,0.0,0.0,0.0,0.0,0.0,0.0,0.0,0.0,0.0,0.0,0.0,0.0,0.0,0.0,0.0,0.0,0.0,0.0,0.0,0.0,0.0,0.0,0.0,0.0,0.0,0.0,0.0,0.0,0.0,0.0,0.0,0.0,0.0,0.0,0.0,0.0,0.0,0.0,0.0,0.0,0.0,0.0,0.0,0.0,0.0,0.0,0.0,0.0,0.0,0.0,0.0,0.0,0.0,0.0,0.0,0.0,0.0,0.0,0.0,0.0,0.0,0.0,0.0,0.0,0.0,0.0,0.0,0.0,0.0,0.0,0.0,0.0,0.0,0.0,0.0,0.0,0.0,0.0,0.0,0.0,0.0,0.0,0.0,0.0,0.0,0.0,0.0,0.0,0.0,0.0,0.0,0.0,0.0,0.0,0.0,0.0,0.0,0.0,0.0,0.0,0.0,0.0,0.0,0.0,0.0,0.0,0.0,0.0,0.0,0.0,0.0,0.0,0.0,0.0,0.0,0.0,0.0,0.0,0.0,0.0,0.0,0.0,0.0,0.0,0.0,0.0,0.0,0.0,0.0,0.0,0.0,0.0,0.0,0.0,0.0,0.0,0.0,0.0,0.0,0.0,0.0,0.0,0.0,0.0,0.0,0.0,0.0,0.0,0.0,0.0,0.0,0.0,0.0,0.0,0.0,0.0,0.0,0.0,0.0,0.0,0.0,0.0,0.0,0.0,0.0,0.0,0.0,0.0,0.0,0.0,0.0,0.0,0.0,0.0,0.0,0.0,0.0,0.0,0.0,0.0,0.0,0.0,0.0,0.0,0.0,0.0,0.0,0.0,0.0,0.0,0.0,0.0,0.0,0.0,0.0,0.0,0.0,0.0,0.0,0.0,0.0,0.0,0.0,0.0,0.0,0.0,0.0,0.0,0.0,0.0,0.0,0.0,0.0,0.0,0.0,0.0,0.0,0.0,0.0,0.0,0.0,0.0,0.0,0.0,0.0,0.0,0.0,0.0,0.0,0.0,0.0,0.0,0.0,0.0,0.0,0.0,0.0,0.0,0.0,0.0,0.0,0.0,0.0,0.0,0.0,0.0,0.0,0.0,0.0,0.0,0.0,0.0,0.0,0.0,0.0,0.0,0.0,0.0,0.0,0.0,0.0,0.0,0.0,0.0,0.0,0.0,0.0,0.0,0.0,0.0,0.0,0.0,0.0,0.0,0.0,0.0,0.0,0.0,0.0,0.0,0.0,0.0,0.0,0.0,0.0,0.0,0.0,0.0,0.0,0.0,0.0,0.0,0.0,0.0,0.0,0.0,0.0,0.0,0.0,0.0,0.0,0.0,0.0,0.0,0.0,0.0,0.0,0.0,0.0,0.0,0.0,0.0,0.0,0.0,0.0,0.0,0.0,0.0,0.0,0.0,0.0,0.0,0.0,0.0,0.0,0.0,0.0,0.0,0.0,0.0,0.0,0.0,0.0,0.0,0.0,0.0,0.0,0.0,0.0,0.0,0.0,0.0,0.0,0.0,0.0,0.0,0.0,0.0,0.0,0.0,0.0,0.0,0.0,0.0,0.0,0.0,0.0,0.0,0.0,0.0,0.0,0.0,0.0,0.0,0.0,0.0,0.0,0.0,0.0,0.0,0.0,0.0,0.0,0.0,0.0,0.0,0.0,0.0,0.0,0.0,0.0,0.0,0.0,0.0,0.0,0.0,0.0,0.0,0.0,0.0,0.0,0.0,0.0,0.0,0.0,0.0,0.0,0.0,0.0,0.0,0.0,0.0,0.9021,0.0,0.0,0.0,0.0,0.0,0.0,0.0,0.0,0.0,0.0,0.0,0.0,0.0,0.0,0.0,0.0,0.0,0.0,0.0,0.0,0.0,0.0,0.0,0.0,0.0,0.0,0.0,0.0,0.0,0.0,0.0,0.0,0.0,0.0,0.0,0.0,0.0,0.0,0.0,0.0,0.0,0.0,0.0,0.0,0.0,0.0,0.0,0.0,0.0,0.0,0.0,0.0,0.0,0.0,0.0,0.0,0.0,0.0,0.0,0.0,0.0,0.0,0.0,0.0,0.0,0.0,0.0,0.0,0.0,0.0,0.0,0.0,0.0,0.0,0.0,0.0,0.0,0.0,0.0,0.0,0.0,0.0,0.0,0.0,0.0,0.0,0.0,0.0,0.0,0.0,0.0,0.0,0.0,0.0,0.0,0.0,0.0,0.0,0.0,0.0,0.0,0.0,0.0,0.0,0.0,0.0,0.0,0.0,0.0,0.0,1.6044,1.4816,1.305,1.0992,0.8638,0.0,0.0,0.0,0.0,0.0,0.0,0.0,0.0,0.0,0.0,0.0,0.0,0.0,0.0,0.0,0.0,0.0,0.0,0.0,0.0,0.0,0.0,0.0,0.0,0.0,0.0,0.0,0.0,0.0,0.0,0.0,0.0,0.0,0.0,0.0,0.0,0.0,0.0,0.0,0.0,0.0,0.0,0.0,0.0,0.0,0.0,0.0,0.0,0.0,0.0,0.0,0.0,0.0,0.0,0.0,0.0,0.0,0.0,0.0,0.0,0.0,0.0,0.0,0.0,0.0,0.0,0.0,0.0,0.0,0.0,0.0,0.0,0.0,0.0,0.0,0.0,0.0,0.0,0.0,0.0,0.0,0.0,0.0,0.0,0.0,0.0,0.0,0.0,0.0,0.0,0.0,0.0,0.0,0.0,0.0,0.0,0.0,0.0,0.0,0.0,0.0,0.0,0.0,0.0,0.0,0.0,0.0,0.0,0.0,0.0,0.0,0.0,1.2923,1.0586,0.7537,0.0,0.0,0.0,0.0,0.0,0.0,0.0,0.0,0.0,0.0,0.0,0.0,0.0,0.0,0.0,0.0,0.0,0.0,0.0,0.0,0.0,0.0,0.0,0.0,0.0,0.0,0.0,0.0,0.0,0.0,0.0,0.0,0.0,0.0,0.0,0.0,0.0,0.0,0.0,0.0,0.0,0.0,0.0,0.0,0.0,0.0,0.0,0.0,0.0,0.0,0.0,0.0,0.0,0.0,0.0,0.0,0.0,0.0,0.0,0.0,0.0,0.0,0.0,0.0,0.0,0.0,0.0,0.0,0.0,0.0,0.0,0.0,0.0,0.0,0.0,0.0,0.0,0.0,0.0,0.0,0.0,0.0,0.0,0.0,0.0,0.0,0.0,0.0,0.0,0.0,0.0,0.0,0.0,0.0,0.0,0.0,0.0,0.0,0.0,0.0,0.0,0.0,0.0,0.0,0.0,0.0,0.0,0.0,0.0,0.0,1.5728,1.4529,1.287,0.0,0.5094,0.0,0.0,0.0,0.0,0.0,0.0,0.0,0.0,0.0,0.0,0.0,0.0,0.0,0.0,0.0,0.0,0.0,0.0,0.0,0.0,0.0,0.0,0.0,0.0,0.0,0.0,0.0,0.0,0.0,0.0,0.0,0.0,0.0,0.0,0.0,0.0,0.0,0.0,0.0,0.0,0.0,0.0,0.0,0.0,0.0,0.0,0.0,0.0,0.0,0.0,0.0,0.0,0.0,0.0,0.0,0.0,0.0,0.0,0.0,0.0,0.0,0.0,0.0,0.0,0.0,0.0,0.0,0.0,0.0,0.0,0.0,0.0,0.0,0.0,0.0,0.0,0.0,0.0,0.0,0.0,0.0,0.0,0.0,0.0,0.0,0.0,0.0,0.0,0.0,0.0,0.0,0.0,0.0,0.0,0.0,0.0,0.0,0.0,0.0,0.0,0.0,0.0,0.0,0.0,0.0,0.0,0.0,0.0,0.0,0.0,1.5633,1.4529,1.1612,0.8366,0.0,0.0,0.0,0.0,0.0,0.0,0.0,0.0,0.0,0.0,0.0,0.0,0.0,0.0,0.0,0.0,0.0,0.0,0.0,0.0,0.0,0.0,0.0,0.0,0.0,0.0,0.0,0.0,0.0,0.0,0.0,0.0,0.0,0.0,0.0,0.0,0.0,0.0,0.0,0.0,0.0,0.0,0.0,0.0,0.0,0.0,0.0,0.0,0.0,0.0,0.0,0.0,0.0,0.0,0.0,0.0,0.0,0.0,0.0,0.0,0.0,0.0,0.0,0.0,0.0,0.0,0.0,0.0,0.0,0.0,0.0,0.0,0.0,0.0,0.0,0.0,0.0,0.0,0.0,0.0,0.0,0.0,0.0,0.0,0.0,0.0,0.0,0.0,0.0,0.0,0.0,0.0,0.0,0.0,0.0,0.0,0.0,0.0,0.0,0.0,0.0,0.0,0.0,0.0,0.0,0.0,0.0,0.0,0.0,0.0,1.656,1.5449,1.3914,1.0698,0.7703,0.5111,0.0,0.0,0.0,0.0,0.0,0.0,0.0,0.0,0.0,0.0,0.0,0.0,0.0,0.0,0.0,0.0,0.0,0.0,0.0,0.0,0.0,0.0,0.0,0.0,0.0,0.0,0.0,0.0,0.0,0.0,0.0,0.0,0.0,0.0,0.0,0.0,0.0,0.0,0.0,0.0,0.0,0.0,0.0,0.0,0.0,0.0,0.0,0.0,0.0,0.0,0.0,0.0,0.0,0.0,0.0,0.0,0.0,0.0,0.0,0.0,0.0,0.0,0.0,0.0,0.0,0.0,0.0,0.0,0.0,0.0,0.0,0.0,0.0,0.0,0.0,0.0,0.0,0.0,0.0,0.0,0.0,0.0,0.0,0.0,0.0,0.0,0.0,0.0,0.0,0.0,0.0,0.0,0.0,0.0,0.0,0.0,0.0,0.0,0.0,0.0,0.0,0.0,0.0,0.0,0.0,0.0,0.0,0.0,1.7468,1.6691,1.508,1.2687,1.0568,0.8254,0.0,0.0,0.0,0.0,0.0,0.0,0.0,0.0,0.0,0.0,0.0,0.0,0.0,0.0,0.0,0.0,0.0,0.0,0.0,0.0,0.0,0.0,0.0,0.0,0.0,0.0,0.0,0.0,0.0,0.0,0.0,0.0,0.0,0.0,0.0,0.0,0.0,0.0,0.0,0.0,0.0,0.0,0.0,0.0,0.0,0.0,0.0,0.0,0.0,0.0,0.0,0.0,0.0,0.0,0.0,0.0,0.0,0.0,0.0,0.0,0.0,0.0,0.0,0.0,0.0,0.0,0.0,0.0,0.0,0.0,0.0,0.0,0.0,0.0,0.0,0.0,0.0,0.0,0.0,0.0,0.0,0.0,0.0,0.0,0.0,0.0,0.0,0.0,0.0,0.0,0.0,0.0,0.0,0.0,0.0,0.0,0.0,0.0,0.0,0.0,0.0,0.0,0.0,0.0,0.0,0.0,0.0,0.0,0.0,1.744,1.612,1.4503,1.2687,1.0669,0.8463,0.0,0.0,0.0,0.0,0.0,0.0,0.0,0.0,0.0,0.0,0.0,0.0,0.0,0.0,0.0,0.0,0.0,0.0,0.0,0.0,0.0,0.0,0.0,0.0,0.0,0.0,0.0,0.0,0.0,0.0,0.0,0.0,0.0,0.0,0.0,0.0,0.0,0.0,0.0,0.0,0.0,0.0,0.0,0.0,0.0,0.0,0.0,0.0,0.0,0.0,0.0,0.0,0.0,0.0,0.0,0.0,0.0,0.0,0.0,0.0,0.0,0.0,0.0,0.0,0.0,0.0,0.0,0.0,0.0,0.0,0.0,0.0,0.0,0.0,0.0,0.0,0.0,0.0,0.0,0.0,0.0,0.0,0.0,0.0,0.0,0.0,0.0,0.0,0.0,0.0,0.0,0.0,0.0,0.0,0.0,0.0,0.0,0.0,0.0,0.0,0.0,0.0,0.0,0.0,0.0,0.0,0.0,0.0,0.0,1.7256,0.0,1.4453,1.2962,1.1013,0.8847,0.0,0.0,0.0,0.0,0.0,0.0,0.0,0.0,0.0,0.0,0.0,0.0,0.0,0.0,0.0,0.0,0.0,0.0,0.0,0.0,0.0,0.0,0.0,0.0,0.0,0.0,0.0,0.0,0.0,0.0,0.0,0.0,0.0,0.0,0.0,0.0,0.0,0.0,0.0,0.0,0.0,0.0,0.0,0.0,0.0,0.0,0.0,0.0,0.0,0.0,0.0,0.0,0.0,0.0,0.0,0.0,0.0,0.0,0.0,0.0,0.0,0.0,0.0,0.0,0.0,0.0,0.0,0.0,0.0,0.0,0.0,0.0,0.0,0.0,0.0,0.0,0.0,0.0,0.0,0.0,0.0,0.0,0.0,0.0,0.0,0.0,0.0,0.0,0.0,0.0,0.0,0.0,0.0,0.0,0.0,0.0,0.0,0.0,0.0,0.0,0.0,0.0,0.0,0.0,0.0,0.0,0.0,0.0,1.7523,1.6807,1.6026,1.4895,1.3489,1.1542,0.942,0.0,0.0,0.0,0.0,0.0,0.0,0.0,0.0,0.0,0.0,0.0,0.0,0.0,0.0,0.0,0.0,0.0,0.0,0.0,0.0,0.0,0.0,0.0,0.0,0.0,0.0,0.0,0.0,0.0,0.0,0.0,0.0,0.0,0.0,0.0,0.0,0.0,0.0,0.0,0.0,0.0,0.0,0.0,0.0,0.0,0.0,0.0,0.0,0.0,0.0,0.0,0.0,0.0,0.0,0.0,0.0,0.0,0.0,0.0,0.0,0.0,0.0,0.0,0.0,0.0,0.0,0.0,0.0,0.0,0.0,0.0,0.0,0.0,0.0,0.0,0.0,0.0,0.0,0.0,0.0,0.0,0.0,0.0,0.0,0.0,0.0,0.0,0.0,0.0,0.0,0.0,0.0,0.0,0.0,0.0,0.0,0.0,0.0,0.0,0.0,0.0,0.0,0.0,0.0,0.0,0.0,0.0,0.0,0.0,1.6818,1.6007,1.4924,1.3498,1.1773,0.9755,0.0,0.0,0.0,0.0,0.0,0.0,0.0,0.0,0.0,0.0,0.0,0.0,0.0,0.0,0.0,0.0,0.0,0.0,0.0,0.0,0.0,0.0,0.0,0.0,0.0,0.0,0.0,0.0,0.0,0.0,0.0,0.0,0.0,0.0,0.0,0.0,0.0,0.0,0.0,0.0,0.0,0.0,0.0,0.0,0.0,0.0,0.0,0.0,0.0,0.0,0.0,0.0,0.0,0.0,0.0,0.0,0.0,0.0,0.0,0.0,0.0,0.0,0.0,0.0,0.0,0.0,0.0,0.0,0.0,0.0,0.0,0.0,0.0,0.0,0.0,0.0,0.0,0.0,0.0,0.0,0.0,0.0,0.0,0.0,0.0,0.0,0.0,0.0,0.0,0.0,0.0,0.0,0.0,0.0,0.0,0.0,0.0,0.0,0.0,0.0,0.0,0.0,0.0,0.0,0.0,0.0,0.0,0.0,0.0,1.6722,1.6065,1.508,1.3777,1.2081,1.0097,0.7755,0.0,0.0,0.0,0.0,0.0,0.0,0.0,0.0,0.0,0.0,0.0,0.0,0.0,0.0,0.0,0.0,0.0,0.0,0.0,0.0,0.0,0.0,0.0,0.0,0.0,0.0,0.0,0.0,0.0,0.0,0.0,0.0,0.0,0.0,0.0,0.0,0.0,0.0,0.0,0.0,0.0,0.0,0.0,0.0,0.0,0.0,0.0,0.0,0.0,0.0,0.0,0.0,0.0,0.0,0.0,0.0,0.0,0.0,0.0,0.0,0.0,0.0,0.0,0.0,0.0,0.0,0.0,0.0,0.0,0.0,0.0,0.0,0.0,0.0,0.0,0.0,0.0,0.0,0.0,0.0,0.0,0.0,0.0,0.0,0.0,0.0,0.0,0.0,0.0,0.0,0.0,0.0,0.0,0.0,0.0,0.0,0.0,0.0,0.0,0.0,0.0,0.0,0.0,0.0,0.0,0.0,0.0,0.0,1.6609,1.6142,1.5342,1.4204,1.2442,1.0468,0.0,0.0,0.0,0.0,0.0,0.0,0.0,0.0,0.0,0.0,0.0,0.0,0.0,0.0,0.0,0.0,0.0,0.0,0.0,0.0,0.0,0.0,0.0,0.0,0.0,0.0,0.0,0.0,0.0,0.0,0.0,0.0,0.0,0.0,0.0,0.0,0.0,0.0,0.0,0.0,0.0,0.0,0.0,0.0,0.0,0.0,0.0,0.0,0.0,0.0,0.0,0.0,0.0,0.0,0.0,0.0,0.0,0.0,0.0,0.0,0.0,0.0,0.0,0.0,0.0,0.0,0.0,0.0,0.0,0.0,0.0,0.0,0.0,0.0,0.0,0.0,0.0,0.0,0.0,0.0,0.0,0.0,0.0,0.0,0.0,0.0,0.0,0.0,0.0,0.0,0.0,0.0,0.0,0.0,0.0,0.0,0.0,0.0,0.0,0.0,0.0,0.0,0.0,0.0,0.0,0.0,0.0,0.0,0.0,1.6431,1.599,1.5264,1.4213,1.2457,1.0506,0.0,0.0,0.0,0.0,0.0,0.0,0.0,0.0,0.0,0.0,0.0,0.0,0.0,0.0,0.0,0.0,0.0,0.0,0.0,0.0,0.0,0.0,0.0,0.0,0.0,0.0,0.0,0.0,0.0,0.0,0.0,0.0,0.0,0.0,0.0,0.0,0.0,0.0,0.0,0.0,0.0,0.0,0.0,0.0,0.0,0.0,0.0,0.0,0.0,0.0,0.0,0.0,0.0,0.0,0.0,0.0,0.0,0.0,0.0,0.0,0.0,0.0,0.0,0.0,0.0,0.0,0.0,0.0,0.0,0.0,0.0,0.0,0.0,0.0,0.0,0.0,0.0,0.0,0.0,0.0,0.0,0.0,0.0,0.0,0.0,0.0,0.0,0.0,0.0,0.0,0.0,0.0,0.0,0.0,0.0,0.0,0.0,0.0,0.0,0.0,0.0,0.0,0.0,0.0,0.0,0.0,0.0,0.0,1.6259,1.6173,1.5788,1.5089,1.4154,1.245,1.0593,0.0,0.0,0.0,0.0,0.0,0.0,0.0,0.0,0.0,0.0,0.0,0.0,0.0,0.0,0.0,0.0,0.0,0.0,0.0,0.0,0.0,0.0,0.0,0.0,0.0,0.0,0.0,0.0,0.0,0.0,0.0,0.0,0.0,0.0,0.0,0.0,0.0,0.0,0.0,0.0,0.0,0.0,0.0,0.0,0.0,0.0,0.0,0.0,0.0,0.0,0.0,0.0,0.0,0.0,0.0,0.0,0.0,0.0,0.0,0.0,0.0,0.0,0.0,0.0,0.0,0.0,0.0,0.0,0.0,0.0,0.0,0.0,0.0,0.0,0.0,0.0,0.0,0.0,0.0,0.0,0.0,0.0,0.0,0.0,0.0,0.0,0.0,0.0,0.0,0.0,0.0,0.0,0.0,0.0,0.0,0.0,0.0,0.0,0.0,0.0,0.0,0.0,0.0,0.0,0.0,0.0,0.0,0.0,1.598,1.5856,1.5517,1.4903,1.3944,1.2472,1.0642,0.0,0.0,0.0,0.0,0.0,0.0,0.0,0.0,0.0,0.0,0.0,0.0,0.0,0.0,0.0,0.0,0.0,0.0,0.0,0.0,0.0,0.0,0.0,0.0,0.0,0.0,0.0,0.0,0.0,0.0,0.0,0.0,0.0,0.0,0.0,0.0,0.0,0.0,0.0,0.0,0.0,0.0,0.0,0.0,0.0,0.0,0.0,0.0,0.0,0.0,0.0,0.0,0.0,0.0,0.0,0.0,0.0,0.0,0.0,0.0,0.0,0.0,0.0,0.0,0.0,0.0,0.0,0.0,0.0,0.0,0.0,0.0,0.0,0.0,0.0,0.0,0.0,0.0,0.0,0.0,0.0,0.0,0.0,0.0,0.0,0.0,0.0,0.0,0.0,0.0,0.0,0.0,0.0,0.0,0.0,0.0,0.0,0.0,0.0,0.0,0.0,0.0,0.0,0.0,0.0,0.0,0.0,0.0,1.5536,1.5507,1.5225,1.4627,1.3623,1.2281,1.0537,0.0,0.0,0.0,0.0,0.0,0.0,0.0,0.0,0.0,0.0,0.0,0.0,0.0,0.0,0.0,0.0,0.0,0.0,0.0,0.0,0.0,0.0,0.0,0.0,0.0,0.0,0.0,0.0,0.0,0.0,0.0,0.0,0.0,0.0,0.0,0.0,0.0,0.0,0.0,0.0,0.0,0.0,0.0,0.0,0.0,0.0,0.0,0.0,-2.1506,0.0,0.0,0.0,0.0,0.0,0.0,0.0,0.0,0.0,0.0,0.0,0.0,0.0,0.0,0.0,0.0,0.0,0.0,0.0,0.0,0.0,0.0,0.0,0.0,0.0,0.0,0.0,0.0,0.0,0.0,0.0,0.0,0.0,0.0,0.0,0.0,0.0,0.0,0.0,0.0,0.0,0.0,0.0,0.0,0.0,0.0,0.0,0.0,0.0,0.0,0.0,0.0,0.0,0.0,0.0,0.0,0.0,0.0,0.0,1.5128,1.5196,1.4931,1.4291,1.3282,1.1888,1.0267,0.0,0.0,0.0,0.0,0.0,0.0,0.0,0.0,0.0,0.0,0.0,0.0,0.0,0.0,0.0,0.0,0.0,0.0,0.0,0.0,0.0,0.0,0.0,0.0,0.0,0.0,0.0,0.0,0.0,0.0,0.0,0.0,0.0,0.0,0.0,0.0,0.0,0.0,0.0,0.0,0.0,0.0,0.0,0.0,0.0,0.0,0.0,0.0,0.0,0.0,0.0,0.0,0.0,0.0,0.0,0.0,0.0,0.0,0.0,0.0,0.0,0.0,0.0,0.0,0.0,0.0,0.0,0.0,0.0,0.0,0.0,0.0,0.0,0.0,0.0,0.0,0.0,0.0,0.0,0.0,0.0,0.0,0.0,0.0,0.0,0.0,0.0,0.0,0.0,0.0,0.0,0.0,0.0,0.0,0.0,0.0,0.0,0.0,0.0,0.0,0.0,0.0,0.0,0.0,0.0,0.0,0.0,1.433,1.4666,1.4793,1.4508,1.3863,1.2856,1.143,0.9831,0.805,0.0,0.0,0.0,0.0,0.0,0.0,0.0,0.0,0.0,0.0,0.0,0.0,0.0,0.0,0.0,0.0,0.0,0.0,0.0,0.0,0.0,0.0,0.0,0.0,0.0,0.0,0.0,0.0,0.0,0.0,0.0,0.0,0.0,0.0,0.0,0.0,0.0,0.0,-1.7385,-1.7496,0.0,0.0,0.0,0.0,0.0,0.0,0.0,0.0,-2.1746,0.0,0.0,0.0,0.0,0.0,0.0,0.0,0.0,0.0,0.0,0.0,0.0,0.0,0.0,0.0,0.0,0.0,0.0,0.0,0.0,0.0,0.0,0.0,0.0,0.0,0.0,0.0,0.0,0.0,0.0,0.0,0.0,0.0,0.0,0.0,0.0,0.0,0.0,0.0,0.0,0.0,0.0,0.0,0.0,0.0,0.0,0.0,0.0,0.0,0.0,0.0,0.0,0.0,0.0,0.0,0.0,1.3169,1.367,1.3971,1.398,1.3791,1.3199,1.2197,1.0836,0.9195,0.7173,0.0,0.0,0.0,0.0,0.0,0.0,0.0,0.0,0.0,0.0,0.0,0.0,0.0,0.0,0.0,0.0,0.0,0.0,0.0,0.0,0.0,0.0,0.0,0.0,0.0,0.0,0.0,0.0,0.0,0.0,0.0,0.0,0.0,0.0,0.0,0.0,0.0,0.0,0.0,-1.6965,-1.7162,0.0,0.0,0.0,0.0,0.0,0.0,0.0,0.0,-2.2263,0.0,0.0,0.0,0.0,0.0,0.0,0.0,0.0,0.0,0.0,0.0,0.0,0.0,0.0,0.0,0.0,0.0,0.0,0.0,0.0,0.0,0.0,0.0,0.0,0.0,0.0,0.0,0.0,0.0,0.0,0.0,0.0,0.0,0.0,0.0,0.0,0.0,0.0,0.0,0.0,0.0,0.0,0.0,0.0,0.0,0.0,0.0,0.0,0.0,0.0,0.0,0.0,0.0,0.0,0.0,1.2643,1.3051,1.3368,1.3616,1.3024,1.2313,1.15,0.9996,0.8286,0.0,0.0,0.0,0.0,0.0,0.0,0.0,0.0,0.0,0.0,0.0,0.0,0.0,0.0,0.0,0.0,0.0,0.0,0.0,0.0,0.0,0.0,0.0,0.0,0.0,0.0,0.0,0.0,0.0,0.0,0.0,0.0,0.0,0.0,0.0,0.0,0.0,0.0,0.0,0.0,-1.6637,-1.6779,-1.6976,0.0,0.0,0.0,0.0,0.0,0.0,-2.1541,-2.2263,0.0,0.0,0.0,0.0,0.0,0.0,0.0,0.0,0.0,0.0,0.0,0.0,0.0,0.0,0.0,0.0,0.0,0.0,0.0,0.0,0.0,0.0,0.0,0.0,0.0,0.0,0.0,0.0,0.0,0.0,0.0,0.0,0.0,0.0,0.0,0.0,0.0,0.0,0.0,0.0,0.0,0.0,0.0,0.0,0.0,0.0,0.0,0.0,0.0,0.0,0.0,0.0,0.0,0.0,0.0,1.1948,1.2281,1.267,1.3099,1.231,1.1508,1.0792,0.916,0.7381,0.0,0.0,0.0,0.0,0.0,0.0,0.0,0.0,0.0,0.0,0.0,0.0,0.0,0.0,0.0,0.0,0.0,0.0,0.0,0.0,0.0,0.0,0.0,0.0,0.0,0.0,0.0,0.0,0.0,0.0,0.0,0.0,0.0,0.0,0.0,0.0,0.0,0.0,0.0,0.0,0.0,-1.642,-1.6676,-1.7106,0.0,0.0,0.0,0.0,-2.0646,-2.1434,0.0,0.0,0.0,0.0,0.0,0.0,0.0,0.0,0.0,0.0,0.0,0.0,0.0,0.0,0.0,0.0,0.0,0.0,0.0,0.0,0.0,0.0,0.0,0.0,0.0,0.0,0.0,0.0,0.0,0.0,0.0,0.0,0.0,0.0,0.0,0.0,0.0,0.0,0.0,0.0,0.0,0.0,0.0,0.0,0.0,0.0,0.0,0.0,0.0,0.0,0.0,0.0,0.0,0.0,0.0,0.0,1.062,1.1301,1.1764,1.1952,1.1539,1.0889,1.0021,0.838,0.66,0.0,0.0,0.0,0.0,0.0,0.0,0.0,0.0,0.0,0.0,0.0,0.0,0.0,0.0,0.0,0.0,0.0,0.0,0.0,0.0,0.0,0.0,0.0,0.0,0.0,0.0,0.0,0.0,0.0,0.0,0.0,0.0,0.0,0.0,0.0,0.0,0.0,0.0,0.0,0.0,0.0,-1.621,-1.6431,-1.6797,-1.7318,0.0,0.0,0.0,-2.0485,-2.1202,0.0,0.0,0.0,0.0,0.0,0.0,0.0,0.0,0.0,0.0,0.0,0.0,0.0,0.0,0.0,0.0,0.0,0.0,0.0,0.0,0.0,0.0,0.0,0.0,0.0,0.0,0.0,0.0,0.0,0.0,0.0,0.0,0.0,0.0,0.0,0.0,0.0,0.0,0.0,0.0,0.0,0.0,0.0,0.0,0.0,0.0,0.0,0.0,0.0,0.0,0.0,0.0,0.0,0.0,0.0,0.9003,0.9916,1.039,1.0814,1.109,1.0473,0.9717,0.8863,0.7353,0.5614,0.0,0.0,0.0,0.0,0.0,0.0,0.0,0.0,0.0,0.0,0.0,0.0,0.0,0.0,0.0,0.0,0.0,0.0,0.0,0.0,0.0,0.0,0.0,0.0,0.0,0.0,0.0,0.0,0.0,0.0,0.0,0.0,0.0,0.0,0.0,0.0,0.0,0.0,0.0,0.0,0.0,0.0,-1.6374,-1.6676,0.0,0.0,0.0,-1.9514,-2.0372,0.0,0.0,0.0,0.0,0.0,0.0,0.0,0.0,0.0,0.0,0.0,0.0,0.0,0.0,0.0,0.0,0.0,0.0,0.0,0.0,0.0,0.0,0.0,0.0,0.0,0.0,0.0,0.0,0.0,0.0,0.0,0.0,0.0,0.0,0.0,0.0,0.0,0.0,0.0,0.0,0.0,0.0,0.0,0.0,0.0,0.0,0.0,0.0,0.0,0.0,0.0,0.0,0.0,0.0,0.0,0.0,0.0,0.9059,0.9426,0.9789,1.0106,0.9328,0.8519,0.7732,0.6291,0.0,0.0,0.0,0.0,0.0,0.0,0.0,0.0,0.0,0.0,0.0,0.0,0.0,0.0,0.0,0.0,0.0,0.0,0.0,0.0,0.0,0.0,0.0,0.0,0.0,0.0,0.0,-1.856,0.0,0.0,0.0,0.0,0.0,0.0,0.0,0.0,0.0,0.0,0.0,0.0,0.0,0.0,-1.6048,-1.6355,-1.6648,-1.705,0.0,0.0,-1.9488,-2.0296,-2.1068,-2.1959,0.0,0.0,0.0,0.0,0.0,0.0,0.0,0.0,0.0,0.0,0.0,0.0,0.0,0.0,0.0,0.0,0.0,0.0,0.0,0.0,0.0,0.0,0.0,0.0,0.0,0.0,0.0,0.0,0.0,0.0,0.0,0.0,0.0,0.0,0.0,0.0,0.0,0.0,0.0,0.0,0.0,0.0,0.0,0.0,0.0,0.0,0.0,0.0,0.0,0.0,0.0,0.0,0.0,0.0,0.0,0.7613,0.8214,0.8628,0.8784,0.8175,0.7547,0.6967,0.5422,0.379,0.0,0.0,0.0,0.0,0.0,0.0,0.0,0.0,0.0,0.0,0.0,0.0,0.0,0.0,0.0,0.0,0.0,0.0,0.0,0.0,0.0,0.0,0.0,0.0,0.0,0.0,0.0,0.0,0.0,0.0,0.0,0.0,0.0,0.0,0.0,0.0,0.0,0.0,0.0,0.0,0.0,-1.6142,-1.6345,-1.6751,-1.7151,0.0,0.0,-1.9462,-2.0271,-2.1068,-2.1935,-2.2949,0.0,0.0,0.0,0.0,0.0,0.0,0.0,0.0,0.0,0.0,0.0,0.0,0.0,0.0,0.0,0.0,0.0,0.0,0.0,0.0,0.0,0.0,0.0,0.0,0.0,0.0,0.0,0.0,0.0,0.0,0.0,0.0,0.0,0.0,0.0,0.0,0.0,0.0,0.0,0.0,0.0,0.0,0.0,0.0,0.0,0.0,0.0,0.0,0.0,0.0,0.0,0.0,0.0,0.5664,0.6511,0.6853,0.7122,0.731,0.6863,0.6215,0.5445,0.4245,0.2812,0.0,0.0,0.0,0.0,0.0,0.0,0.0,0.0,0.0,0.0,0.0,0.0,0.0,0.0,0.0,0.0,0.0,0.0,0.0,0.0,0.0,0.0,0.0,0.0,0.0,0.0,0.0,0.0,-1.8503,-1.8422,-1.8518,0.0,0.0,0.0,0.0,0.0,0.0,0.0,0.0,0.0,0.0,-1.62,-1.6495,-1.6881,0.0,0.0,-1.8792,-1.9669,-2.0409,-2.1215,-2.203,-2.2949,-2.3588,0.0,0.0,0.0,0.0,0.0,0.0,0.0,0.0,0.0,0.0,0.0,0.0,0.0,0.0,0.0,0.0,0.0,0.0,0.0,0.0,0.0,0.0,0.0,0.0,0.0,0.0,0.0,0.0,0.0,0.0,0.0,0.0,0.0,0.0,0.0,0.0,0.0,0.0,0.0,0.0,0.0,0.0,0.0,0.0,0.0,0.0,0.0,0.0,0.0,0.0,0.0,0.0,0.4618,0.5354,0.5544,0.5735,0.5848,0.5461,0.4917,0.4114,0.3104,0.1818,0.0,0.0,0.0,0.0,0.0,0.0,0.0,0.0,0.0,0.0,0.0,0.0,0.0,0.0,0.0,0.0,0.0,0.0,0.0,0.0,0.0,0.0,0.0,0.0,0.0,0.0,0.0,0.0,-1.8503,-1.8518,-1.8694,0.0,0.0,0.0,0.0,0.0,0.0,0.0,0.0,0.0,0.0,-1.6343,-1.6609,-1.7106,-1.7595,-1.8147,-1.9056,-1.9978,-2.0646,-2.1434,-2.2203,-2.3046,0.0,0.0,0.0,0.0,0.0,0.0,0.0,0.0,0.0,0.0,0.0,0.0,0.0,0.0,0.0,0.0,0.0,0.0,0.0,0.0,0.0,0.0,0.0,0.0,0.0,0.0,0.0,0.0,0.0,0.0,0.0,0.0,0.0,0.0,0.0,0.0,0.0,0.0,0.0,0.0,0.0,0.0,0.0,0.0,0.0,0.0,0.0,0.0,0.0,0.0,0.0,0.0,0.0,0.3483,0.4109,0.4343,0.4462,0.4423,0.4036,0.3602,0.3125,0.2102,0.0905,-0.0489,0.0,0.0,0.0,0.0,0.0,0.0,0.0,0.0,0.0,0.0,0.0,0.0,0.0,0.0,0.0,0.0,0.0,0.0,0.0,0.0,0.0,0.0,0.0,0.0,0.0,0.0,-1.8394,-1.8506,-1.8706,0.0,0.0,0.0,0.0,0.0,0.0,0.0,0.0,0.0,0.0,-1.6609,-1.6637,-1.6779,-1.7412,-1.8034,-1.8444,-1.9333,-2.027,-2.1053,-2.1756,-2.2457,0.0,0.0,0.0,0.0,0.0,0.0,0.0,0.0,0.0,0.0,0.0,0.0,0.0,0.0,0.0,0.0,0.0,0.0,0.0,0.0,0.0,0.0,0.0,0.0,0.0,0.0,0.0,0.0,-0.6405,0.0,0.0,0.0,0.0,0.0,0.0,0.0,0.0,0.0,0.0,0.0,-0.4384,-0.3997,0.0,0.0,0.0,0.0,0.0,0.0,0.0,0.0,0.0,0.0,0.0,0.0,0.2743,0.3214,0.3292,0.3292,0.3134,0.2862,0.2392,0.1647,0.0895,-0.0499,-0.2639,0.0,0.0,0.0,0.0,0.0,0.0,0.0,0.0,0.0,0.0,0.0,0.0,0.0,0.0,0.0,0.0,0.0,0.0,0.0,0.0,0.0,0.0,0.0,0.0,0.0,-1.8259,0.0,0.0,0.0,0.0,0.0,0.0,0.0,0.0,0.0,0.0,0.0,-1.679,-1.6722,-1.6722,-1.6864,-1.72,-1.776,-1.8375,0.0,0.0,0.0,0.0,0.0,0.0,0.0,0.0,0.0,0.0,0.0,0.0,0.0,0.0,-2.6449,-2.603,-2.6465,-2.6778,-2.6561,0.0,0.0,0.0,0.0,0.0,0.0,0.0,0.0,0.0,0.0,0.0,0.0,0.0,0.0,0.0,0.0,-0.7139,0.0,0.0,0.0,0.0,0.0,0.0,0.0,0.0,-0.5406,-0.4967,-0.4384,-0.3841,-0.3374,0.0,-0.2627,-0.2276,0.0,0.0,0.0,0.0,0.0,0.0,0.0,0.0,0.2,0.2276,0.2356,0.2237,0.1961,0.1686,0.1216,0.051,-0.0549,-0.2013,-0.3962,-0.5427,-0.679,0.0,0.0,0.0,0.0,0.0,0.0,0.0,0.0,0.0,0.0,0.0,0.0,0.0,0.0,0.0,0.0,0.0,0.0,0.0,0.0,0.0,0.0,0.0,-1.8002,0.0,0.0,0.0,0.0,0.0,0.0,0.0,0.0,0.0,-1.725,-1.6987,-1.679,-1.679,-1.7041,-1.7412,-1.7935,0.0,0.0,0.0,0.0,0.0,0.0,0.0,-2.3655,-2.4149,-2.4534,-2.5109,-2.5977,-2.6703,-2.7174,-2.7169,0.0,0.0,-2.6467,-2.6781,-2.7114,-2.6876,-2.6971,-2.708,-2.7119,-2.7039,-2.6976,0.0,0.0,0.0,0.0,0.0,0.0,0.0,0.0,-0.6609,-0.6855,0.0,-0.7286,0.0,0.0,0.0,0.0,0.0,0.0,0.0,0.0,-0.5459,-0.4933,-0.4362,-0.354,-0.3147,-0.3071,-0.2478,-0.2086,-0.1889,-0.1692,0.0,0.0,0.0,0.0,0.0,0.0,0.1258,0.1297,0.1454,0.1336,0.0864,0.0471,0.0039,-0.0432,-0.2155,-0.36,-0.454,-0.6094,-0.7334,-0.8239,-0.965,0.0,0.0,0.0,0.0,0.0,0.0,0.0,0.0,0.0,0.0,0.0,0.0,0.0,0.0,0.0,0.0,0.0,0.0,0.0,0.0,-1.7551,0.0,0.0,0.0,0.0,0.0,0.0,0.0,0.0,0.0,0.0,-1.7197,-1.6984,-1.686,-1.6899,0.0,0.0,0.0,0.0,-2.0949,-2.1845,-2.2564,-2.329,-2.4148,-2.4732,-2.5254,-2.5679,0.0,0.0,-2.6876,-2.7076,-2.7209,-2.7178,-2.7516,-2.7538,-2.6986,-2.7252,-2.7481,-2.7357,-2.7666,-2.7864,-2.7635,-2.7414,-2.7229,-0.395,0.0,0.0,0.0,0.0,-0.6179,-0.6452,-0.6615,-0.6819,-0.696,-0.7044,-0.7259,0.0,0.0,0.0,0.0,0.0,0.0,-0.6648,-0.5959,-0.5668,-0.5213,-0.4611,-0.3872,-0.3462,-0.3296,-0.2474,-0.2044,-0.1973,-0.1571,-0.1119,-0.0589,0.0,0.0,0.0,0.0,0.0746,0.0589,0.0629,0.0393,-0.0157,-0.0432,-0.106,-0.204,-0.3482,-0.4632,-0.5481,-0.6929,-0.8184,-0.9291,-1.0607,0.0,0.0,0.0,0.0,0.0,0.0,0.0,0.0,0.0,0.0,0.0,0.0,0.0,0.0,0.0,0.0,0.0,0.0,0.0,-1.8121,-1.8272,-1.8449,0.0,0.0,0.0,0.0,0.0,0.0,0.0,0.0,0.0,-1.8264,-1.8183,-1.8224,0.0,0.0,-1.9413,-2.0049,-2.0754,-2.1542,-2.2443,0.0,0.0,0.0,-2.5053,-2.5482,-2.5748,-2.6627,-2.7378,-2.7571,-2.8119,-2.8507,-2.8392,-2.8473,-2.849,-2.8272,-2.8163,-2.808,-2.7878,-2.7932,-2.784,-2.7437,-2.7299,-2.7119,-0.4477,-0.4858,-0.5407,-0.5814,-0.6159,-0.645,-0.669,-0.6875,-0.6999,-0.7052,-0.708,-0.7317,-0.7365,-0.7281,-0.7281,0.0,0.0,0.0,-0.6711,-0.5996,-0.5835,-0.5412,-0.4703,-0.4118,-0.3697,-0.3359,-0.2647,-0.2213,-0.2141,-0.169,-0.1263,-0.0876,0.0,0.0,0.0157,0.0314,0.0275,0.0039,0.0,-0.0354,-0.0983,-0.1569,-0.243,-0.3526,-0.4613,-0.5574,-0.6384,-0.7702,-0.8911,-1.0008,-1.1198,-1.2181,0.0,0.0,0.0,0.0,0.0,0.0,0.0,0.0,0.0,0.0,0.0,-1.7623,0.0,0.0,0.0,0.0,-1.7775,-1.7742,-1.8088,-1.8292,0.0,0.0,0.0,0.0,0.0,0.0,0.0,-1.9489,-1.9481,-1.9488,-1.9574,-1.9689,-1.9666,-1.9313,-1.9874,-2.0547,-2.1223,0.0,-2.2736,-2.3635,-2.4267,-2.4885,-2.5589,-2.6135,-2.6594,-2.6925,-2.762,-2.8186,-2.8287,-2.8755,-2.9075,-2.899,-2.8943,-2.8897,-2.8858,-2.8684,-2.8484,-2.8217,-2.798,-2.7715,-2.7412,-2.7233,-2.6989,-0.4973,-0.5442,-0.5871,-0.6138,-0.6383,-0.6771,-0.6977,-0.7092,-0.7095,-0.7152,-0.7211,-0.7395,-0.7386,-0.728,-0.7277,0.0,0.0,-0.713,-0.678,-0.6029,-0.598,-0.5502,-0.4727,-0.4353,-0.3928,-0.3463,-0.2959,-0.2619,-0.2404,-0.1981,-0.1584,-0.1305,-0.0877,-0.0472,-0.0079,-0.0079,-0.0196,-0.0393,-0.0589,-0.106,-0.1767,-0.2901,-0.3915,-0.4776,-0.5583,-0.6426,-0.728,-0.8461,-0.9547,-1.0478,-1.1605,-1.2668,-1.3622,0.0,0.0,0.0,0.0,0.0,0.0,0.0,0.0,0.0,0.0,0.0,0.0,0.0,0.0,0.0,-1.7667,0.0,-1.7781,-1.7905,0.0,0.0,0.0,-1.9091,-1.922,-1.94,-1.964,-1.9961,0.0,0.0,0.0,0.0,-2.1113,-2.0092,-2.0771,-2.1637,-2.243,-2.3289,-2.4221,-2.5092,-2.5742,-2.6404,-2.6983,-2.758,-2.8097,-2.8544,-2.8881,-2.8896,-2.8935,-2.902,-2.9137,-2.916,-2.9013,-2.8951,-2.8928,-2.8881,-2.8747,-2.8493,-2.8039,-2.7675,-2.7625,-2.735,-2.7041,-0.506,-0.5672,-0.6101,-0.6446,-0.67,-0.696,-0.7065,-0.7095,-0.7095,-0.7119,-0.7132,-0.717,-0.719,-0.7165,-0.7121,-0.7121,-0.7078,-0.7115,-0.6849,-0.634,-0.628,-0.5794,-0.4937,-0.4678,-0.4284,-0.3754,-0.3312,-0.2935,-0.272,-0.2458,-0.209,-0.1626,-0.1508,-0.1198,-0.0708,-0.0668,-0.0864,-0.1297,-0.1491,-0.2118,-0.3253,-0.4148,-0.4927,-0.5592,-0.6591,-0.7433,-0.8114,-0.9258,-1.0372,-1.1359,-1.2513,-1.3491,-1.4185,-1.5212,0.0,0.0,0.0,0.0,0.0,0.0,0.0,0.0,0.0,-1.7747,-1.8111,0.0,-1.7853,0.0,-1.8265,-1.8327,-1.8524,-1.8711,0.0,0.0,-1.9769,-2.012,-2.031,-2.0457,-2.0628,-2.088,-2.0923,-2.1095,-2.1482,-2.1913,-2.2231,-2.2254,-2.2478,-2.2895,-2.3615,-2.4257,-2.4978,-2.5743,-2.6351,-2.6916,-2.7575,-2.8113,-2.8581,-2.8975,-2.9029,-2.9121,-2.9321,-2.9405,-2.9405,-2.9389,-2.9366,-2.9305,-2.9198,-2.9098,-2.8959,-2.8818,-2.8462,-2.8137,-2.7934,-2.765,-2.7372,-0.5413,-0.5902,-0.6387,-0.67,-0.6969,-0.7054,-0.7095,-0.7095,-0.7095,-0.7095,-0.7095,-0.7095,-0.7095,-0.7095,-0.7095,-0.7095,-0.7095,-0.7095,-0.6874,-0.6428,-0.6428,-0.5985,-0.5191,-0.506,-0.4659,-0.4078,-0.3808,-0.3518,-0.3177,-0.2908,-0.2658,-0.2387,-0.2231,-0.2099,-0.1954,-0.1538,-0.1569,-0.2003,-0.2586,-0.3365,-0.4307,-0.5118,-0.5854,-0.6595,-0.7557,-0.8356,-0.9069,-1.0056,-1.1111,-1.2187,-1.3171,-1.4173,-1.5055,-1.6005,-1.6678,0.0,0.0,0.0,0.0,0.0,0.0,0.0,0.0,0.0,0.0,0.0,-1.8025,0.0,0.0,0.0,-1.865,-1.8975,-1.9341,-1.9704,-2.014,-2.0496,-2.0743,-2.0999,-2.1221,-2.1411,-2.16,-2.1862,-2.218,-2.2641,-2.3125,-2.359,-2.3868,-2.416,-2.4478,-2.4991,-2.5633,-2.6272,-2.6852,-2.7454,-2.818,-2.8581,-2.8912,-2.9206,-2.9275,-2.9337,-2.9473,-2.9496,-2.9496,-2.9496,-2.9496,-2.9496,-2.9389,-2.9344,-2.9252,-2.9144,-2.8951,-2.8597,-2.8259,-2.7949,-2.77,-0.5899,-0.6216,-0.6615,-0.6925,-0.7095,-0.7095,-0.7095,-0.7095,-0.7095,-0.7095,-0.7095,-0.7095,-0.7095,-0.7095,-0.7095,-0.7095,-0.7095,-0.7095,-0.6874,-0.6473,-0.6428,-0.6077,-0.546,-0.5416,-0.506,-0.4433,-0.4389,-0.4166,-0.3765,-0.3496,-0.3374,-0.3314,-0.3128,-0.3186,-0.3426,-0.2708,-0.2476,-0.2785,-0.3795,-0.4574,-0.5198,-0.597,-0.6822,-0.7633,-0.8437,-0.9231,-1.003,-1.085,-1.1818,-1.2966,-1.3753,-1.4716,-1.6009,-1.6811,-1.7383,0.0,-1.8346,0.0,0.0,0.0,0.0,0.0,0.0,0.0,0.0,-1.8291,-1.8215,-1.8341,-1.8337,-1.8438,-1.8607,-1.9042,-1.9506,-1.9933,-2.0302,-2.0614,-2.0955,-2.1305,-2.162,-2.1776,-2.2223,-2.2622,-2.2957,-2.3424,-2.3872,-2.4394,-2.495,-2.5272,-2.5314,-2.5688,-2.6204,-2.6736,-2.7342,-2.8067,-2.8716,-2.9013,-2.9213,-2.9473,-2.9518,-2.9541,-2.9563,-2.9563,-2.9563,-2.9563,-2.9586,-2.9541,-2.9541,-2.9518,-2.9518,-2.9473,-2.9275,-2.8998,-2.8612,-2.8284,-2.8024,-0.608,-0.6662,-0.6748,-0.6925,-0.7095,-0.7095,-0.7095,-0.7095,-0.7095,-0.7095,-0.7095,-0.7095,-0.7095,-0.7095,-0.7095,-0.7095,-0.7095,-0.7095,-0.6966,-0.67,-0.6476,-0.6121,-0.5633,-0.5502,-0.5235,-0.4875,-0.4877,-0.4746,-0.4482,-0.4435,-0.4291,-0.4094,-0.4202,-0.4327,0.0,0.0,0.0,0.0,-0.4965,-0.5622,-0.6289,-0.7092,-0.7817,-0.8475,-0.9236,0.0,-1.085,-1.1818,-1.2776,-1.3753,-1.4545,0.0,0.0,0.0,0.0,0.0,0.0,0.0,0.0,0.0,0.0,0.0,-1.962,-1.9403,-1.9007,-1.8785,-1.8616,-1.8472,-1.8617,-1.8831,-1.9121,-1.9396,-1.9802,-2.041,-2.0752,-2.1135,-2.1526,-2.1944,-2.2285,-2.2427,-2.275,-2.313,-2.3607,-2.4047,-2.4567,-2.5133,-2.5715,-2.6203,-2.6481,-2.6522,-2.6774,-2.7357,-2.81,-2.8708,-2.9029,-2.9275,-2.9496,-2.963,-2.9675,-2.972,-2.9792,-2.9814,-2.983,-2.983,-2.983,-2.9786,-2.9697,-2.9675,-2.9653,-2.9518,-2.9473,-2.9321,-2.9045,-2.8716,-2.8429,-0.6694,0.0,-0.7279,-0.7411,0.0,-0.7496,-0.7496,-0.7499,-0.7231,-0.7095,-0.7095,-0.7095,-0.7095,-0.7095,-0.7095,-0.7095,-0.7095,-0.7095,-0.6966,-0.6792,-0.6656,-0.6387,-0.603,-0.5944,-0.5769,-0.5544,-0.5544,-0.5413,-0.5191,-0.5191,-0.5146,-0.501,-0.5222,-0.5445,-0.5664,-0.6213,-0.6116,-0.5434,-0.6047,-0.6703,-0.7322,-0.8122,-0.8884,-0.9571,0.0,0.0,0.0,0.0,0.0,0.0,0.0,0.0,0.0,0.0,0.0,-1.8777,-1.9353,-1.9791,-1.9987,-2.0237,-2.0346,-2.0172,-2.0053,-1.9791,-1.9241,-1.9031,-1.8931,-1.8888,-1.9065,-1.933,-1.9671,-2.0009,-2.0474,-2.104,-2.1408,-2.1803,-2.231,-2.2702,-2.3005,-2.3322,-2.3594,-2.3989,-2.4423,-2.4893,-2.5398,-2.5878,-2.6443,-2.6941,-2.7265,-2.728,-2.7484,-2.814,-2.8637,-2.9098,-2.9366,-2.9515,-2.9687,-2.9814,-2.9902,-2.9951,-3.0033,-3.0055,-3.0055,-3.0055,-3.0055,-3.0033,-2.9968,-2.9946,-2.9902,-2.977,-2.9687,-2.9598,-2.9434,-2.9114,-2.8787,-0.7404,-0.7665,-0.7893,-0.8025,-0.8028,-0.8032,-0.8025,-0.7981,0.0,0.0,0.0,-0.7228,-0.7228,-0.7231,-0.7231,-0.7228,-0.7228,-0.7231,-0.7143,-0.7017,-0.6928,-0.6789,-0.6609,-0.6561,-0.6435,-0.6305,-0.626,-0.6169,-0.5941,-0.5941,-0.5985,-0.603,-0.6254,-0.6618,-0.7041,-0.7699,-0.765,-0.6899,-0.7276,-0.7817,-0.8423,-0.9188,-0.9938,-1.0706,-1.1484,-1.2298,-1.3076,-1.3861,-1.4716,-1.5648,-1.6202,-1.6906,-1.7808,-1.8341,-1.8821,-1.9231,-1.9824,-2.0172,-2.0226,-2.055,-2.0669,-2.054,-2.0421,-2.0063,-1.9506,-1.9363,-1.9386,-1.9474,-1.9715,-2.0009,-2.0334,-2.0805,-2.1325,-2.1803,-2.2144,-2.2573,-2.3177,-2.3458,-2.3767,-2.4205,-2.4523,-2.4878,-2.53,-2.577,-2.6231,-2.6642,-2.7137,-2.761,-2.7925,-2.8024,-2.8204,-2.8787,-2.9106,-2.935,-2.9621,-2.9804,-2.9913,-3.0011,-3.0141,-3.0231,-3.0236,-3.0253,-3.0253,-3.0269,-3.0269,-3.0248,-3.0248,-3.0189,-3.0162,-3.0038,-2.9957,-2.9902,-2.9954,-2.9717,-2.9396,-0.7848,-0.8113,-0.8416,-0.8508,-0.8504,-0.8504,-0.8504,-0.8464,-0.7984,-0.7808,-0.7808,-0.7764,-0.7768,-0.7764,-0.7808,-0.7764,-0.7808,-0.7808,-0.7764,0.0,-0.7492,-0.7401,-0.7356,-0.7139,-0.6962,-0.6962,-0.6962,-0.6922,-0.6918,-0.6918,-0.7007,-0.7268,-0.7452,-0.7908,-0.8556,-0.8804,-0.9062,-0.9354,-0.8965,-0.9041,-0.9652,-1.025,-1.0887,-1.1521,-1.2298,-1.3069,-1.3825,-1.4788,-1.564,-1.642,-1.6959,-1.7604,-1.8341,-1.8798,-1.9241,-1.9769,-2.0129,-2.0496,-2.0775,-2.0839,-2.0935,-2.1074,-2.1146,-2.088,-2.0074,-2.0139,-2.0226,-2.0258,-2.0645,-2.1028,-2.1365,-2.171,-2.2206,-2.2786,-2.31,-2.3412,-2.3901,-2.4205,-2.4494,-2.485,-2.5286,-2.5619,-2.5975,-2.6431,-2.6916,-2.7382,-2.7785,-2.8253,-2.8724,-2.8842,-2.8897,-2.9198,-2.9515,-2.97,-2.981,-3.0,-3.0124,-3.0163,-3.0286,-3.0384,-3.041,-3.0431,-3.0485,-3.0464,-3.0422,-3.0396,-3.038,-3.0253,-3.0281,-3.0238,-3.0228,-3.0353,-3.0903,-3.0916,-3.069,-0.8727,-0.8986,-0.9248,-0.9336,-0.9336,-0.9209,-0.9161,-0.9117,-0.8907,-0.8596,-0.8288,-0.8288,-0.8288,-0.8288,-0.8288,-0.8288,-0.8292,-0.8288,-0.8201,-0.8069,-0.7933,-0.7889,-0.7889,-0.7757,-0.7801,-0.7889,-0.7933,-0.7933,-0.7933,-0.7929,-0.8021,-0.8277,-0.8851,-0.9388,-0.9826,-1.0229,-1.0551,-1.0862,-1.0175,-1.0169,-1.085,-1.1484,-1.2114,-1.2799,-1.347,-1.4194,-1.4974,-1.5789,-1.6603,-1.732,-1.7886,-1.8428,-1.9054,-1.9551,-1.9944,-2.0248,-2.0807,-2.1146,-2.1336,-2.1506,-2.1675,-2.1851,-2.1913,-2.1858,-2.1635,-2.127,-2.1123,-2.1302,-2.1616,-2.1959,-2.2378,-2.2761,-2.3225,-2.3725,-2.4047,-2.4408,-2.4766,-2.509,-2.5384,-2.5674,-2.6001,-2.6365,-2.6645,-2.71,-2.7494,-2.79,-2.8365,-2.8881,-2.936,-2.9418,-2.9432,-2.9566,-2.97,-2.9853,-3.0,-3.0215,-3.0338,-3.0387,-3.0522,-3.0651,-3.0675,-3.0712,-3.0712,-3.0712,-3.0688,-3.0688,-3.0684,-3.0609,-3.0675,-3.094,-3.0952,-3.1227,-3.1708,-3.2115,-3.2192,-0.9602,-0.9777,-1.0038,-1.0168,-1.012,-0.9951,-0.9864,-0.9864,-0.9864,-0.9554,-0.9117,-0.8986,-0.8899,-0.8894,-0.8899,-0.8899,-0.8811,-0.8811,-0.8684,-0.8464,-0.842,-0.8464,-0.846,-0.8508,-0.8636,-0.8811,-0.8899,-0.8899,-0.8899,-0.8986,-0.9157,-0.9501,-1.0332,-1.0858,-1.1063,-1.1571,-1.1947,-1.2096,-1.1583,-1.1545,-1.2114,-1.2629,-1.328,-1.4078,-1.4653,-1.5338,-1.6132,-1.6881,-1.7604,-1.8307,-1.8821,-1.9363,-1.9922,-2.0366,-2.072,-2.0976,-2.1526,-2.1882,-2.1975,-2.2297,-2.2525,-2.2635,-2.2714,-2.2884,-2.307,-2.2652,-2.2317,-2.2439,-2.2665,-2.298,-2.3416,-2.3829,-2.4208,-2.458,-2.4963,-2.5272,-2.5577,-2.6019,-2.6418,-2.67,-2.7135,-2.7556,-2.7828,-2.8212,-2.865,-2.9011,-2.9391,-2.9874,-3.0148,-3.0328,-3.0352,-3.0168,-3.0076,-3.0049,-3.0253,-3.0447,-3.0593,-3.0634,-3.0818,-3.0958,-3.0998,-3.1018,-3.1032,-3.1049,-3.1217,-3.1278,-3.1258,-3.1405,-3.1604,-3.1914,-3.1955,-3.2122,-3.2677,-3.3254,-3.345,-1.0207,-1.025,-1.0559,-1.0641,-1.0641,-1.0598,-1.0598,-1.0598,-1.0598,-1.0598,-1.0424,-1.0077,-0.9864,-0.9864,-0.9864,-0.9728,-0.951,-0.9515,-0.9384,-0.9213,-0.9213,-0.9213,-0.9213,-0.9384,-0.9471,-0.9559,-0.9733,-0.9859,-0.9907,-1.0077,-1.0463,-1.1106,-1.1843,-1.2264,-1.2441,-1.2781,-1.313,-1.3516,-1.3623,-1.3564,-1.3346,-1.368,-1.4266,-1.5054,-1.5789,-1.6507,-1.7232,-1.7969,-1.871,-1.9398,-1.9802,-2.0291,-2.0901,-2.1198,-2.1502,-2.1928,-2.2211,-2.2482,-2.2757,-2.309,-2.3271,-2.333,-2.3704,-2.3943,-2.4031,-2.4237,-2.4121,-2.3738,-2.3809,-2.4105,-2.4509,-2.4778,-2.513,-2.5578,-2.5827,-2.5934,-2.6345,-2.6987,-2.7661,-2.7998,-2.8782,-2.955,-2.9613,-2.9997,-3.0538,-3.0773,-3.1118,-3.144,-3.1565,-3.1766,-3.1767,-3.138,-3.0922,-3.0525,-3.0559,-3.0753,-3.0952,-3.0968,-3.1159,-3.1378,-3.1506,-3.156,-3.1475,-3.1862,-3.1995,-3.2272,-3.2344,-3.2596,-3.2951,-3.2978,-3.3048,-3.3166,-3.3733,-3.4213,-3.4215,-1.1111,-1.116,-1.1381,-1.1472,-1.1472,-1.1332,-1.1284,-1.1289,-1.1284,-1.1284,-1.1295,-1.1214,-1.0911,-1.0429,-1.0554,-1.0467,-1.025,-1.0255,-1.0125,-0.9907,-0.9907,-0.9907,-0.9907,-1.012,-1.0294,-1.0419,-1.0641,-1.0766,-1.0852,-1.1284,-1.18,-1.2314,-1.3033,-1.3526,-1.377,-1.4069,-1.446,-1.4926,-1.5009,-1.5215,-1.5446,-1.5286,-1.5534,-1.6271,-1.6957,-1.7575,-1.822,-1.89,-1.9562,-2.0171,-2.0687,-2.1207,-2.1678,-2.2075,-2.2427,-2.2695,-2.3027,-2.3382,-2.3721,-2.3868,-2.4044,-2.4319,-2.452,-2.4765,-2.5132,-2.5314,-2.5508,-2.5798,-2.5282,-2.5021,-2.5411,-2.5995,-2.6497,-2.6884,-2.7445,-2.7908,-2.8125,-2.8655,-2.9116,-2.9305,-2.9922,-3.0402,-3.0531,-3.087,-3.1307,-3.1662,-3.1956,-3.2138,-3.2245,-3.2374,-3.2401,-3.2277,-3.2119,-3.1696,-3.1098,-3.0955,-3.1323,-3.1805,-3.2078,-3.2263,-3.2805,-3.2982,-3.3048,-3.298,-3.3176,-3.3322,-3.3262,-3.338,-3.3651,-3.3863,-3.4347,-3.4538,-3.4743,-3.4865,-3.4724,-1.1811,-1.1811,-1.1952,-1.2043,-1.208,-1.1977,-1.1929,-1.1977,-1.1972,-1.1977,-1.1972,-1.2203,-1.1897,-1.1327,-1.1289,-1.1165,-1.0987,-1.0987,-1.0814,-1.0593,-1.0554,-1.0593,-1.0593,-1.0809,-1.1025,-1.1289,-1.1499,-1.1671,-1.1929,-1.2528,-1.3082,-1.3633,-1.4258,-1.4815,-1.515,-1.5512,-1.5912,-1.6387,-1.6417,-1.6782,-1.7366,-1.7185,-1.7129,-1.7516,-1.8085,-1.869,-1.9288,-1.9911,-2.0537,-2.1069,-2.1667,-2.2163,-2.2512,-2.2962,-2.3365,-2.3636,-2.3975,-2.4308,-2.4595,-2.4694,-2.4865,-2.5216,-2.5521,-2.5925,-2.6352,-2.6671,-2.7203,-2.7823,-2.7177,-2.6771,-2.6828,-2.7461,-2.7953,-2.827,-2.8996,-2.9465,-2.9582,-3.0095,-3.0486,-3.0565,-3.1187,-3.1602,-3.1744,-3.2042,-3.2377,-3.2691,-3.2778,-3.2784,-3.3004,-3.3176,-3.3253,-3.3134,-3.3371,-3.3005,-3.1952,-3.2001,-3.2346,-3.2706,-3.3117,-3.3442,-3.4073,-3.4125,-3.4142,-3.3725,-3.4098,-3.4352,-3.4361,-3.4383,-3.4538,-3.4972,-3.5287,-3.5425,-3.5311,-3.5274,-3.5158,-1.2,-1.1995,-1.2,-1.2209,-1.2369,-1.2363,-1.2491,-1.2619,-1.2662,-1.2662,-1.2705,-1.2924,-1.2881,-1.2577,-1.2198,-1.1866,-1.1677,-1.1671,-1.1499,-1.1284,-1.1278,-1.1284,-1.1284,-1.1542,-1.1757,-1.2015,-1.2272,-1.2705,-1.33,-1.3802,-1.4391,-1.5012,-1.5628,-1.6157,-1.6603,-1.7104,-1.7601,-1.7964,-1.8026,-1.8354,-1.9058,-1.9305,-1.9119,-1.8771,-1.9166,-1.9846,-2.0494,-2.1164,-2.1741,-2.2298,-2.2756,-2.319,-2.3526,-2.3868,-2.4334,-2.4821,-2.5033,-2.5216,-2.5411,-2.5688,-2.5909,-2.606,-2.698,-2.7581,-2.7706,-2.8454,-2.9092,-2.9475,-2.948,-2.9313,-2.9131,-2.9201,-2.9421,-2.9674,-2.9868,-3.0118,-3.0261,-3.1243,-3.1743,-3.1946,-3.2609,-3.3224,-3.3765,-3.3978,-3.3941,-3.4162,-3.4414,-3.4453,-3.4402,-3.4691,-3.4572,-3.4298,-3.4263,-3.4189,-3.352,-3.3256,-3.3633,-3.4066,-3.4183,-3.4422,-3.437,-3.4387,-3.4476,-3.4633,-3.5118,-3.5389,-3.5466,-3.5645,-3.589,-3.6036,-3.5788,-3.5778,-3.5684,-3.5492,-3.5373,-1.2887,-1.2887,-1.2887,-1.2973,-1.3045,-1.3052,-1.3052,-1.3137,-1.3307,-1.3349,-1.3385,-1.3639,-1.3688,-1.3616,-1.3434,-1.296,-1.2363,-1.2314,-1.2277,-1.2186,-1.2186,-1.2186,-1.2229,-1.2448,-1.2705,-1.2918,-1.313,-1.3639,-1.4468,-1.5054,-1.5587,-1.6157,-1.6895,-1.7513,-1.7929,-1.8413,-1.8984,-1.9599,-1.9769,-2.0176,-2.0853,-2.126,-2.1543,-2.1709,-2.1164,-2.1101,-2.1542,-2.2182,-2.2756,-2.316,-2.3636,-2.4047,-2.4478,-2.4963,-2.5328,-2.5564,-2.5797,-2.6198,-2.6757,-2.6979,-2.7398,-2.8117,-2.8609,-2.9,-2.919,-2.9652,-3.0179,-3.0715,-3.1039,-3.1219,-3.1447,-3.1033,-3.072,-3.1111,-3.1515,-3.1823,-3.2185,-3.2625,-3.2914,-3.3023,-3.3531,-3.3984,-3.425,-3.4349,-3.4423,-3.4594,-3.4683,-3.478,-3.4906,-3.5041,-3.5071,-3.5155,-3.5282,-3.542,-3.5347,-3.4438,-3.4239,-3.487,-3.5269,-3.5665,-3.5791,-3.5953,-3.6097,-3.5971,-3.6319,-3.6274,-3.6302,-3.6252,-3.6585,-3.6423,-3.6212,-3.6105,-3.6014,-3.5761,-3.5583,-1.3639,-1.3597,-1.3639,-1.3646,-1.3724,-1.3724,-1.3773,-1.3815,-1.3942,-1.4026,-1.4068,-1.4314,-1.4405,-1.4461,-1.4482,-1.4223,-1.3548,-1.33,-1.3179,-1.313,-1.3137,-1.3137,-1.3179,-1.3392,-1.3646,-1.3893,-1.4356,-1.4936,-1.5628,-1.6329,-1.6854,-1.7342,-1.8189,-1.8868,-1.9337,-1.9889,-2.0542,-2.1133,-2.146,-2.1886,-2.2536,-2.29,-2.3435,-2.3965,-2.3489,-2.312,-2.3182,-2.3768,-2.4253,-2.4655,-2.5098,-2.5605,-2.6118,-2.6567,-2.6843,-2.698,-2.7211,-2.764,-2.8263,-2.8459,-2.8839,-2.9609,-3.0107,-3.0426,-3.0641,-3.0968,-3.1508,-3.206,-3.2332,-3.2688,-3.2935,-3.2515,-3.217,-3.2405,-3.2793,-3.3113,-3.3414,-3.3549,-3.3704,-3.3799,-3.4034,-3.4325,-3.4497,-3.4562,-3.4635,-3.4756,-3.4787,-3.4923,-3.5041,-3.5205,-3.5344,-3.5622,-3.5876,-3.6105,-3.616,-3.5647,-3.5379,-3.5885,-3.6092,-3.6594,-3.6864,-3.717,-3.7297,-3.7278,-3.722,-3.7124,-3.7027,-3.6928,-3.6809,-3.667,-3.6547,-3.6423,-3.6255,-3.6002,-3.5827,-1.4139,-1.4139,-1.4104,-1.4223,-1.4391,-1.4398,-1.4524,-1.465,-1.4692,-1.4734,-1.4741,-1.4992,-1.5131,-1.5166,-1.5318,-1.5352,-1.5144,-1.4573,-1.4195,-1.4097,-1.4117,-1.4124,-1.4124,-1.4314,-1.4559,-1.4817,-1.585,-1.646,-1.678,-1.7585,-1.8198,-1.8718,-1.9502,-2.0246,-2.0788,-2.158,-2.228,-2.2657,-2.2986,-2.3432,-2.3977,-2.4329,-2.4831,-2.5492,-2.5998,-2.6034,-2.5534,-2.5862,-2.6216,-2.6723,-2.7227,-2.7851,-2.821,-2.8477,-2.8773,-2.899,-2.9364,-2.9609,-2.9784,-3.0053,-3.0184,-3.0591,-3.128,-3.1862,-3.1993,-3.2625,-3.3171,-3.3318,-3.3417,-3.3565,-3.3662,-3.3691,-3.3608,-3.3539,-3.3497,-3.3591,-3.372,-3.3924,-3.4176,-3.4374,-3.4472,-3.4562,-3.4643,-3.4707,-3.4756,-3.4875,-3.4994,-3.5088,-3.5182,-3.5389,-3.5639,-3.5822,-3.6127,-3.6426,-3.6673,-3.6858,-3.688,-3.6958,-3.6986,-3.7189,-3.7173,-3.7336,-3.7391,-3.7372,-3.7334,-3.7222,-3.7201,-3.7105,-3.7066,-3.693,-3.6831,-3.671,-3.6509,-3.6322,-3.6131,-1.4977,-1.5019,-1.4977,-1.5019,-1.5103,-1.5103,-1.5144,-1.5193,-1.5318,-1.5401,-1.5443,-1.5665,-1.5873,-1.5989,-1.6064,-1.6188,-1.627,-1.5989,-1.5567,-1.5103,-1.5026,-1.4985,-1.5026,-1.5235,-1.5553,-1.6165,-1.7025,-1.7674,-1.8109,-1.8899,-1.958,-2.0168,-2.0981,-2.1631,-2.2124,-2.2861,-2.3526,-2.4061,-2.4685,-2.5302,-2.5956,-2.6406,-2.6987,-2.769,-2.8179,-2.8464,-2.8717,-2.7813,-2.7426,-2.7691,-2.8111,-2.8637,-2.918,-2.9465,-2.9693,-2.9879,-3.0143,-3.0612,-3.117,-3.1431,-3.1748,-3.2259,-3.2835,-3.3101,-3.3169,-3.355,-3.3873,-3.4025,-3.405,-3.4101,-3.4226,-3.4275,-3.4201,-3.3949,-3.4,-3.4075,-3.4201,-3.4325,-3.4448,-3.4594,-3.4618,-3.4691,-3.4804,-3.4851,-3.4899,-3.4994,-3.5081,-3.5182,-3.5412,-3.5616,-3.5844,-3.6088,-3.6406,-3.669,-3.6911,-3.7108,-3.7204,-3.7241,-3.7317,-3.7391,-3.7392,-3.7411,-3.7448,-3.7448,-3.7411,-3.7354,-3.7334,-3.7278,-3.7239,-3.7184,-3.7068,-3.6933,-3.6794,-3.6632,-3.6447,-1.5891,-1.5899,-1.5858,-1.5899,-1.5899,-1.5899,-1.5899,-1.5899,-1.5982,-1.6072,-1.6113,-1.6368,-1.6566,-1.6763,-1.6845,-1.7009,-1.7139,-1.7188,-1.6894,-1.6345,-1.5974,-1.5933,-1.6057,-1.6378,-1.6911,-1.7594,-1.8318,-1.8948,-1.9462,-2.0207,-2.0904,-2.1555,-2.2274,-2.2909,-2.3463,-2.4169,-2.4826,-2.544,-2.6158,-2.6841,-2.7445,-2.8019,-2.8648,-2.93,-2.9704,-3.0194,-3.063,-2.99,-2.9434,-2.9434,-2.9804,-3.0293,-3.0691,-3.0976,-3.12,-3.1342,-3.1607,-3.2059,-3.255,-3.2768,-3.3004,-3.3521,-3.3797,-3.3949,-3.3984,-3.4176,-3.43,-3.4423,-3.4448,-3.4472,-3.4546,-3.4683,-3.4635,-3.4497,-3.4399,-3.4448,-3.4546,-3.457,-3.4618,-3.4715,-3.478,-3.4828,-3.4875,-3.497,-3.4994,-3.5088,-3.5205,-3.5367,-3.5644,-3.5844,-3.6148,-3.6406,-3.667,-3.6911,-3.7126,-3.7298,-3.7466,-3.7485,-3.7485,-3.7485,-3.7485,-3.7522,-3.754,-3.7558,-3.7503,-3.7485,-3.7466,-3.7447,-3.741,-3.7336,-3.7279,-3.7127,-3.7011,-3.6895,-3.6756,-1.6771,-1.6738,-1.6738,-1.673,-1.673,-1.673,-1.673,-1.6771,-1.6771,-1.6812,-1.6812,-1.7017,-1.7261,-1.7473,-1.7659,-1.7821,-1.8031,-1.8072,-1.8072,-1.7821,-1.7367,-1.7074,-1.7277,-1.7796,-1.8399,-1.9015,-1.9668,-2.0285,-2.0827,-2.1555,-2.2209,-2.2846,-2.3463,-2.4084,-2.4803,-2.5533,-2.6193,-2.6786,-2.7425,-2.8038,-2.8588,-2.9111,-2.9718,-3.0375,-3.0822,-3.1247,-3.1607,-3.1936,-3.1995,-3.1692,-3.1921,-3.2249,-3.2621,-3.2926,-3.2972,-3.3082,-3.3501,-3.3643,-3.3876,-3.3921,-3.4045,-3.4118,-3.4275,-3.4399,-3.4497,-3.457,-3.4643,-3.4756,-3.4756,-3.4756,-3.4787,-3.4947,-3.5041,-3.5041,-3.4763,-3.4643,-3.4691,-3.4691,-3.4739,-3.4851,-3.4899,-3.4923,-3.4923,-3.5018,-3.5105,-3.5205,-3.5435,-3.5622,-3.5866,-3.6148,-3.6444,-3.671,-3.6911,-3.7126,-3.7317,-3.7448,-3.7577,-3.7649,-3.7649,-3.7631,-3.7613,-3.7649,-3.7667,-3.7667,-3.7631,-3.7631,-3.7631,-3.7613,-3.7594,-3.7539,-3.7448,-3.7336,-3.7223,-3.7147,-3.7069,-1.7416,-1.7456,-1.7456,-1.7408,-1.7416,-1.7456,-1.7546,-1.7668,-1.7668,-1.7668,-1.7676,-1.7708,-1.791,-1.8152,-1.8345,-1.8545,-1.8754,-1.8865,-1.9054,-1.9134,-1.8966,-1.8776,-1.8807,-1.9195,-1.9668,-2.0187,-2.0904,-2.1517,-2.201,-2.2761,-2.35,-2.4192,-2.4862,-2.5533,-2.6183,-2.6854,-2.7445,-2.8005,-2.8583,-2.9205,-2.9782,-3.0284,-3.0837,-3.1448,-3.1821,-3.2256,-3.2722,-3.3245,-3.3219,-3.2683,-3.283,-3.3129,-3.3393,-3.3575,-3.3755,-3.4009,-3.4159,-3.4333,-3.4472,-3.4618,-3.4691,-3.4691,-3.4787,-3.4899,-3.4963,-3.5041,-3.5088,-3.5152,-3.5135,-3.5152,-3.5152,-3.5222,-3.5245,-3.5222,-3.5065,-3.4923,-3.4875,-3.4851,-3.4835,-3.4899,-3.4923,-3.497,-3.5041,-3.5111,-3.5205,-3.5396,-3.5622,-3.5844,-3.6127,-3.6426,-3.6751,-3.6913,-3.7108,-3.7318,-3.7503,-3.7595,-3.7685,-3.781,-3.7828,-3.781,-3.7793,-3.7811,-3.7828,-3.7828,-3.7793,-3.7775,-3.7793,-3.7811,-3.7775,-3.7685,-3.7649,-3.7558,-3.7485,-3.7393,-3.7317,-1.8112,-1.8121,-1.8121,-1.8112,-1.8112,-1.8121,-1.8233,-1.8393,-1.8442,-1.8474,-1.8514,-1.8554,-1.8674,-1.8913,-1.9103,-1.9301,-1.9548,-1.9736,-1.9962,-2.0148,-2.0372,-2.0216,-2.007,-2.0372,-2.0914,-2.1375,-2.2161,-2.2824,-2.3427,-2.4084,-2.4803,-2.5498,-2.6205,-2.6799,-2.7371,-2.8032,-2.8634,-2.9129,-2.9704,-3.0359,-3.0955,-3.1377,-3.1862,-3.2379,-3.2722,-3.3113,-3.3688,-3.4059,-3.3984,-3.3626,-3.3636,-3.3841,-3.4101,-3.425,-3.4448,-3.4691,-3.4787,-3.4883,-3.5048,-3.5182,-3.5188,-3.5211,-3.5258,-3.5327,-3.5367,-3.5412,-3.5435,-3.5481,-3.552,-3.552,-3.5503,-3.5549,-3.5549,-3.5526,-3.5452,-3.5297,-3.5105,-3.5081,-3.5081,-3.5065,-3.5065,-3.5105,-3.5175,-3.5251,-3.5412,-3.5577,-3.5849,-3.611,-3.6385,-3.6693,-3.6972,-3.7166,-3.7336,-3.7503,-3.7667,-3.7757,-3.781,-3.7916,-3.7986,-3.7986,-3.7934,-3.7934,-3.7899,-3.7899,-3.7917,-3.7917,-3.7934,-3.7934,-3.7882,-3.7828,-3.781,-3.7775,-3.7685,-3.7631,-3.7558,-1.878,-1.878,-1.878,-1.882,-1.882,-1.878,-1.8882,-1.9082,-1.9082,-1.9192,-1.9341,-1.939,-1.9508,-1.9715,-1.9942,-2.0177,-2.0381,-2.0644,-2.0944,-2.128,-2.1614,-2.1642,-2.1288,-2.1707,-2.2161,-2.266,-2.3401,-2.4084,-2.4696,-2.5369,-2.6102,-2.6752,-2.7358,-2.7934,-2.8505,-2.9125,-2.9718,-3.021,-3.0778,-3.1377,-3.1903,-3.2308,-3.2761,-3.323,-3.362,-3.4009,-3.4456,-3.4739,-3.4675,-3.4333,-3.4497,-3.4618,-3.4763,-3.4883,-3.5095,-3.5297,-3.5367,-3.5464,-3.5622,-3.5667,-3.5689,-3.5689,-3.5689,-3.5711,-3.58,-3.5761,-3.5739,-3.5844,-3.5861,-3.5861,-3.5861,-3.5954,-3.5932,-3.5883,-3.5822,-3.5689,-3.5458,-3.5337,-3.5314,-3.5308,-3.5291,-3.5308,-3.5383,-3.5481,-3.5622,-3.5844,-3.6088,-3.6343,-3.6612,-3.6913,-3.7203,-3.7448,-3.7594,-3.7703,-3.7828,-3.7933,-3.7967,-3.8037,-3.8106,-3.8107,-3.8039,-3.8004,-3.7969,-3.7969,-3.8021,-3.8021,-3.8004,-3.7987,-3.7952,-3.7934,-3.7951,-3.7916,-3.7881,-3.7828,-3.7739,-1.9408,-1.9408,-1.9408,-1.9408,-1.9399,-1.9399,-1.9518,-1.9706,-1.9706,-1.9863,-2.0029,-2.0059,-2.0177,-2.0411,-2.0731,-2.0964,-2.1079,-2.1578,-2.2063,-2.258,-2.299,-2.3313,-2.3254,-2.3353,-2.3438,-2.3913,-2.4576,-2.517,-2.5685,-2.6364,-2.6976,-2.771,-2.8414,-2.8989,-2.9642,-3.0254,-3.0852,-3.1319,-3.1836,-3.2296,-3.2756,-3.3145,-3.3578,-3.4068,-3.4578,-3.4954,-3.5195,-3.5447,-3.556,-3.5515,-3.5327,-3.5234,-3.527,-3.547,-3.565,-3.5783,-3.5893,-3.5985,-3.611,-3.6152,-3.6152,-3.6152,-3.6152,-3.6174,-3.6156,-3.6156,-3.6152,-3.6195,-3.6195,-3.6212,-3.6216,-3.6216,-3.6237,-3.6216,-3.6195,-3.6131,-3.5993,-3.5644,-3.5418,-3.536,-3.5337,-3.536,-3.5526,-3.5577,-3.5783,-3.6084,-3.636,-3.6588,-3.6851,-3.7126,-3.7373,-3.7631,-3.7739,-3.7846,-3.7933,-3.8037,-3.8071,-3.8105,-3.8175,-3.8192,-3.8124,-3.809,-3.8073,-3.8107,-3.8158,-3.8124,-3.809,-3.8107,-3.8107,-3.809,-3.8055,-3.802,-3.7985,-3.7951,-3.7952,-1.9754,-1.9754,-1.9745,-1.9745,-1.9754,-1.9872,-2.0069,-2.0216,-2.0323,-2.0489,-2.0693,-2.0819,-2.0925,-2.1069,-2.153,-2.1769,-2.1959,-2.259,-2.3176,-2.3607,-2.4082,-2.4576,-2.4981,-2.5075,-2.5146,-2.517,-2.5697,-2.6274,-2.6875,-2.7531,-2.8285,-2.8939,-2.9549,-3.0133,-3.0689,-3.1276,-3.1736,-3.2198,-3.2722,-3.3177,-3.3578,-3.3969,-3.4407,-3.4873,-3.5379,-3.5689,-3.5849,-3.5985,-3.6195,-3.6259,-3.6152,-3.5937,-3.5832,-3.5958,-3.611,-3.6259,-3.6305,-3.643,-3.6571,-3.6629,-3.6629,-3.6612,-3.6632,-3.6629,-3.6612,-3.6612,-3.6612,-3.6629,-3.665,-3.6629,-3.6612,-3.6632,-3.6629,-3.6629,-3.6629,-3.655,-3.6343,-3.6002,-3.5734,-3.5644,-3.5644,-3.5734,-3.5822,-3.5849,-3.6002,-3.6339,-3.6629,-3.6851,-3.6992,-3.7242,-3.7503,-3.7739,-3.7845,-3.795,-3.8054,-3.8123,-3.814,-3.8157,-3.8192,-3.8209,-3.8175,-3.8175,-3.8192,-3.8192,-3.8192,-3.8192,-3.8158,-3.8192,-3.8209,-3.8175,-3.8123,-3.8105,-3.8088,-3.809,-3.8073,-2.0059,-2.0098,-2.0098,-2.0108,-2.0137,-2.0342,-2.0576,-2.076,-2.0915,-2.1108,-2.1359,-2.155,-2.1655,-2.1845,-2.2327,-2.259,-2.299,-2.3629,-2.4238,-2.4647,-2.5123,-2.5627,-2.6055,-2.6501,-2.6761,-2.6352,-2.6854,-2.7491,-2.8103,-2.8812,-2.9366,-3.0103,-3.0689,-3.1131,-3.1652,-3.2148,-3.2574,-3.2991,-3.3491,-3.3951,-3.4391,-3.4745,-3.5207,-3.5683,-3.5963,-3.6233,-3.6364,-3.6509,-3.669,-3.6856,-3.6893,-3.6774,-3.6574,-3.643,-3.6471,-3.6693,-3.6713,-3.6814,-3.695,-3.7046,-3.7029,-3.7066,-3.7068,-3.7087,-3.7087,-3.7068,-3.7048,-3.7048,-3.7029,-3.7048,-3.7087,-3.7048,-3.7048,-3.7066,-3.7066,-3.693,-3.6713,-3.6447,-3.6297,-3.6041,-3.5997,-3.6041,-3.617,-3.6255,-3.6402,-3.6568,-3.6851,-3.7087,-3.7223,-3.7393,-3.7667,-3.7846,-3.7968,-3.8037,-3.8123,-3.8247,-3.8264,-3.8372,-3.8352,-3.8354,-3.8317,-3.8209,-3.8209,-3.8209,-3.8192,-3.8209,-3.8209,-3.8209,-3.8209,-3.8209,-3.8192,-3.8157,-3.8175,-3.8192,-3.8246,-2.0819,-2.0974,-2.1012,-2.0964,-2.1012,-2.1051,-2.1156,-2.1349,-2.1425,-2.1617,-2.1949,-2.2176,-2.244,-2.2777,-2.3187,-2.3717,-2.4288,-2.4838,-2.5335,-2.5732,-2.6161,-2.6561,-2.7224,-2.7677,-2.8005,-2.833,-2.8441,-2.8556,-2.8957,-2.9504,-3.0256,-3.0852,-3.1435,-3.1962,-3.2477,-3.2996,-3.3393,-3.3723,-3.4243,-3.4682,-3.5045,-3.5459,-3.5881,-3.635,-3.6571,-3.6713,-3.6853,-3.6952,-3.7087,-3.722,-3.7261,-3.7318,-3.7261,-3.7071,-3.7011,-3.7031,-3.7126,-3.7184,-3.7278,-3.7298,-3.7318,-3.7373,-3.7411,-3.7466,-3.7485,-3.7485,-3.7429,-3.7391,-3.739,-3.7426,-3.7503,-3.7606,-3.7425,-3.7389,-3.7475,-3.7379,-3.7228,-3.7145,-3.7018,-3.6818,-3.6592,-3.6322,-3.6468,-3.6591,-3.6713,-3.6873,-3.7126,-3.7317,-3.743,-3.7631,-3.7846,-3.7985,-3.8071,-3.814,-3.8192,-3.8336,-3.8443,-3.8658,-3.8676,-3.8694,-3.8587,-3.8299,-3.8245,-3.8676,-3.8479,-3.8209,-3.8209,-3.8227,-3.8209,-3.8209,-3.8209,-3.8263,-3.8427,-3.8627,-3.859,-2.1089,-2.1205,-2.132,-2.1359,-2.1397,-2.1578,-2.1769,-2.1949,-2.2111,-2.2327,-2.2665,-2.2964,-2.325,-2.3644,-2.4118,-2.4791,-2.5499,-2.5861,-2.6311,-2.6778,-2.7204,-2.769,-2.8312,-2.8698,-2.9223,-2.9673,-2.9872,-2.9919,-3.0074,-3.06,-3.1203,-3.1777,-3.2281,-3.2734,-3.3256,-3.3723,-3.4143,-3.4488,-3.4968,-3.5385,-3.5683,-3.6075,-3.6533,-3.6853,-3.7048,-3.7164,-3.7337,-3.7393,-3.7485,-3.7594,-3.7631,-3.7685,-3.7685,-3.7613,-3.7485,-3.7412,-3.7467,-3.7558,-3.7612,-3.7649,-3.7667,-3.7667,-3.7739,-3.7757,-3.7757,-3.7757,-3.7775,-3.781,-3.815,-3.8293,-3.8402,-3.8616,-3.8866,-3.8884,-3.881,-3.8718,-3.866,-3.8604,-3.8321,-3.7885,-3.7361,-3.7058,-3.6814,-3.6933,-3.7031,-3.7185,-3.7445,-3.7647,-3.7828,-3.8079,-3.8379,-3.8467,-3.8659,-3.8891,-3.8963,-3.909,-3.9108,-3.9181,-3.9234,-3.9235,-3.9343,-3.9253,-3.9432,-3.9775,-3.9325,-3.8587,-3.8263,-3.8281,-3.8245,-3.8354,-3.8627,-3.888,-3.8971,-3.9025,-3.9079,-2.1387,-2.1474,-2.1617,-2.1693,-2.1807,-2.2063,-2.2365,-2.2628,-2.2815,-2.3102,-2.3556,-2.3801,-2.4129,-2.4587,-2.517,-2.5871,-2.6654,-2.6905,-2.7364,-2.7835,-2.8293,-2.8807,-2.9331,-2.9811,-3.0269,-3.0748,-3.1218,-3.1422,-3.1203,-3.1578,-3.2158,-3.2668,-3.3055,-3.3491,-3.4009,-3.4399,-3.4809,-3.5207,-3.5655,-3.6049,-3.6388,-3.6719,-3.7089,-3.7353,-3.741,-3.7539,-3.7685,-3.7721,-3.7757,-3.7846,-3.7899,-3.7916,-3.7951,-3.7969,-3.7916,-3.7828,-3.7775,-3.781,-3.7864,-3.7916,-3.7881,-3.7881,-3.7934,-3.7951,-3.8041,-3.815,-3.8294,-3.8474,-3.8888,-3.9319,-3.9428,-3.9878,-4.0148,-4.0183,-4.0129,-4.02,-3.9963,-3.9817,-3.9745,-3.9161,-3.8312,-3.8075,-3.8129,-3.813,-3.8404,-3.8482,-3.8723,-3.8797,-3.8959,-3.8974,-3.9166,-3.9182,-3.936,-3.9718,-3.9917,-4.0154,-4.0154,-4.0137,-4.0155,-4.0155,-4.0354,-4.0517,-4.0625,-4.0552,-3.9956,-3.9288,-3.8821,-3.8697,-3.9059,-3.9331,-3.9441,-3.9532,-3.9659,-3.9804,-3.9912,-2.2111,-2.2262,-2.2289,-2.2402,-2.2553,-2.2628,-2.2964,-2.3446,-2.3519,-2.3838,-2.4383,-2.4731,-2.5052,-2.5616,-2.6492,-2.7082,-2.7517,-2.798,-2.8422,-2.8844,-2.9268,-2.9749,-3.0299,-3.0674,-3.1174,-3.1677,-3.2185,-3.2158,-3.2114,-3.2379,-3.2819,-3.3366,-3.3764,-3.4201,-3.4618,-3.5062,-3.543,-3.5722,-3.6174,-3.665,-3.705,-3.7337,-3.7522,-3.7649,-3.7757,-3.7828,-3.7898,-3.7916,-3.7951,-3.8002,-3.8002,-3.8054,-3.8123,-3.8157,-3.814,-3.8089,-3.8003,-3.7863,-3.7934,-3.7968,-3.811,-3.8128,-3.8198,-3.8176,-3.8468,-3.8849,-3.9319,-4.0149,-4.0257,-4.0257,-4.0294,-4.0438,-4.0456,-4.0546,-4.0744,-4.0617,-4.0489,-4.1015,-4.0942,-4.0798,-4.009,-3.9887,-3.9867,-3.9814,-3.9834,-3.9892,-3.9949,-3.9969,-3.9967,-3.9924,-3.9953,-3.9987,-4.0277,-4.0638,-4.0929,-4.1148,-4.1277,-4.1223,-4.1223,-4.1204,-4.1386,-4.1495,-4.1132,-4.0933,-4.0516,-4.0482,-4.043,-4.0379,-4.0326,-4.0254,-4.0254,-4.0292,-4.0365,-4.0546,-4.0818,-2.2964,-2.2729,-2.2964,-2.3113,-2.3261,-2.3582,-2.39,-2.4227,-2.4479,-2.485,-2.5276,-2.5652,-2.6173,-2.6892,-2.765,-2.813,-2.8519,-2.8949,-2.9376,-2.9813,-3.0224,-3.0674,-3.1174,-3.1593,-3.2089,-3.2528,-3.2949,-3.3293,-3.3214,-3.3308,-3.3585,-3.4034,-3.4431,-3.4802,-3.5195,-3.5672,-3.5985,-3.6308,-3.6736,-3.7184,-3.7485,-3.7667,-3.7828,-3.7932,-3.7966,-3.807,-3.8138,-3.8171,-3.8188,-3.8238,-3.8238,-3.8254,-3.8305,-3.8322,-3.8322,-3.8323,-3.8693,-3.8608,-3.8198,-3.8142,-3.8394,-3.8702,-3.8881,-3.9079,-3.9423,-3.975,-4.004,-4.042,-4.0926,-4.1125,-4.1288,-4.1596,-4.1759,-4.1776,-4.1595,-4.1686,-4.1705,-4.1923,-4.2123,-4.2032,-4.1923,-4.1614,-4.125,-4.0908,-4.0727,-4.0655,-4.0655,-4.0652,-4.0631,-4.0571,-4.0655,-4.0776,-4.1196,-4.1652,-4.1908,-4.2165,-4.2476,-4.2495,-4.2513,-4.2513,-4.2495,-4.244,-4.2076,-4.2149,-4.2258,-4.2224,-4.2119,-4.152,-4.0903,-4.0905,-4.0997,-4.1143,-4.1325,-4.176,-4.1995,-2.3922,-2.3655,-2.3776,-2.3838,-2.3911,-2.4455,-2.4802,-2.5052,-2.5406,-2.5804,-2.6255,-2.6722,-2.7417,-2.8124,-2.8629,-2.9107,-2.9608,-2.9886,-3.0299,-3.0748,-3.1189,-3.1622,-3.2031,-3.2504,-3.2911,-3.3329,-3.3716,-3.4077,-3.4341,-3.4464,-3.4561,-3.4723,-3.5038,-3.5407,-3.5827,-3.6212,-3.653,-3.6895,-3.7225,-3.7541,-3.7757,-3.788,-3.8019,-3.8103,-3.8186,-3.8252,-3.8366,-3.8382,-3.8401,-3.8401,-3.8366,-3.8458,-3.8713,-3.8804,-3.8986,-3.9168,-3.9627,-3.9612,-3.9253,-3.911,-3.9201,-3.951,-3.9801,-4.0053,-4.0672,-4.0836,-4.1017,-4.127,-4.1632,-4.194,-4.2122,-4.2557,-4.263,-4.274,-4.2831,-4.3032,-4.3087,-4.2887,-4.2814,-4.2759,-4.274,-4.2922,-4.2504,-4.1939,-4.163,-4.1467,-4.1392,-4.1388,-4.1421,-4.1455,-4.1635,-4.1851,-4.2106,-4.2491,-4.2656,-4.2985,-4.3387,-4.3479,-4.3479,-4.3424,-4.3187,-4.3168,-4.3023,-4.3278,-4.3479,-4.3279,-4.279,-4.2079,-4.1479,-4.1775,-4.2068,-4.2141,-4.2378,-4.2758,-4.2865,-2.4933,-2.5359,-2.4743,-2.454,-2.4671,-2.5052,-2.5465,-2.5851,-2.6186,-2.6654,-2.7263,-2.7947,-2.8597,-2.9184,-2.956,-2.9979,-3.0419,-3.0925,-3.1291,-3.1694,-3.2089,-3.2489,-3.2895,-3.3319,-3.3723,-3.4152,-3.4521,-3.4873,-3.5211,-3.543,-3.543,-3.5407,-3.5638,-3.6006,-3.6343,-3.667,-3.7031,-3.7355,-3.7631,-3.7774,-3.7949,-3.8052,-3.8136,-3.8254,-3.8336,-3.8382,-3.8399,-3.8415,-3.843,-3.8449,-3.8577,-3.885,-3.9252,-3.9508,-3.9798,-4.0235,-4.0582,-4.0638,-4.0512,-4.0298,-4.0535,-4.0662,-4.0845,-4.1103,-4.1705,-4.1796,-4.205,-4.2431,-4.2558,-4.2648,-4.2775,-4.2957,-4.305,-4.3087,-4.3123,-4.3196,-4.3233,-4.3214,-4.3159,-4.3322,-4.3394,-4.3375,-4.3375,-4.2717,-4.2536,-4.2373,-4.2427,-4.2442,-4.2641,-4.2712,-4.2894,-4.3075,-4.313,-4.3296,-4.3314,-4.3479,-4.3479,-4.3479,-4.3479,-4.3479,-4.3406,-4.3479,-4.3479,-4.3479,-4.3479,-4.3479,-4.3443,-4.2843,-4.2554,-4.2904,-4.3051,-4.285,-4.2778,-4.2978,-4.2995,-2.5781,-2.628,-2.6104,-2.5884,-2.5652,-2.6139,-2.6449,-2.6679,-2.7162,-2.7815,-2.8487,-2.9075,-2.9563,-3.004,-3.0539,-3.0925,-3.1276,-3.1766,-3.2145,-3.2532,-3.2926,-3.3298,-3.3672,-3.4052,-3.444,-3.4761,-3.5161,-3.5498,-3.5734,-3.6092,-3.6262,-3.6284,-3.6284,-3.6409,-3.6713,-3.7087,-3.7485,-3.7703,-3.788,-3.7984,-3.8156,-3.8223,-3.8287,-3.8415,-3.843,-3.8512,-3.8562,-3.8596,-3.8596,-3.8724,-3.9072,-3.9511,-3.9951,-4.0299,-4.0718,-4.1189,-4.1519,-4.1772,-4.1699,-4.1344,-4.1025,-4.161,-4.1975,-4.2358,-4.2614,-4.2668,-4.2778,-4.2996,-4.3087,-4.305,-4.3087,-4.3105,-4.316,-4.3178,-4.3214,-4.3305,-4.3323,-4.3322,-4.3339,-4.3429,-4.3464,-4.3463,-4.3462,-4.3407,-4.3335,-4.3318,-4.3409,-4.348,-4.3515,-4.3513,-4.3549,-4.3549,-4.3549,-4.3532,-4.3513,-4.3496,-4.3496,-4.3479,-4.3479,-4.3479,-4.3479,-4.3479,-4.3479,-4.3479,-4.3479,-4.3479,-4.3497,-4.3463,-4.3428,-4.3339,-4.3286,-4.3232,-4.3214,-4.3196,-4.3123,-2.6577,-2.7074,-2.7229,-2.7027,-2.6701,-2.7095,-2.7377,-2.753,-2.8059,-2.8803,-2.9623,-3.0054,-3.0464,-3.0911,-3.1393,-3.1766,-3.2074,-3.2504,-3.2884,-3.3298,-3.3678,-3.4034,-3.4431,-3.4778,-3.5131,-3.5368,-3.5749,-3.611,-3.6174,-3.6553,-3.6753,-3.6853,-3.6933,-3.6974,-3.7127,-3.7485,-3.7828,-3.7949,-3.8069,-3.8138,-3.829,-3.8354,-3.8385,-3.8494,-3.8525,-3.8593,-3.8786,-3.8933,-3.9132,-3.9371,-3.9756,-4.0338,-4.0758,-4.1142,-4.1597,-4.2032,-4.2431,-4.2832,-4.2652,-4.2353,-4.1912,-4.2497,-4.2846,-4.314,-4.3269,-4.3251,-4.3196,-4.316,-4.3196,-4.3214,-4.3214,-4.3251,-4.3269,-4.3305,-4.3358,-4.3429,-4.3446,-4.3428,-4.3444,-4.348,-4.3479,-4.3515,-4.3566,-4.3583,-4.3566,-4.3566,-4.3583,-4.3618,-4.3635,-4.3634,-4.3617,-4.3652,-4.3635,-4.3583,-4.3549,-4.3549,-4.3531,-4.3479,-4.3479,-4.3479,-4.3479,-4.3479,-4.3479,-4.3479,-4.3479,-4.3479,-4.3497,-4.348,-4.3497,-4.3479,-4.3428,-4.3375,-4.334,-4.3287,-4.3233,-2.7351,-2.7927,-2.7973,-2.7796,-2.7604,-2.7829,-2.8157,-2.8481,-2.8944,-2.9574,-3.0358,-3.094,-3.1364,-3.1722,-3.216,-3.252,-3.2803,-3.3261,-3.3642,-3.3933,-3.4341,-3.473,-3.5091,-3.5453,-3.5783,-3.6023,-3.6343,-3.6571,-3.6612,-3.6915,-3.7145,-3.7298,-3.7392,-3.7485,-3.7595,-3.7845,-3.8002,-3.8018,-3.8188,-3.8274,-3.8338,-3.8433,-3.8478,-3.8544,-3.8774,-3.8912,-3.9038,-3.9588,-3.9827,-4.0024,-4.0669,-4.1342,-4.1924,-4.2198,-4.2726,-4.3435,-4.3564,-4.3691,-4.3693,-4.3557,-4.3396,-4.3273,-4.3388,-4.3409,-4.3411,-4.3376,-4.3358,-4.3286,-4.3251,-4.3251,-4.3269,-4.3323,-4.3358,-4.3411,-4.3464,-4.348,-4.348,-4.3497,-4.3479,-4.3513,-4.3513,-4.3549,-4.3617,-4.3686,-4.3684,-4.3684,-4.3736,-4.3753,-4.3736,-4.3719,-4.3703,-4.3703,-4.3703,-4.3686,-4.3634,-4.3617,-4.3583,-4.3513,-4.3479,-4.3479,-4.3479,-4.3479,-4.3479,-4.3497,-4.3479,-4.3479,-4.3497,-4.3516,-4.3809,-4.4085,-4.3608,-4.3481,-4.3411,-4.3504,-4.3651,-2.7739,-2.8734,-2.8734,-2.8944,-2.9139,-2.8849,-2.8912,-2.9296,-2.9917,-3.0584,-3.1204,-3.1724,-3.2104,-3.2477,-3.29,-3.3235,-3.3471,-3.3917,-3.43,-3.4594,-3.4984,-3.5356,-3.5677,-3.6006,-3.6301,-3.6471,-3.6736,-3.6992,-3.7068,-3.7299,-3.7449,-3.7595,-3.7757,-3.7845,-3.788,-3.7984,-3.8035,-3.8171,-3.8272,-3.8356,-3.8415,-3.8478,-3.8578,-3.8679,-3.9169,-3.9423,-3.9533,-4.0267,-4.0685,-4.0845,-4.1542,-4.2161,-4.2666,-4.2885,-4.3467,-4.3878,-4.3945,-4.3992,-4.4023,-4.3921,-4.3763,-4.3666,-4.36,-4.3549,-4.348,-4.3481,-4.3428,-4.341,-4.3375,-4.3375,-4.3428,-4.3428,-4.3463,-4.3463,-4.3497,-4.3497,-4.3479,-4.3479,-4.3496,-4.3548,-4.3583,-4.3634,-4.3719,-4.3783,-4.38,-4.3783,-4.3835,-4.3802,-4.3786,-4.3769,-4.3753,-4.3753,-4.3771,-4.3771,-4.3736,-4.3701,-4.3651,-4.36,-4.3531,-4.3479,-4.3479,-4.3551,-4.3608,-4.3663,-4.3571,-4.3497,-4.3809,-4.4158,-4.4635,-4.4745,-4.4305,-4.4103,-4.4233,-4.4399,-4.4564,-2.7919,-2.9004,-2.9128,-2.9655,-3.0253,-2.9761,-2.9792,-3.0313,-3.0925,-3.1508,-3.2005,-3.2398,-3.278,-3.3166,-3.3601,-3.3924,-3.4101,-3.4546,-3.4937,-3.5211,-3.5498,-3.5832,-3.6195,-3.6506,-3.671,-3.6893,-3.7108,-3.7318,-3.7411,-3.7595,-3.7721,-3.7827,-3.8019,-3.807,-3.8104,-3.8138,-3.8188,-3.8287,-3.837,-3.8417,-3.8496,-3.8596,-3.8774,-3.9169,-3.9588,-3.9992,-4.0432,-4.0997,-4.1581,-4.1848,-4.2302,-4.2885,-4.3208,-4.3495,-4.3931,-4.4023,-4.4116,-4.4162,-4.4192,-4.4192,-4.3989,-4.3798,-4.3718,-4.3634,-4.3566,-4.3549,-4.3515,-4.3515,-4.3496,-4.3479,-4.3479,-4.3479,-4.3496,-4.3496,-4.3496,-4.3496,-4.3531,-4.3531,-4.3582,-4.3634,-4.3684,-4.3753,-4.38,-4.3865,-4.391,-4.3913,-4.3915,-4.392,-4.3925,-4.3869,-4.3851,-4.3851,-4.3851,-4.3851,-4.3835,-4.3802,-4.3734,-4.3684,-4.3727,-4.3769,-4.3716,-4.3807,-4.3827,-4.3993,-4.4305,-4.4544,-4.458,-4.4856,-4.5314,-4.5388,-4.5076,-4.4984,-4.5094,-4.5223,-4.537,-2.7893,-2.8919,-2.9215,-3.0017,-3.0852,-3.0628,-3.0866,-3.1552,-3.1881,-3.2231,-3.2683,-3.3118,-3.3461,-3.3771,-3.4275,-3.457,-3.4739,-3.5135,-3.5487,-3.5783,-3.6028,-3.6326,-3.6594,-3.6891,-3.7087,-3.7297,-3.7484,-3.7595,-3.7703,-3.7863,-3.7968,-3.8036,-3.8206,-3.8254,-3.8289,-3.8287,-3.8336,-3.8401,-3.843,-3.8588,-3.8797,-3.8844,-3.9297,-3.9772,-4.0249,-4.0671,-4.1201,-4.1912,-4.2329,-4.2709,-4.3219,-4.3631,-4.3878,-4.3958,-4.407,-4.418,-4.427,-4.4314,-4.4325,-4.4329,-4.4207,-4.4005,-4.3881,-4.3751,-4.3651,-4.36,-4.3548,-4.3513,-4.3496,-4.3496,-4.3479,-4.3496,-4.3532,-4.3532,-4.3549,-4.3566,-4.3617,-4.3651,-4.3684,-4.3753,-4.3786,-4.3851,-4.3881,-4.3942,-4.4196,-4.4347,-4.4424,-4.4591,-4.4482,-4.4,-4.3982,-4.3961,-4.3961,-4.3961,-4.3966,-4.405,-4.4167,-4.4229,-4.4292,-4.4352,-4.4226,-4.432,-4.4579,-4.4928,-4.5424,-4.5645,-4.5626,-4.5736,-4.5975,-4.5957,-4.6104,-4.5938,-4.6067,-4.5975,-4.603,-2.8126,-2.9523,-2.9884,-3.0683,-3.165,-3.1977,-3.2185,-3.2312,-3.2586,-3.298,-3.3419,-3.3832,-3.4084,-3.4325,-3.4828,-3.5071,-3.5327,-3.5622,-3.5975,-3.6255,-3.6468,-3.6733,-3.6992,-3.7223,-3.7447,-3.7558,-3.7703,-3.7828,-3.7933,-3.8089,-3.8174,-3.8239,-3.832,-3.8385,-3.8415,-3.8449,-3.8501,-3.8569,-3.8619,-3.898,-3.9357,-3.9536,-4.0065,-4.0579,-4.1203,-4.1589,-4.2046,-4.2737,-4.3153,-4.3459,-4.367,-4.3931,-4.4107,-4.4153,-4.4214,-4.4401,-4.4473,-4.451,-4.4496,-4.4454,-4.4354,-4.4222,-4.4104,-4.3947,-4.3802,-4.3684,-4.3615,-4.36,-4.3584,-4.3584,-4.3713,-4.3768,-4.3896,-4.4005,-4.404,-4.411,-4.4162,-4.4195,-4.4229,-4.4295,-4.4344,-4.4392,-4.4366,-4.4308,-4.4562,-4.4785,-4.5005,-4.5207,-4.5172,-4.4727,-4.4506,-4.4488,-4.4432,-4.4546,-4.4459,-4.4522,-4.4675,-4.4792,-4.4929,-4.5102,-4.5289,-4.5402,-4.5551,-4.5828,-4.6214,-4.6507,-4.6654,-4.6746,-4.6819,-4.7388,-4.7572,-4.726,-4.6984,-4.6856,-4.6893,-2.7992,-2.93,-3.0013,-3.1141,-3.2528,-3.3007,-3.3219,-3.3335,-3.3361,-3.361,-3.4009,-3.4407,-3.465,-3.4899,-3.5344,-3.5622,-3.5683,-3.6049,-3.6385,-3.665,-3.6851,-3.705,-3.7299,-3.7503,-3.7631,-3.7775,-3.7881,-3.7985,-3.8105,-3.8206,-3.8289,-3.8336,-3.838,-3.8462,-3.8585,-3.8873,-3.9106,-3.9088,-3.9213,-3.9612,-4.0031,-4.0396,-4.0891,-4.148,-4.2158,-4.2396,-4.278,-4.3435,-4.3664,-4.382,-4.3918,-4.4076,-4.4214,-4.4274,-4.4377,-4.4528,-4.4592,-4.4605,-4.4578,-4.4551,-4.4473,-4.4391,-4.4289,-4.4135,-4.3979,-4.3849,-4.3751,-4.3703,-4.3706,-4.3727,-4.3947,-4.4166,-4.4404,-4.4643,-4.4731,-4.4818,-4.4835,-4.4851,-4.492,-4.5004,-4.5071,-4.5119,-4.5095,-4.4981,-4.5124,-4.5599,-4.5876,-4.5988,-4.5975,-4.5706,-4.5507,-4.5454,-4.5324,-4.5268,-4.5162,-4.5182,-4.5463,-4.5671,-4.5697,-4.5925,-4.6243,-4.6487,-4.6599,-4.6765,-4.6948,-4.7205,-4.7406,-4.7535,-4.77,-4.8159,-4.8324,-4.7957,-4.7664,-4.7645,-4.7774,-2.7794,-2.8752,-2.9887,-3.168,-3.3433,-3.3694,-3.4025,-3.4497,-3.4184,-3.4226,-3.4594,-3.4904,-3.5195,-3.5418,-3.5822,-3.6067,-3.622,-3.6471,-3.6774,-3.7046,-3.7145,-3.7318,-3.7522,-3.7649,-3.7774,-3.7932,-3.8035,-3.8122,-3.8207,-3.8307,-3.8368,-3.8415,-3.8661,-3.8781,-3.8941,-3.9632,-4.0015,-4.0306,-4.0325,-4.0579,-4.0985,-4.1295,-4.157,-4.2231,-4.2543,-4.2727,-4.331,-4.3669,-4.3804,-4.3886,-4.4013,-4.4187,-4.4289,-4.4406,-4.4528,-4.4592,-4.4659,-4.4659,-4.4632,-4.4592,-4.4528,-4.4449,-4.44,-4.4464,-4.442,-4.4003,-4.3835,-4.4118,-4.4195,-4.4531,-4.4806,-4.5024,-4.5244,-4.5428,-4.5589,-4.5642,-4.5675,-4.5692,-4.5725,-4.5809,-4.5841,-4.589,-4.5953,-4.5876,-4.6059,-4.6567,-4.6807,-4.6847,-4.6983,-4.6829,-4.6483,-4.6394,-4.603,-4.5918,-4.6067,-4.6143,-4.6438,-4.6591,-4.6633,-4.6823,-4.718,-4.7406,-4.7611,-4.7629,-4.7665,-4.7902,-4.8122,-4.8104,-4.8049,-4.8196,-4.8324,-4.8324,-4.8251,-4.8159,-4.8196,-2.8338,-2.9357,-3.1218,-3.2793,-3.3926,-3.4201,-3.4546,-3.497,-3.5031,-3.5055,-3.5182,-3.5538,-3.5783,-3.5888,-3.6259,-3.6492,-3.6652,-3.6856,-3.7166,-3.7336,-3.7448,-3.7558,-3.7793,-3.7845,-3.7932,-3.8018,-3.8138,-3.8238,-3.8336,-3.8399,-3.8483,-3.8604,-3.9014,-3.9428,-3.9612,-4.0414,-4.1001,-4.1368,-4.1607,-4.1644,-4.1937,-4.2121,-4.2359,-4.291,-4.3222,-4.3221,-4.3566,-4.3686,-4.3753,-4.3837,-4.4061,-4.4229,-4.434,-4.4496,-4.4592,-4.464,-4.4667,-4.4685,-4.4659,-4.4638,-4.4594,-4.4721,-4.4822,-4.5069,-4.4944,-4.4289,-4.4175,-4.4568,-4.4942,-4.5315,-4.5685,-4.5885,-4.6123,-4.6305,-4.647,-4.6522,-4.6591,-4.6607,-4.6622,-4.6655,-4.6669,-4.6733,-4.6815,-4.694,-4.7105,-4.7345,-4.7588,-4.7831,-4.8295,-4.8266,-4.7471,-4.7183,-4.662,-4.651,-4.6791,-4.7051,-4.733,-4.759,-4.7723,-4.793,-4.8082,-4.8069,-4.8089,-4.8218,-4.8345,-4.8343,-4.8324,-4.8288,-4.8288,-4.8324,-4.8324,-4.8324,-4.8324,-4.8251,-4.8269,-2.8638,-2.9441,-3.1461,-3.3137,-3.426,-3.4643,-3.4994,-3.5327,-3.5588,-3.5761,-3.5844,-3.6084,-3.6233,-3.6322,-3.6655,-3.6853,-3.6989,-3.7204,-3.7392,-3.7576,-3.7721,-3.781,-3.7915,-3.7984,-3.8036,-3.8122,-3.8204,-3.832,-3.843,-3.8515,-3.8601,-3.9069,-3.9719,-4.0139,-4.0432,-4.1203,-4.1827,-4.2249,-4.258,-4.2763,-4.2782,-4.2855,-4.2965,-4.3424,-4.3496,-4.3515,-4.36,-4.3719,-4.3786,-4.3899,-4.4123,-4.43,-4.4411,-4.4537,-4.4605,-4.4627,-4.4653,-4.4667,-4.4678,-4.4694,-4.4777,-4.5087,-4.5259,-4.5488,-4.6053,-4.5559,-4.5449,-4.5753,-4.5725,-4.6062,-4.6635,-4.693,-4.7336,-4.7595,-4.7725,-4.7816,-4.7868,-4.7921,-4.7955,-4.7988,-4.8019,-4.8098,-4.8146,-4.8178,-4.8359,-4.8505,-4.8696,-4.8609,-4.9099,-4.9276,-4.8573,-4.8044,-4.7518,-4.7475,-4.7868,-4.8054,-4.8184,-4.8463,-4.8593,-4.8541,-4.8452,-4.8494,-4.8532,-4.8476,-4.8438,-4.8343,-4.8324,-4.8324,-4.8324,-4.8324,-4.8324,-4.8324,-4.8324,-4.8324,-4.8324,-2.8975,-2.9556,-3.1313,-3.3116,-3.4624,-3.5041,-3.535,-3.5667,-3.6006,-3.6284,-3.6527,-3.6588,-3.6632,-3.6756,-3.6993,-3.7108,-3.7261,-3.7485,-3.7631,-3.7721,-3.7828,-3.7933,-3.8003,-3.8053,-3.8139,-3.8223,-3.8303,-3.8417,-3.8544,-3.8761,-3.9213,-3.9827,-4.0249,-4.0579,-4.1295,-4.1974,-4.2561,-4.2727,-4.3037,-4.3386,-4.3478,-4.3496,-4.346,-4.3478,-4.3513,-4.3548,-4.3634,-4.3753,-4.3853,-4.3979,-4.415,-4.4314,-4.444,-4.4537,-4.4578,-4.46,-4.4646,-4.474,-4.4845,-4.4912,-4.5289,-4.566,-4.5756,-4.6195,-4.6821,-4.704,-4.6912,-4.685,-4.6838,-4.6954,-4.7531,-4.7939,-4.8348,-4.8573,-4.8703,-4.8796,-4.8849,-4.8902,-4.8936,-4.8988,-4.9034,-4.9113,-4.918,-4.9214,-4.9331,-4.9514,-4.9578,-4.9578,-4.9529,-4.9437,-4.9059,-4.8795,-4.853,-4.8636,-4.8795,-4.8704,-4.8649,-4.8704,-4.8743,-4.8801,-4.8786,-4.866,-4.8569,-4.8513,-4.8438,-4.8325,-4.8324,-4.8324,-4.8324,-4.8324,-4.8324,-4.8324,-4.8324,-4.8324,-4.8324,-2.9973,-3.1481,-3.2282,-3.3456,-3.483,-3.5327,-3.565,-3.5954,-3.6297,-3.6609,-3.6871,-3.7126,-3.7166,-3.7013,-3.7355,-3.7503,-3.7503,-3.7739,-3.7845,-3.795,-3.7985,-3.8054,-3.8123,-3.8157,-3.8239,-3.8356,-3.8471,-3.8564,-3.8957,-3.9392,-3.9719,-4.0065,-4.1442,-4.1846,-4.2103,-4.2708,-4.3149,-4.3258,-4.3275,-4.3532,-4.3566,-4.3548,-4.3531,-4.3548,-4.36,-4.3651,-4.3753,-4.3835,-4.3865,-4.3961,-4.415,-4.4314,-4.4444,-4.4542,-4.4621,-4.4785,-4.4812,-4.5151,-4.5312,-4.5505,-4.597,-4.6684,-4.6945,-4.7451,-4.8002,-4.8406,-4.8327,-4.8301,-4.8252,-4.8122,-4.8478,-4.8665,-4.8965,-4.8917,-4.8957,-4.8957,-4.901,-4.9044,-4.9077,-4.916,-4.9222,-4.9286,-4.9371,-4.9402,-4.9434,-4.9563,-4.9597,-4.9578,-4.9593,-4.9529,-4.9468,-4.9358,-4.9228,-4.9148,-4.9029,-4.887,-4.8816,-4.8872,-4.889,-4.8874,-4.8803,-4.8696,-4.8605,-4.855,-4.8439,-4.8325,-4.8306,-4.8324,-4.8324,-4.8324,-4.8324,-4.8324,-4.8324,-4.8324,-4.8324]},{"header":{"parameterUnit":"m.s-1","parameterCategory":1,"la1":31.0,"la2":29.5877,"lo1":-88.7671,"lo2":-86.6584,"dx":0.0162,"dy":0.0185,"nx":115,"ny":88,"refTime":"2023-01-27T06:00:00:Z","depth":0,"parameterNumber":3,"parameterNumberName":"V-component_of_WINDS"},"data":[0.0,0.0,0.0,0.0,0.0,0.0,0.0,0.0,0.0,0.0,0.0,0.0,0.0,0.0,0.0,0.0,0.0,0.0,0.0,0.0,0.0,0.0,0.0,0.0,0.0,0.0,0.0,0.0,0.0,0.0,0.0,0.0,0.0,0.0,0.0,0.0,0.0,0.0,0.0,0.0,0.0,0.0,0.0,0.0,0.0,0.0,0.0,0.0,0.0,0.0,0.0,0.0,0.0,0.0,0.0,0.0,0.0,0.0,0.0,0.0,0.0,0.0,0.0,0.0,0.0,0.0,0.0,0.0,0.0,0.0,0.0,0.0,0.0,0.0,0.0,0.0,0.0,0.0,0.0,0.0,0.0,0.0,0.0,0.0,0.0,0.0,0.0,0.0,0.0,0.0,0.0,0.0,0.0,0.0,0.0,0.0,0.0,0.0,0.0,0.0,0.0,0.0,0.0,0.0,0.0,0.0,0.0,0.0,0.0,0.0,0.0,0.0,0.0,0.0,0.0,0.0,0.0,0.0,0.0,0.0,0.0,0.0,0.0,0.0,0.0,0.0,0.0,0.0,0.0,0.0,0.0,0.0,0.0,0.0,0.0,0.0,0.0,0.0,0.0,0.0,0.0,0.0,0.0,0.0,0.0,0.0,0.0,0.0,0.0,0.0,0.0,0.0,0.0,0.0,0.0,0.0,0.0,0.0,0.0,0.0,0.0,0.0,0.0,0.0,0.0,0.0,0.0,0.0,0.0,0.0,0.0,0.0,0.0,0.0,0.0,0.0,0.0,0.0,0.0,0.0,0.0,0.0,0.0,0.0,0.0,0.0,0.0,0.0,0.0,0.0,0.0,0.0,0.0,0.0,0.0,0.0,0.0,0.0,0.0,0.0,0.0,0.0,0.0,0.0,0.0,0.0,0.0,0.0,0.0,0.0,0.0,0.0,0.0,0.0,0.0,0.0,0.0,0.0,0.0,0.0,0.0,0.0,0.0,0.0,0.0,0.0,0.0,0.0,0.0,0.0,0.0,0.0,0.0,0.0,0.0,0.0,0.0,0.0,0.0,0.0,0.0,0.0,0.0,0.0,0.0,0.0,0.0,0.0,0.0,0.0,0.0,0.0,0.0,0.0,0.0,0.0,0.0,0.0,0.0,0.0,0.0,0.0,0.0,0.0,0.0,0.0,0.0,0.0,0.0,0.0,0.0,0.0,0.0,0.0,0.0,0.0,0.0,0.0,0.0,0.0,0.0,0.0,0.0,0.0,0.0,0.0,0.0,0.0,0.0,0.0,0.0,0.0,0.0,0.0,0.0,0.0,0.0,0.0,0.0,0.0,0.0,0.0,0.0,0.0,0.0,0.0,0.0,0.0,0.0,0.0,0.0,0.0,0.0,0.0,0.0,0.0,0.0,0.0,0.0,0.0,0.0,0.0,0.0,0.0,0.0,0.0,0.0,0.0,0.0,0.0,0.0,0.0,0.0,0.0,0.0,0.0,0.0,0.0,0.0,0.0,0.0,0.0,0.0,0.0,0.0,0.0,0.0,0.0,0.0,0.0,0.0,0.0,0.0,0.0,0.0,0.0,0.0,0.0,0.0,0.0,0.0,0.0,0.0,0.0,0.0,0.0,0.0,0.0,0.0,0.0,0.0,0.0,0.0,0.0,0.0,0.0,0.0,0.0,0.0,0.0,0.0,0.0,0.0,0.0,0.0,0.0,0.0,0.0,0.0,0.0,0.0,0.0,0.0,0.0,0.0,0.0,0.0,0.0,0.0,0.0,0.0,0.0,0.0,0.0,0.0,0.0,0.0,0.0,0.0,0.0,0.0,0.0,0.0,0.0,0.0,0.0,0.0,0.0,0.0,0.0,0.0,0.0,0.0,0.0,0.0,0.0,0.0,0.0,0.0,0.0,0.0,0.0,0.0,0.0,0.0,0.0,0.0,0.0,0.0,0.0,0.0,0.0,0.0,0.0,0.0,0.0,0.0,0.0,0.0,0.0,0.0,0.0,0.0,0.0,0.0,0.0,0.0,0.0,0.0,0.0,0.0,0.0,0.0,0.0,0.0,0.0,0.0,0.0,0.0,0.0,0.0,0.0,0.0,0.0,0.0,0.0,0.0,0.0,0.0,0.0,0.0,0.0,0.0,0.0,0.0,0.0,0.0,0.0,0.0,0.0,0.0,0.0,0.0,0.0,0.0,0.0,0.0,0.0,0.0,0.0,0.0,0.0,0.0,0.0,0.0,0.0,0.0,0.0,0.0,0.0,0.0,0.0,0.0,0.0,0.0,0.0,0.0,0.0,0.0,0.0,0.0,0.0,0.0,0.0,0.0,0.0,0.0,0.0,0.0,0.0,0.0,0.0,0.0,0.0,0.0,0.0,0.0,0.0,0.0,0.0,0.0,0.0,0.0,0.0,0.0,0.0,0.0,0.0,0.0,0.0,0.0,0.0,0.0,0.0,0.0,0.0,0.0,0.0,0.0,0.0,0.0,0.0,0.0,0.0,0.0,0.0,0.0,0.0,0.0,0.0,0.0,0.0,0.0,0.0,0.0,0.0,0.0,0.0,0.0,0.0,0.0,0.0,0.0,0.0,0.0,0.0,0.0,0.0,0.0,0.0,0.0,0.0,0.0,0.0,0.0,0.0,0.0,0.0,0.0,0.0,0.0,0.0,0.0,0.0,0.0,0.0,0.0,0.0,0.0,0.0,0.0,0.0,0.0,0.0,0.0,0.0,0.0,0.0,0.0,0.0,0.0,0.0,0.0,0.0,0.0,0.0,0.0,0.0,0.0,0.0,0.0,0.0,0.0,0.0,0.0,0.0,0.0,0.0,0.0,0.0,0.0,0.0,0.0,0.0,0.0,0.0,0.0,0.0,0.0,0.0,0.0,0.0,0.0,0.0,0.0,0.0,0.0,0.0,0.0,0.0,0.0,0.0,0.0,0.0,0.0,0.0,0.0,0.0,0.0,0.0,0.0,0.0,0.0,0.0,0.0,0.0,0.0,0.0,0.0,0.0,0.0,0.0,0.0,0.0,0.0,0.0,0.0,0.0,0.0,0.0,0.0,0.0,0.0,0.0,0.0,0.0,0.0,0.0,0.0,0.0,0.0,0.0,0.0,0.0,0.0,0.0,0.0,0.0,0.0,0.0,0.0,0.0,0.0,0.0,0.0,0.0,0.0,0.0,0.0,0.0,0.0,0.0,0.0,0.0,0.0,0.0,0.0,0.0,0.0,0.0,0.0,0.0,0.0,0.0,0.0,0.0,0.0,0.0,0.0,0.0,0.0,0.0,0.0,0.0,0.0,0.0,0.0,0.0,0.0,0.0,0.0,0.0,0.0,0.0,0.0,0.0,0.0,0.0,0.0,0.0,0.0,0.0,0.0,0.0,0.0,0.0,0.0,0.0,0.0,0.0,0.0,0.0,0.0,0.0,0.0,0.0,0.0,0.0,0.0,0.0,0.0,0.0,0.0,0.0,0.0,0.0,0.0,0.0,0.0,0.0,0.0,0.0,0.0,0.0,0.0,0.0,0.0,0.0,0.0,0.0,0.0,0.0,0.0,0.0,0.0,0.0,0.0,0.0,0.0,0.0,0.0,0.0,0.0,0.0,0.0,0.0,0.0,0.0,0.0,0.0,0.0,0.0,0.0,0.0,0.0,0.0,0.0,0.0,0.0,0.0,0.0,0.0,0.0,0.0,0.0,0.0,0.0,0.0,0.0,0.0,0.0,0.0,0.0,0.0,0.0,0.0,0.0,0.0,0.0,0.0,0.0,0.0,0.0,0.0,0.0,0.0,0.0,0.0,0.0,0.0,0.0,0.0,0.0,0.0,0.0,0.0,0.0,0.0,0.0,0.0,0.0,0.0,0.0,0.0,0.0,0.0,0.0,0.0,0.0,0.0,0.0,0.0,0.0,0.0,0.0,0.0,0.0,0.0,0.0,0.0,0.0,0.0,0.0,0.0,0.0,0.0,0.0,0.0,0.0,0.0,0.0,0.0,0.0,0.0,0.0,0.0,0.0,0.0,0.0,0.0,0.0,0.0,0.0,0.0,0.0,0.0,0.0,0.0,0.0,0.0,0.0,0.0,0.0,0.0,0.0,0.0,0.0,0.0,0.0,0.0,0.0,0.0,0.0,0.0,0.0,0.0,0.0,0.0,0.0,0.0,0.0,0.0,0.0,0.0,0.0,0.0,0.0,0.0,0.0,0.0,0.0,0.0,0.0,0.0,0.0,0.0,0.0,0.0,0.0,0.0,0.0,0.0,0.0,0.0,0.0,0.0,2.9164,0.0,0.0,0.0,0.0,0.0,0.0,0.0,0.0,0.0,0.0,0.0,0.0,0.0,0.0,0.0,0.0,0.0,0.0,0.0,0.0,0.0,0.0,0.0,0.0,0.0,0.0,0.0,0.0,0.0,0.0,0.0,0.0,0.0,0.0,0.0,0.0,0.0,0.0,0.0,0.0,0.0,0.0,0.0,0.0,0.0,0.0,0.0,0.0,0.0,0.0,0.0,0.0,0.0,0.0,0.0,0.0,0.0,0.0,0.0,0.0,0.0,0.0,0.0,0.0,0.0,0.0,0.0,0.0,0.0,0.0,0.0,0.0,0.0,0.0,0.0,0.0,0.0,0.0,0.0,0.0,0.0,0.0,0.0,0.0,0.0,0.0,0.0,0.0,0.0,0.0,0.0,0.0,0.0,0.0,0.0,0.0,0.0,0.0,0.0,0.0,0.0,0.0,0.0,0.0,0.0,0.0,0.0,0.0,0.0,0.0,2.6246,2.6936,2.7748,2.8542,2.928,0.0,0.0,0.0,0.0,0.0,0.0,0.0,0.0,0.0,0.0,0.0,0.0,0.0,0.0,0.0,0.0,0.0,0.0,0.0,0.0,0.0,0.0,0.0,0.0,0.0,0.0,0.0,0.0,0.0,0.0,0.0,0.0,0.0,0.0,0.0,0.0,0.0,0.0,0.0,0.0,0.0,0.0,0.0,0.0,0.0,0.0,0.0,0.0,0.0,0.0,0.0,0.0,0.0,0.0,0.0,0.0,0.0,0.0,0.0,0.0,0.0,0.0,0.0,0.0,0.0,0.0,0.0,0.0,0.0,0.0,0.0,0.0,0.0,0.0,0.0,0.0,0.0,0.0,0.0,0.0,0.0,0.0,0.0,0.0,0.0,0.0,0.0,0.0,0.0,0.0,0.0,0.0,0.0,0.0,0.0,0.0,0.0,0.0,0.0,0.0,0.0,0.0,0.0,0.0,0.0,0.0,0.0,0.0,0.0,0.0,0.0,0.0,2.7872,2.8695,2.9542,0.0,0.0,0.0,0.0,0.0,0.0,0.0,0.0,0.0,0.0,0.0,0.0,0.0,0.0,0.0,0.0,0.0,0.0,0.0,0.0,0.0,0.0,0.0,0.0,0.0,0.0,0.0,0.0,0.0,0.0,0.0,0.0,0.0,0.0,0.0,0.0,0.0,0.0,0.0,0.0,0.0,0.0,0.0,0.0,0.0,0.0,0.0,0.0,0.0,0.0,0.0,0.0,0.0,0.0,0.0,0.0,0.0,0.0,0.0,0.0,0.0,0.0,0.0,0.0,0.0,0.0,0.0,0.0,0.0,0.0,0.0,0.0,0.0,0.0,0.0,0.0,0.0,0.0,0.0,0.0,0.0,0.0,0.0,0.0,0.0,0.0,0.0,0.0,0.0,0.0,0.0,0.0,0.0,0.0,0.0,0.0,0.0,0.0,0.0,0.0,0.0,0.0,0.0,0.0,0.0,0.0,0.0,0.0,0.0,0.0,2.6437,2.7181,2.7918,0.0,3.004,0.0,0.0,0.0,0.0,0.0,0.0,0.0,0.0,0.0,0.0,0.0,0.0,0.0,0.0,0.0,0.0,0.0,0.0,0.0,0.0,0.0,0.0,0.0,0.0,0.0,0.0,0.0,0.0,0.0,0.0,0.0,0.0,0.0,0.0,0.0,0.0,0.0,0.0,0.0,0.0,0.0,0.0,0.0,0.0,0.0,0.0,0.0,0.0,0.0,0.0,0.0,0.0,0.0,0.0,0.0,0.0,0.0,0.0,0.0,0.0,0.0,0.0,0.0,0.0,0.0,0.0,0.0,0.0,0.0,0.0,0.0,0.0,0.0,0.0,0.0,0.0,0.0,0.0,0.0,0.0,0.0,0.0,0.0,0.0,0.0,0.0,0.0,0.0,0.0,0.0,0.0,0.0,0.0,0.0,0.0,0.0,0.0,0.0,0.0,0.0,0.0,0.0,0.0,0.0,0.0,0.0,0.0,0.0,0.0,0.0,2.6539,2.7181,2.8296,2.9298,0.0,0.0,0.0,0.0,0.0,0.0,0.0,0.0,0.0,0.0,0.0,0.0,0.0,0.0,0.0,0.0,0.0,0.0,0.0,0.0,0.0,0.0,0.0,0.0,0.0,0.0,0.0,0.0,0.0,0.0,0.0,0.0,0.0,0.0,0.0,0.0,0.0,0.0,0.0,0.0,0.0,0.0,0.0,0.0,0.0,0.0,0.0,0.0,0.0,0.0,0.0,0.0,0.0,0.0,0.0,0.0,0.0,0.0,0.0,0.0,0.0,0.0,0.0,0.0,0.0,0.0,0.0,0.0,0.0,0.0,0.0,0.0,0.0,0.0,0.0,0.0,0.0,0.0,0.0,0.0,0.0,0.0,0.0,0.0,0.0,0.0,0.0,0.0,0.0,0.0,0.0,0.0,0.0,0.0,0.0,0.0,0.0,0.0,0.0,0.0,0.0,0.0,0.0,0.0,0.0,0.0,0.0,0.0,0.0,0.0,2.5994,2.6624,2.7457,2.8612,2.9519,3.0136,0.0,0.0,0.0,0.0,0.0,0.0,0.0,0.0,0.0,0.0,0.0,0.0,0.0,0.0,0.0,0.0,0.0,0.0,0.0,0.0,0.0,0.0,0.0,0.0,0.0,0.0,0.0,0.0,0.0,0.0,0.0,0.0,0.0,0.0,0.0,0.0,0.0,0.0,0.0,0.0,0.0,0.0,0.0,0.0,0.0,0.0,0.0,0.0,0.0,0.0,0.0,0.0,0.0,0.0,0.0,0.0,0.0,0.0,0.0,0.0,0.0,0.0,0.0,0.0,0.0,0.0,0.0,0.0,0.0,0.0,0.0,0.0,0.0,0.0,0.0,0.0,0.0,0.0,0.0,0.0,0.0,0.0,0.0,0.0,0.0,0.0,0.0,0.0,0.0,0.0,0.0,0.0,0.0,0.0,0.0,0.0,0.0,0.0,0.0,0.0,0.0,0.0,0.0,0.0,0.0,0.0,0.0,0.0,2.5416,2.5886,2.6722,2.8002,2.8744,2.939,0.0,0.0,0.0,0.0,0.0,0.0,0.0,0.0,0.0,0.0,0.0,0.0,0.0,0.0,0.0,0.0,0.0,0.0,0.0,0.0,0.0,0.0,0.0,0.0,0.0,0.0,0.0,0.0,0.0,0.0,0.0,0.0,0.0,0.0,0.0,0.0,0.0,0.0,0.0,0.0,0.0,0.0,0.0,0.0,0.0,0.0,0.0,0.0,0.0,0.0,0.0,0.0,0.0,0.0,0.0,0.0,0.0,0.0,0.0,0.0,0.0,0.0,0.0,0.0,0.0,0.0,0.0,0.0,0.0,0.0,0.0,0.0,0.0,0.0,0.0,0.0,0.0,0.0,0.0,0.0,0.0,0.0,0.0,0.0,0.0,0.0,0.0,0.0,0.0,0.0,0.0,0.0,0.0,0.0,0.0,0.0,0.0,0.0,0.0,0.0,0.0,0.0,0.0,0.0,0.0,0.0,0.0,0.0,0.0,2.5435,2.6177,2.7062,2.8002,2.8727,2.9392,0.0,0.0,0.0,0.0,0.0,0.0,0.0,0.0,0.0,0.0,0.0,0.0,0.0,0.0,0.0,0.0,0.0,0.0,0.0,0.0,0.0,0.0,0.0,0.0,0.0,0.0,0.0,0.0,0.0,0.0,0.0,0.0,0.0,0.0,0.0,0.0,0.0,0.0,0.0,0.0,0.0,0.0,0.0,0.0,0.0,0.0,0.0,0.0,0.0,0.0,0.0,0.0,0.0,0.0,0.0,0.0,0.0,0.0,0.0,0.0,0.0,0.0,0.0,0.0,0.0,0.0,0.0,0.0,0.0,0.0,0.0,0.0,0.0,0.0,0.0,0.0,0.0,0.0,0.0,0.0,0.0,0.0,0.0,0.0,0.0,0.0,0.0,0.0,0.0,0.0,0.0,0.0,0.0,0.0,0.0,0.0,0.0,0.0,0.0,0.0,0.0,0.0,0.0,0.0,0.0,0.0,0.0,0.0,0.0,2.5584,0.0,2.7111,2.7876,2.8597,2.9279,0.0,0.0,0.0,0.0,0.0,0.0,0.0,0.0,0.0,0.0,0.0,0.0,0.0,0.0,0.0,0.0,0.0,0.0,0.0,0.0,0.0,0.0,0.0,0.0,0.0,0.0,0.0,0.0,0.0,0.0,0.0,0.0,0.0,0.0,0.0,0.0,0.0,0.0,0.0,0.0,0.0,0.0,0.0,0.0,0.0,0.0,0.0,0.0,0.0,0.0,0.0,0.0,0.0,0.0,0.0,0.0,0.0,0.0,0.0,0.0,0.0,0.0,0.0,0.0,0.0,0.0,0.0,0.0,0.0,0.0,0.0,0.0,0.0,0.0,0.0,0.0,0.0,0.0,0.0,0.0,0.0,0.0,0.0,0.0,0.0,0.0,0.0,0.0,0.0,0.0,0.0,0.0,0.0,0.0,0.0,0.0,0.0,0.0,0.0,0.0,0.0,0.0,0.0,0.0,0.0,0.0,0.0,0.0,2.5378,2.5881,2.628,2.6871,2.7581,2.8388,2.9099,0.0,0.0,0.0,0.0,0.0,0.0,0.0,0.0,0.0,0.0,0.0,0.0,0.0,0.0,0.0,0.0,0.0,0.0,0.0,0.0,0.0,0.0,0.0,0.0,0.0,0.0,0.0,0.0,0.0,0.0,0.0,0.0,0.0,0.0,0.0,0.0,0.0,0.0,0.0,0.0,0.0,0.0,0.0,0.0,0.0,0.0,0.0,0.0,0.0,0.0,0.0,0.0,0.0,0.0,0.0,0.0,0.0,0.0,0.0,0.0,0.0,0.0,0.0,0.0,0.0,0.0,0.0,0.0,0.0,0.0,0.0,0.0,0.0,0.0,0.0,0.0,0.0,0.0,0.0,0.0,0.0,0.0,0.0,0.0,0.0,0.0,0.0,0.0,0.0,0.0,0.0,0.0,0.0,0.0,0.0,0.0,0.0,0.0,0.0,0.0,0.0,0.0,0.0,0.0,0.0,0.0,0.0,0.0,0.0,2.5897,2.6314,2.6854,2.7599,2.8335,2.905,0.0,0.0,0.0,0.0,0.0,0.0,0.0,0.0,0.0,0.0,0.0,0.0,0.0,0.0,0.0,0.0,0.0,0.0,0.0,0.0,0.0,0.0,0.0,0.0,0.0,0.0,0.0,0.0,0.0,0.0,0.0,0.0,0.0,0.0,0.0,0.0,0.0,0.0,0.0,0.0,0.0,0.0,0.0,0.0,0.0,0.0,0.0,0.0,0.0,0.0,0.0,0.0,0.0,0.0,0.0,0.0,0.0,0.0,0.0,0.0,0.0,0.0,0.0,0.0,0.0,0.0,0.0,0.0,0.0,0.0,0.0,0.0,0.0,0.0,0.0,0.0,0.0,0.0,0.0,0.0,0.0,0.0,0.0,0.0,0.0,0.0,0.0,0.0,0.0,0.0,0.0,0.0,0.0,0.0,0.0,0.0,0.0,0.0,0.0,0.0,0.0,0.0,0.0,0.0,0.0,0.0,0.0,0.0,0.0,2.5936,2.6279,2.679,2.7482,2.8205,2.8913,2.9586,0.0,0.0,0.0,0.0,0.0,0.0,0.0,0.0,0.0,0.0,0.0,0.0,0.0,0.0,0.0,0.0,0.0,0.0,0.0,0.0,0.0,0.0,0.0,0.0,0.0,0.0,0.0,0.0,0.0,0.0,0.0,0.0,0.0,0.0,0.0,0.0,0.0,0.0,0.0,0.0,0.0,0.0,0.0,0.0,0.0,0.0,0.0,0.0,0.0,0.0,0.0,0.0,0.0,0.0,0.0,0.0,0.0,0.0,0.0,0.0,0.0,0.0,0.0,0.0,0.0,0.0,0.0,0.0,0.0,0.0,0.0,0.0,0.0,0.0,0.0,0.0,0.0,0.0,0.0,0.0,0.0,0.0,0.0,0.0,0.0,0.0,0.0,0.0,0.0,0.0,0.0,0.0,0.0,0.0,0.0,0.0,0.0,0.0,0.0,0.0,0.0,0.0,0.0,0.0,0.0,0.0,0.0,0.0,2.6008,2.6278,2.6708,2.7286,2.8027,2.876,0.0,0.0,0.0,0.0,0.0,0.0,0.0,0.0,0.0,0.0,0.0,0.0,0.0,0.0,0.0,0.0,0.0,0.0,0.0,0.0,0.0,0.0,0.0,0.0,0.0,0.0,0.0,0.0,0.0,0.0,0.0,0.0,0.0,0.0,0.0,0.0,0.0,0.0,0.0,0.0,0.0,0.0,0.0,0.0,0.0,0.0,0.0,0.0,0.0,0.0,0.0,0.0,0.0,0.0,0.0,0.0,0.0,0.0,0.0,0.0,0.0,0.0,0.0,0.0,0.0,0.0,0.0,0.0,0.0,0.0,0.0,0.0,0.0,0.0,0.0,0.0,0.0,0.0,0.0,0.0,0.0,0.0,0.0,0.0,0.0,0.0,0.0,0.0,0.0,0.0,0.0,0.0,0.0,0.0,0.0,0.0,0.0,0.0,0.0,0.0,0.0,0.0,0.0,0.0,0.0,0.0,0.0,0.0,0.0,2.6168,2.6416,2.6775,2.7303,2.8062,2.8767,0.0,0.0,0.0,0.0,0.0,0.0,0.0,0.0,0.0,0.0,0.0,0.0,0.0,0.0,0.0,0.0,0.0,0.0,0.0,0.0,0.0,0.0,0.0,0.0,0.0,0.0,0.0,0.0,0.0,0.0,0.0,0.0,0.0,0.0,0.0,0.0,0.0,0.0,0.0,0.0,0.0,0.0,0.0,0.0,0.0,0.0,0.0,0.0,0.0,0.0,0.0,0.0,0.0,0.0,0.0,0.0,0.0,0.0,0.0,0.0,0.0,0.0,0.0,0.0,0.0,0.0,0.0,0.0,0.0,0.0,0.0,0.0,0.0,0.0,0.0,0.0,0.0,0.0,0.0,0.0,0.0,0.0,0.0,0.0,0.0,0.0,0.0,0.0,0.0,0.0,0.0,0.0,0.0,0.0,0.0,0.0,0.0,0.0,0.0,0.0,0.0,0.0,0.0,0.0,0.0,0.0,0.0,0.0,2.6274,2.6328,2.6537,2.6874,2.7334,2.8044,2.8714,0.0,0.0,0.0,0.0,0.0,0.0,0.0,0.0,0.0,0.0,0.0,0.0,0.0,0.0,0.0,0.0,0.0,0.0,0.0,0.0,0.0,0.0,0.0,0.0,0.0,0.0,0.0,0.0,0.0,0.0,0.0,0.0,0.0,0.0,0.0,0.0,0.0,0.0,0.0,0.0,0.0,0.0,0.0,0.0,0.0,0.0,0.0,0.0,0.0,0.0,0.0,0.0,0.0,0.0,0.0,0.0,0.0,0.0,0.0,0.0,0.0,0.0,0.0,0.0,0.0,0.0,0.0,0.0,0.0,0.0,0.0,0.0,0.0,0.0,0.0,0.0,0.0,0.0,0.0,0.0,0.0,0.0,0.0,0.0,0.0,0.0,0.0,0.0,0.0,0.0,0.0,0.0,0.0,0.0,0.0,0.0,0.0,0.0,0.0,0.0,0.0,0.0,0.0,0.0,0.0,0.0,0.0,0.0,2.6399,2.652,2.6674,2.6955,2.7441,2.8013,2.8654,0.0,0.0,0.0,0.0,0.0,0.0,0.0,0.0,0.0,0.0,0.0,0.0,0.0,0.0,0.0,0.0,0.0,0.0,0.0,0.0,0.0,0.0,0.0,0.0,0.0,0.0,0.0,0.0,0.0,0.0,0.0,0.0,0.0,0.0,0.0,0.0,0.0,0.0,0.0,0.0,0.0,0.0,0.0,0.0,0.0,0.0,0.0,0.0,0.0,0.0,0.0,0.0,0.0,0.0,0.0,0.0,0.0,0.0,0.0,0.0,0.0,0.0,0.0,0.0,0.0,0.0,0.0,0.0,0.0,0.0,0.0,0.0,0.0,0.0,0.0,0.0,0.0,0.0,0.0,0.0,0.0,0.0,0.0,0.0,0.0,0.0,0.0,0.0,0.0,0.0,0.0,0.0,0.0,0.0,0.0,0.0,0.0,0.0,0.0,0.0,0.0,0.0,0.0,0.0,0.0,0.0,0.0,0.0,2.664,2.6657,2.6842,2.7151,2.7624,2.8161,2.8755,0.0,0.0,0.0,0.0,0.0,0.0,0.0,0.0,0.0,0.0,0.0,0.0,0.0,0.0,0.0,0.0,0.0,0.0,0.0,0.0,0.0,0.0,0.0,0.0,0.0,0.0,0.0,0.0,0.0,0.0,0.0,0.0,0.0,0.0,0.0,0.0,0.0,0.0,0.0,0.0,0.0,0.0,0.0,0.0,0.0,0.0,0.0,0.0,2.2077,0.0,0.0,0.0,0.0,0.0,0.0,0.0,0.0,0.0,0.0,0.0,0.0,0.0,0.0,0.0,0.0,0.0,0.0,0.0,0.0,0.0,0.0,0.0,0.0,0.0,0.0,0.0,0.0,0.0,0.0,0.0,0.0,0.0,0.0,0.0,0.0,0.0,0.0,0.0,0.0,0.0,0.0,0.0,0.0,0.0,0.0,0.0,0.0,0.0,0.0,0.0,0.0,0.0,0.0,0.0,0.0,0.0,0.0,0.0,2.6875,2.6859,2.7006,2.7307,2.7768,2.835,2.8894,0.0,0.0,0.0,0.0,0.0,0.0,0.0,0.0,0.0,0.0,0.0,0.0,0.0,0.0,0.0,0.0,0.0,0.0,0.0,0.0,0.0,0.0,0.0,0.0,0.0,0.0,0.0,0.0,0.0,0.0,0.0,0.0,0.0,0.0,0.0,0.0,0.0,0.0,0.0,0.0,0.0,0.0,0.0,0.0,0.0,0.0,0.0,0.0,0.0,0.0,0.0,0.0,0.0,0.0,0.0,0.0,0.0,0.0,0.0,0.0,0.0,0.0,0.0,0.0,0.0,0.0,0.0,0.0,0.0,0.0,0.0,0.0,0.0,0.0,0.0,0.0,0.0,0.0,0.0,0.0,0.0,0.0,0.0,0.0,0.0,0.0,0.0,0.0,0.0,0.0,0.0,0.0,0.0,0.0,0.0,0.0,0.0,0.0,0.0,0.0,0.0,0.0,0.0,0.0,0.0,0.0,0.0,2.7308,2.7152,2.7105,2.7214,2.7504,2.7968,2.8559,2.9066,2.9528,0.0,0.0,0.0,0.0,0.0,0.0,0.0,0.0,0.0,0.0,0.0,0.0,0.0,0.0,0.0,0.0,0.0,0.0,0.0,0.0,0.0,0.0,0.0,0.0,0.0,0.0,0.0,0.0,0.0,0.0,0.0,0.0,0.0,0.0,0.0,0.0,0.0,0.0,2.5473,2.5397,0.0,0.0,0.0,0.0,0.0,0.0,0.0,0.0,2.1841,0.0,0.0,0.0,0.0,0.0,0.0,0.0,0.0,0.0,0.0,0.0,0.0,0.0,0.0,0.0,0.0,0.0,0.0,0.0,0.0,0.0,0.0,0.0,0.0,0.0,0.0,0.0,0.0,0.0,0.0,0.0,0.0,0.0,0.0,0.0,0.0,0.0,0.0,0.0,0.0,0.0,0.0,0.0,0.0,0.0,0.0,0.0,0.0,0.0,0.0,0.0,0.0,0.0,0.0,0.0,0.0,2.7844,2.7644,2.7494,2.7511,2.7585,2.7829,2.8304,2.879,2.9273,2.9733,0.0,0.0,0.0,0.0,0.0,0.0,0.0,0.0,0.0,0.0,0.0,0.0,0.0,0.0,0.0,0.0,0.0,0.0,0.0,0.0,0.0,0.0,0.0,0.0,0.0,0.0,0.0,0.0,0.0,0.0,0.0,0.0,0.0,0.0,0.0,0.0,0.0,0.0,0.0,2.5754,2.5624,0.0,0.0,0.0,0.0,0.0,0.0,0.0,0.0,2.1313,0.0,0.0,0.0,0.0,0.0,0.0,0.0,0.0,0.0,0.0,0.0,0.0,0.0,0.0,0.0,0.0,0.0,0.0,0.0,0.0,0.0,0.0,0.0,0.0,0.0,0.0,0.0,0.0,0.0,0.0,0.0,0.0,0.0,0.0,0.0,0.0,0.0,0.0,0.0,0.0,0.0,0.0,0.0,0.0,0.0,0.0,0.0,0.0,0.0,0.0,0.0,0.0,0.0,0.0,0.0,2.9516,2.8888,2.8505,2.8388,2.817,2.8233,2.8552,2.903,2.9503,0.0,0.0,0.0,0.0,0.0,0.0,0.0,0.0,0.0,0.0,0.0,0.0,0.0,0.0,0.0,0.0,0.0,0.0,0.0,0.0,0.0,0.0,0.0,0.0,0.0,0.0,0.0,0.0,0.0,0.0,0.0,0.0,0.0,0.0,0.0,0.0,0.0,0.0,0.0,0.0,2.599,2.5899,2.577,0.0,0.0,0.0,0.0,0.0,0.0,2.2016,2.1313,0.0,0.0,0.0,0.0,0.0,0.0,0.0,0.0,0.0,0.0,0.0,0.0,0.0,0.0,0.0,0.0,0.0,0.0,0.0,0.0,0.0,0.0,0.0,0.0,0.0,0.0,0.0,0.0,0.0,0.0,0.0,0.0,0.0,0.0,0.0,0.0,0.0,0.0,0.0,0.0,0.0,0.0,0.0,0.0,0.0,0.0,0.0,0.0,0.0,0.0,0.0,0.0,0.0,0.0,0.0,3.1125,3.0301,2.9759,2.9508,2.8999,2.8844,2.9057,2.9387,2.9742,0.0,0.0,0.0,0.0,0.0,0.0,0.0,0.0,0.0,0.0,0.0,0.0,0.0,0.0,0.0,0.0,0.0,0.0,0.0,0.0,0.0,0.0,0.0,0.0,0.0,0.0,0.0,0.0,0.0,0.0,0.0,0.0,0.0,0.0,0.0,0.0,0.0,0.0,0.0,0.0,0.0,2.6151,2.5989,2.5661,0.0,0.0,0.0,0.0,2.283,2.2147,0.0,0.0,0.0,0.0,0.0,0.0,0.0,0.0,0.0,0.0,0.0,0.0,0.0,0.0,0.0,0.0,0.0,0.0,0.0,0.0,0.0,0.0,0.0,0.0,0.0,0.0,0.0,0.0,0.0,0.0,0.0,0.0,0.0,0.0,0.0,0.0,0.0,0.0,0.0,0.0,0.0,0.0,0.0,0.0,0.0,0.0,0.0,0.0,0.0,0.0,0.0,0.0,0.0,0.0,0.0,0.0,3.1624,3.1262,3.1049,3.0935,3.0257,3.002,3.0279,2.9963,2.9925,0.0,0.0,0.0,0.0,0.0,0.0,0.0,0.0,0.0,0.0,0.0,0.0,0.0,0.0,0.0,0.0,0.0,0.0,0.0,0.0,0.0,0.0,0.0,0.0,0.0,0.0,0.0,0.0,0.0,0.0,0.0,0.0,0.0,0.0,0.0,0.0,0.0,0.0,0.0,0.0,0.0,2.6259,2.6168,2.5864,2.5495,0.0,0.0,0.0,2.3001,2.2342,0.0,0.0,0.0,0.0,0.0,0.0,0.0,0.0,0.0,0.0,0.0,0.0,0.0,0.0,0.0,0.0,0.0,0.0,0.0,0.0,0.0,0.0,0.0,0.0,0.0,0.0,0.0,0.0,0.0,0.0,0.0,0.0,0.0,0.0,0.0,0.0,0.0,0.0,0.0,0.0,0.0,0.0,0.0,0.0,0.0,0.0,0.0,0.0,0.0,0.0,0.0,0.0,0.0,0.0,0.0,3.36,3.3342,3.2705,3.2321,3.2207,3.1529,3.1054,3.0781,3.0774,3.0662,0.0,0.0,0.0,0.0,0.0,0.0,0.0,0.0,0.0,0.0,0.0,0.0,0.0,0.0,0.0,0.0,0.0,0.0,0.0,0.0,0.0,0.0,0.0,0.0,0.0,0.0,0.0,0.0,0.0,0.0,0.0,0.0,0.0,0.0,0.0,0.0,0.0,0.0,0.0,0.0,0.0,0.0,2.6203,2.5989,0.0,0.0,0.0,2.3831,2.3127,0.0,0.0,0.0,0.0,0.0,0.0,0.0,0.0,0.0,0.0,0.0,0.0,0.0,0.0,0.0,0.0,0.0,0.0,0.0,0.0,0.0,0.0,0.0,0.0,0.0,0.0,0.0,0.0,0.0,0.0,0.0,0.0,0.0,0.0,0.0,0.0,0.0,0.0,0.0,0.0,0.0,0.0,0.0,0.0,0.0,0.0,0.0,0.0,0.0,0.0,0.0,0.0,0.0,0.0,0.0,0.0,0.0,3.4716,3.399,3.3583,3.3448,3.2801,3.2213,3.1748,3.1626,0.0,0.0,0.0,0.0,0.0,0.0,0.0,0.0,0.0,0.0,0.0,0.0,0.0,0.0,0.0,0.0,0.0,0.0,0.0,0.0,0.0,0.0,0.0,0.0,0.0,0.0,0.0,2.463,0.0,0.0,0.0,0.0,0.0,0.0,0.0,0.0,0.0,0.0,0.0,0.0,0.0,0.0,2.6381,2.6238,2.6007,2.5698,0.0,0.0,2.3852,2.3194,2.2495,2.1626,0.0,0.0,0.0,0.0,0.0,0.0,0.0,0.0,0.0,0.0,0.0,0.0,0.0,0.0,0.0,0.0,0.0,0.0,0.0,0.0,0.0,0.0,0.0,0.0,0.0,0.0,0.0,0.0,0.0,0.0,0.0,0.0,0.0,0.0,0.0,0.0,0.0,0.0,0.0,0.0,0.0,0.0,0.0,0.0,0.0,0.0,0.0,0.0,0.0,0.0,0.0,0.0,0.0,0.0,0.0,3.5062,3.4886,3.4766,3.4747,3.4052,3.3696,3.3681,3.2401,3.1727,0.0,0.0,0.0,0.0,0.0,0.0,0.0,0.0,0.0,0.0,0.0,0.0,0.0,0.0,0.0,0.0,0.0,0.0,0.0,0.0,0.0,0.0,0.0,0.0,0.0,0.0,0.0,0.0,0.0,0.0,0.0,0.0,0.0,0.0,0.0,0.0,0.0,0.0,0.0,0.0,0.0,2.6278,2.6221,2.5917,2.5607,0.0,0.0,2.3873,2.3216,2.2495,2.165,2.0573,0.0,0.0,0.0,0.0,0.0,0.0,0.0,0.0,0.0,0.0,0.0,0.0,0.0,0.0,0.0,0.0,0.0,0.0,0.0,0.0,0.0,0.0,0.0,0.0,0.0,0.0,0.0,0.0,0.0,0.0,0.0,0.0,0.0,0.0,0.0,0.0,0.0,0.0,0.0,0.0,0.0,0.0,0.0,0.0,0.0,0.0,0.0,0.0,0.0,0.0,0.0,0.0,0.0,3.5508,3.5343,3.5258,3.5205,3.5146,3.4898,3.4583,3.4139,3.3659,3.2966,0.0,0.0,0.0,0.0,0.0,0.0,0.0,0.0,0.0,0.0,0.0,0.0,0.0,0.0,0.0,0.0,0.0,0.0,0.0,0.0,0.0,0.0,0.0,0.0,0.0,0.0,0.0,0.0,2.4722,2.4782,2.4686,0.0,0.0,0.0,0.0,0.0,0.0,0.0,0.0,0.0,0.0,2.6242,2.6081,2.5809,0.0,0.0,2.4379,2.3702,2.3068,2.2356,2.1554,2.0573,1.9837,0.0,0.0,0.0,0.0,0.0,0.0,0.0,0.0,0.0,0.0,0.0,0.0,0.0,0.0,0.0,0.0,0.0,0.0,0.0,0.0,0.0,0.0,0.0,0.0,0.0,0.0,0.0,0.0,0.0,0.0,0.0,0.0,0.0,0.0,0.0,0.0,0.0,0.0,0.0,0.0,0.0,0.0,0.0,0.0,0.0,0.0,0.0,0.0,0.0,0.0,0.0,0.0,3.5679,3.5556,3.5507,3.5457,3.5419,3.5481,3.5264,3.4757,3.4607,3.3975,0.0,0.0,0.0,0.0,0.0,0.0,0.0,0.0,0.0,0.0,0.0,0.0,0.0,0.0,0.0,0.0,0.0,0.0,0.0,0.0,0.0,0.0,0.0,0.0,0.0,0.0,0.0,0.0,2.4722,2.4686,2.4528,0.0,0.0,0.0,0.0,0.0,0.0,0.0,0.0,0.0,0.0,2.6154,2.6008,2.5661,2.5304,2.4863,2.4173,2.3443,2.283,2.2147,2.1348,2.0434,0.0,0.0,0.0,0.0,0.0,0.0,0.0,0.0,0.0,0.0,0.0,0.0,0.0,0.0,0.0,0.0,0.0,0.0,0.0,0.0,0.0,0.0,0.0,0.0,0.0,0.0,0.0,0.0,0.0,0.0,0.0,0.0,0.0,0.0,0.0,0.0,0.0,0.0,0.0,0.0,0.0,0.0,0.0,0.0,0.0,0.0,0.0,0.0,0.0,0.0,0.0,0.0,0.0,3.5768,3.5721,3.5694,3.5699,3.5704,3.5769,3.5776,3.5723,3.4995,3.4578,3.4508,0.0,0.0,0.0,0.0,0.0,0.0,0.0,0.0,0.0,0.0,0.0,0.0,0.0,0.0,0.0,0.0,0.0,0.0,0.0,0.0,0.0,0.0,0.0,0.0,0.0,0.0,2.4802,2.467,2.4544,0.0,0.0,0.0,0.0,0.0,0.0,0.0,0.0,0.0,0.0,2.6008,2.599,2.5899,2.5454,2.4993,2.4643,2.3927,2.3165,2.2429,2.1803,2.108,0.0,0.0,0.0,0.0,0.0,0.0,0.0,0.0,0.0,0.0,0.0,0.0,0.0,0.0,0.0,0.0,0.0,0.0,0.0,0.0,0.0,0.0,0.0,0.0,0.0,0.0,0.0,0.0,3.5422,0.0,0.0,0.0,0.0,0.0,0.0,0.0,0.0,0.0,0.0,0.0,3.5708,3.5773,0.0,0.0,0.0,0.0,0.0,0.0,0.0,0.0,0.0,0.0,0.0,0.0,3.5852,3.5833,3.5826,3.5826,3.582,3.5862,3.5897,3.5919,3.5672,3.5192,3.4489,0.0,0.0,0.0,0.0,0.0,0.0,0.0,0.0,0.0,0.0,0.0,0.0,0.0,0.0,0.0,0.0,0.0,0.0,0.0,0.0,0.0,0.0,0.0,0.0,0.0,2.4902,0.0,0.0,0.0,0.0,0.0,0.0,0.0,0.0,0.0,0.0,0.0,2.5915,2.5936,2.5936,2.5844,2.5621,2.5188,2.4719,0.0,0.0,0.0,0.0,0.0,0.0,0.0,0.0,0.0,0.0,0.0,0.0,0.0,0.0,1.8649,1.8227,1.8661,1.9233,1.9564,0.0,0.0,0.0,0.0,0.0,0.0,0.0,0.0,0.0,0.0,0.0,0.0,0.0,0.0,0.0,0.0,3.6098,0.0,0.0,0.0,0.0,0.0,0.0,0.0,0.0,3.5904,3.5908,3.5708,3.5791,3.5857,0.0,3.588,3.5924,0.0,0.0,0.0,0.0,0.0,0.0,0.0,0.0,3.5921,3.5924,3.5938,3.5926,3.5923,3.5917,3.5956,3.5992,3.5953,3.5451,3.4441,3.3093,3.1943,0.0,0.0,0.0,0.0,0.0,0.0,0.0,0.0,0.0,0.0,0.0,0.0,0.0,0.0,0.0,0.0,0.0,0.0,0.0,0.0,0.0,0.0,0.0,2.5064,0.0,0.0,0.0,0.0,0.0,0.0,0.0,0.0,0.0,2.5635,2.5787,2.5915,2.5915,2.6054,2.5997,2.5614,0.0,0.0,0.0,0.0,0.0,0.0,0.0,2.116,2.0534,2.0135,1.9794,1.9531,1.9535,1.9518,1.9559,0.0,0.0,1.9229,1.9726,2.0293,2.0576,2.0836,2.13,2.2157,2.2438,2.2787,0.0,0.0,0.0,0.0,0.0,0.0,0.0,0.0,3.7964,3.7444,0.0,3.7482,0.0,0.0,0.0,0.0,0.0,0.0,0.0,0.0,3.6528,3.6543,3.5849,3.5939,3.5976,3.6002,3.6008,3.6033,3.6044,3.6054,0.0,0.0,0.0,0.0,0.0,0.0,3.6013,3.6012,3.6006,3.601,3.6005,3.6012,3.5996,3.5993,3.5873,3.5364,3.4487,3.4128,3.3083,3.1156,3.0605,0.0,0.0,0.0,0.0,0.0,0.0,0.0,0.0,0.0,0.0,0.0,0.0,0.0,0.0,0.0,0.0,0.0,0.0,0.0,0.0,2.5477,0.0,0.0,0.0,0.0,0.0,0.0,0.0,0.0,0.0,0.0,2.5859,2.5905,2.5963,2.5961,0.0,0.0,0.0,0.0,2.5986,2.5186,2.457,2.3856,2.3016,2.2416,2.1856,2.1263,0.0,0.0,2.0024,1.9853,1.9769,1.9746,2.0407,2.0704,2.0106,2.0629,2.123,2.1422,2.2007,2.2665,2.3035,2.3207,2.3514,3.7586,0.0,0.0,0.0,0.0,3.768,3.7793,3.8003,3.7947,3.7782,3.7548,3.7785,0.0,0.0,0.0,0.0,0.0,0.0,3.7462,3.736,3.7642,3.7688,3.755,3.7633,3.7673,3.7669,3.7751,3.7444,3.6881,3.69,3.6623,3.6011,0.0,0.0,0.0,0.0,3.6008,3.6011,3.601,3.6013,3.6015,3.6013,3.598,3.5919,3.5749,3.548,3.5102,3.4247,3.3447,3.2669,3.1587,0.0,0.0,0.0,0.0,0.0,0.0,0.0,0.0,0.0,0.0,0.0,0.0,0.0,0.0,0.0,0.0,0.0,0.0,0.0,2.712,2.7089,2.6969,0.0,0.0,0.0,0.0,0.0,0.0,0.0,0.0,0.0,2.7142,2.7149,2.7145,0.0,0.0,2.672,2.6246,2.5917,2.5446,2.4654,0.0,0.0,0.0,2.2116,2.162,2.1272,2.0991,2.0819,2.0823,2.0807,2.0807,2.0865,2.1117,2.1226,2.1256,2.1561,2.1988,2.2274,2.2518,2.2848,2.333,2.3522,2.373,3.9296,3.9212,3.847,3.8331,3.8613,3.8546,3.8683,3.8988,3.8946,3.8758,3.8435,3.8769,3.8561,3.7901,3.7901,0.0,0.0,0.0,3.8303,3.8125,3.8466,3.8508,3.8306,3.8373,3.8397,3.8388,3.8464,3.8237,3.7713,3.7755,3.7342,3.6513,0.0,0.0,3.6015,3.6014,3.6014,3.6016,3.6016,3.6014,3.6022,3.5942,3.5875,3.5803,3.564,3.5443,3.5306,3.4562,3.3847,3.3253,3.2293,3.1223,0.0,0.0,0.0,0.0,0.0,0.0,0.0,0.0,0.0,0.0,0.0,2.5522,0.0,0.0,0.0,0.0,2.7371,2.7649,2.8053,2.7967,0.0,0.0,0.0,0.0,0.0,0.0,0.0,2.7769,2.7822,2.7961,2.8281,2.8249,2.7955,2.7391,2.7229,2.702,2.6443,0.0,2.5755,2.496,2.4374,2.3771,2.3041,2.242,2.1873,2.1465,2.1242,2.1143,2.1268,2.1229,2.1221,2.1305,2.1368,2.1431,2.1549,2.1812,2.2104,2.2445,2.2708,2.3,2.336,2.3569,2.3878,4.087,4.0653,3.8994,3.8755,3.9467,3.9403,3.9823,4.0477,4.0496,4.005,3.9384,4.0145,3.961,3.812,3.81,0.0,0.0,3.8942,3.8945,3.8337,3.9136,3.9146,3.85,3.8583,3.859,3.8614,3.8676,3.8661,3.8617,3.8601,3.819,3.7379,3.6532,3.6052,3.6015,3.6015,3.6015,3.6013,3.5991,3.598,3.5972,3.5859,3.5743,3.5678,3.5501,3.5318,3.5192,3.4907,3.4281,3.3231,3.2771,3.1955,3.0686,0.0,0.0,0.0,0.0,0.0,0.0,0.0,0.0,0.0,0.0,0.0,0.0,0.0,0.0,0.0,2.855,0.0,2.8594,2.8447,0.0,0.0,0.0,2.7713,2.7576,2.745,2.7662,2.8441,0.0,0.0,0.0,0.0,2.8403,2.7215,2.7316,2.7262,2.6613,2.6674,2.6549,2.5645,2.5077,2.4408,2.3559,2.2887,2.225,2.1705,2.1517,2.1333,2.1313,2.123,2.1169,2.1138,2.1273,2.1325,2.1356,2.1517,2.1761,2.2061,2.2604,2.3017,2.3078,2.3463,2.3819,4.084,4.0681,4.0223,4.013,4.0306,4.0242,4.0323,4.0496,4.0496,4.0373,4.0192,4.0404,4.0261,3.9869,3.9877,3.9877,3.9885,4.0096,4.0123,4.0028,4.0216,4.0269,4.0206,4.0276,4.0339,4.0373,4.0392,4.0088,3.9516,3.9474,3.9065,3.8207,3.7352,3.6601,3.6028,3.6009,3.6005,3.6012,3.5946,3.5914,3.5829,3.5717,3.5618,3.5559,3.5348,3.516,3.4969,3.4704,3.4327,3.3827,3.3355,3.257,3.1398,3.0847,0.0,0.0,0.0,0.0,0.0,0.0,0.0,0.0,0.0,2.6876,2.7689,0.0,2.8365,0.0,2.9879,3.0276,3.0155,3.0017,0.0,0.0,2.9378,2.9139,2.9006,2.8879,2.8853,2.8937,2.893,2.8902,2.8834,2.8558,2.8137,2.7543,2.7512,2.7345,2.6751,2.6357,2.5865,2.5132,2.4465,2.3813,2.3138,2.2512,2.1882,2.1391,2.1285,2.1158,2.0914,2.083,2.083,2.0818,2.085,2.0903,2.1019,2.119,2.138,2.1569,2.2037,2.2482,2.2671,2.3047,2.3378,4.0775,4.0707,4.0614,4.0583,4.0558,4.0523,4.0496,4.0496,4.0496,4.0496,4.0496,4.0496,4.0496,4.0496,4.0496,4.0496,4.0496,4.0496,4.0534,4.0588,4.0588,4.0655,4.0804,4.084,4.0888,4.095,4.0956,4.0727,4.0363,4.0325,3.9892,3.9029,3.8549,3.7695,3.653,3.6139,3.5942,3.596,3.5864,3.576,3.5718,3.5571,3.5457,3.5367,3.5174,3.4973,3.4754,3.4502,3.4197,3.3829,3.3437,3.2791,3.1921,3.1411,3.0637,0.0,0.0,0.0,0.0,0.0,0.0,0.0,0.0,0.0,0.0,0.0,2.927,0.0,0.0,0.0,3.081,3.0589,3.0359,3.0124,2.9858,2.9614,2.9418,2.9236,2.9075,2.8936,2.8795,2.8621,2.8326,2.7959,2.756,2.7137,2.6919,2.6657,2.6365,2.5879,2.5244,2.4607,2.3914,2.319,2.2365,2.1882,2.1443,2.1074,2.0978,2.0926,2.0733,2.0701,2.0701,2.0701,2.0701,2.0701,2.0818,2.0882,2.101,2.1126,2.1423,2.1894,2.2328,2.2684,2.2987,4.0688,4.068,4.0617,4.0565,4.0496,4.0496,4.0496,4.0496,4.0496,4.0496,4.0496,4.0496,4.0496,4.0496,4.0496,4.0496,4.0496,4.0496,4.0534,4.0581,4.0588,4.0662,4.0788,4.0794,4.084,4.0893,4.0898,4.0921,4.098,4.0984,4.0602,3.9882,3.974,3.8854,3.7284,3.6442,3.5969,3.5888,3.5736,3.5645,3.5579,3.5438,3.5304,3.5157,3.4973,3.4752,3.455,3.4281,3.3959,3.3559,3.3202,3.2765,3.2197,3.1785,3.1119,0.0,2.9646,0.0,0.0,0.0,0.0,0.0,0.0,0.0,0.0,2.9703,3.0092,3.0905,3.0975,3.0915,3.0814,3.0547,3.0253,2.9973,2.9748,2.9509,2.9243,2.899,2.8756,2.8637,2.8317,2.7999,2.7725,2.7306,2.6864,2.639,2.5892,2.5605,2.5536,2.5188,2.465,2.4073,2.3352,2.2476,2.1639,2.1273,2.1031,2.0733,2.0669,2.0637,2.0604,2.0604,2.0604,2.0604,2.0572,2.0637,2.0637,2.0669,2.0669,2.0733,2.0978,2.136,2.1906,2.2297,2.2592,4.0681,4.0629,4.0595,4.0565,4.0496,4.0496,4.0496,4.0496,4.0496,4.0496,4.0496,4.0496,4.0496,4.0496,4.0496,4.0496,4.0496,4.0496,4.0539,4.0583,4.06,4.0655,4.0725,4.0763,4.0798,4.0804,4.0823,4.0858,4.0927,4.0913,4.083,4.0654,3.9975,3.9117,0.0,0.0,0.0,0.0,3.5612,3.5495,3.5442,3.5251,3.5077,3.4964,3.4771,0.0,3.4281,3.3959,3.3611,3.3202,3.2862,0.0,0.0,0.0,0.0,0.0,0.0,0.0,0.0,0.0,0.0,0.0,2.9712,2.9807,3.027,3.043,3.0603,3.0895,3.0831,3.0654,3.0452,3.03,3.006,2.9627,2.9364,2.909,2.8826,2.8534,2.8268,2.8131,2.7845,2.7504,2.7097,2.6707,2.6229,2.5687,2.5105,2.4595,2.4266,2.425,2.4002,2.3365,2.2402,2.1683,2.1285,2.0978,2.0701,2.0508,2.0443,2.0378,2.0237,2.0205,2.0216,2.0216,2.0216,2.0281,2.041,2.0443,2.0475,2.0669,2.0733,2.0914,2.1296,2.1737,2.2111,4.0545,0.0,4.0503,4.0479,0.0,4.0444,4.0444,4.0463,4.0492,4.0496,4.0496,4.0496,4.0496,4.0496,4.0496,4.0496,4.0496,4.0496,4.0539,4.0588,4.0591,4.0614,4.0649,4.0681,4.0726,4.0738,4.0738,4.0775,4.0804,4.0804,4.0809,4.0807,4.0347,3.9687,3.8768,3.7378,3.6305,3.5564,3.5425,3.5307,3.5203,3.5008,3.4822,3.466,0.0,0.0,0.0,0.0,0.0,0.0,0.0,0.0,0.0,0.0,0.0,3.0642,3.0305,3.0044,2.9913,2.9792,2.9742,2.9836,2.987,3.0044,3.0422,3.0531,3.0593,3.0597,3.051,3.0342,3.0075,2.9875,2.9582,2.9159,2.8865,2.8543,2.8174,2.791,2.766,2.7367,2.7082,2.6759,2.6363,2.5947,2.5453,2.4936,2.4337,2.3783,2.3442,2.3454,2.3215,2.2384,2.1776,2.119,2.085,2.0571,2.0356,2.0205,2.0074,1.9966,1.9878,1.9846,1.9846,1.9846,1.9846,1.9878,1.9976,2.0009,2.0074,2.027,2.0356,2.0485,2.0754,2.1201,2.1643,4.0441,4.0372,4.0368,4.0342,4.0362,4.0381,4.0342,4.0351,0.0,0.0,0.0,4.0473,4.0473,4.0492,4.0492,4.0473,4.0473,4.0492,4.0508,4.0569,4.0585,4.0569,4.0579,4.0566,4.0626,4.0666,4.0673,4.0668,4.0662,4.0662,4.0655,4.0649,4.0635,4.0082,3.8939,3.722,3.5993,3.5289,3.5173,3.5077,3.4916,3.4743,3.4516,3.4347,3.4074,3.3788,3.3516,3.3157,3.2765,3.2352,3.2056,3.1712,3.1237,3.0905,3.0638,3.0405,3.0022,2.9766,2.9705,2.9554,2.9518,2.9608,2.9643,2.9815,3.0253,3.0321,3.0284,3.0204,3.007,2.9875,2.9655,2.9303,2.8951,2.8543,2.828,2.7938,2.7439,2.7225,2.6982,2.659,2.6297,2.5988,2.5578,2.5104,2.4622,2.4147,2.359,2.3065,2.2714,2.2592,2.2334,2.1545,2.1146,2.0839,2.0453,2.015,1.9987,1.9911,1.9714,1.9539,1.9495,1.9506,1.9506,1.9517,1.9517,1.955,1.955,1.9605,1.9681,1.9835,1.9922,2.0074,2.0347,2.076,2.1211,4.0377,4.0325,4.0243,4.0243,4.0224,4.0224,4.0224,4.0252,4.037,4.0405,4.0405,4.0413,4.0432,4.0413,4.0405,4.0413,4.0405,4.0405,4.0413,0.0,4.0425,4.0422,4.043,4.0489,4.0519,4.0519,4.0519,4.0546,4.0527,4.0527,4.0512,4.0446,4.0452,3.9529,3.7813,3.6673,3.5684,3.4759,3.4821,3.4802,3.4658,3.4465,3.4269,3.4061,3.3788,3.3498,3.3172,3.2732,3.2334,3.1967,3.1728,3.1353,3.0905,3.0675,3.0422,3.0081,2.9842,2.9614,2.9396,2.935,2.9282,2.9206,2.9106,2.9273,2.9832,2.9788,2.9705,2.9683,2.9416,2.9143,2.8873,2.8614,2.8231,2.7765,2.753,2.7291,2.6837,2.659,2.6324,2.6015,2.5619,2.5231,2.492,2.4379,2.3813,2.3335,2.2854,2.2273,2.1694,2.1537,2.1431,2.1019,2.0571,2.0269,2.0107,1.9857,1.9704,1.9823,1.9527,1.9264,1.9187,1.9154,1.9142,1.9175,1.9241,1.9318,1.9308,1.9506,1.9571,1.9637,1.9724,1.9853,2.0261,2.056,2.0896,4.0196,4.0119,4.0059,4.0039,4.0039,4.0089,4.008,4.009,4.0177,4.0225,4.0289,4.0289,4.0289,4.0289,4.0289,4.0289,4.0308,4.0289,4.0307,4.0334,4.0341,4.0349,4.0349,4.0375,4.0366,4.0349,4.0341,4.0341,4.0341,4.0321,4.0323,4.0232,4.0129,3.9104,3.7322,3.6727,3.5761,3.4318,3.4487,3.4469,3.4281,3.4074,3.3855,3.356,3.3339,3.3037,3.2669,3.2283,3.1894,3.1488,3.1215,3.0898,3.0493,3.0177,2.9919,2.9738,2.9373,2.9106,2.8967,2.8865,2.8763,2.8605,2.8558,2.855,2.8646,2.8943,2.9074,2.8919,2.8685,2.8424,2.807,2.7735,2.7373,2.6993,2.6707,2.6404,2.6041,2.5756,2.5495,2.5175,2.4836,2.4478,2.4203,2.3662,2.3173,2.2744,2.2161,2.1517,2.0894,2.0743,2.0656,2.0463,2.0269,2.0042,1.9857,1.9528,1.9374,1.9405,1.9119,1.8875,1.8798,1.8774,1.8774,1.8774,1.8852,1.8852,1.8895,1.8942,1.9168,1.9664,1.9718,1.9941,2.0493,2.0906,2.1358,3.9996,3.9954,3.9889,3.9856,3.9848,3.9911,3.9933,3.9933,3.9933,3.9988,4.009,4.0119,4.0139,4.012,4.0139,4.0139,4.0158,4.0158,4.0206,4.0252,4.0262,4.0252,4.0233,4.0243,4.0196,4.0158,4.0139,4.0139,4.0139,4.0119,4.006,3.996,3.9773,3.8823,3.7198,3.6839,3.5834,3.4276,3.4123,3.4012,3.3855,3.3666,3.3394,3.3065,3.2814,3.2521,3.2092,3.1748,3.1353,3.0925,3.0638,3.0321,2.9957,2.9633,2.9387,2.9205,2.8826,2.8581,2.851,2.8284,2.8128,2.8014,2.7925,2.776,2.7555,2.7849,2.8119,2.8021,2.7864,2.763,2.7236,2.6875,2.6534,2.6244,2.5907,2.5605,2.5245,2.5072,2.4851,2.4519,2.4272,2.406,2.3715,2.3257,2.2841,2.2412,2.1748,2.1113,2.072,2.0456,2.028,2.0063,1.9954,1.9748,1.9506,1.9164,1.8931,1.8865,1.8563,1.8327,1.8259,1.8226,1.8279,1.8289,1.8388,1.8516,1.855,1.8684,1.9037,1.9653,1.9774,2.0023,2.0718,2.1339,2.1827,3.9826,3.9815,3.9754,3.9712,3.9712,3.9724,3.9724,3.9724,3.9724,3.9724,3.977,3.9859,3.9933,3.9933,3.9933,3.9946,3.9998,4.0017,4.0048,4.0108,4.0108,4.0108,4.0108,4.0048,4.0027,4.0007,3.9965,3.9914,3.9922,3.9859,3.9739,3.9544,3.935,3.875,3.7728,3.6726,3.571,3.4644,3.3719,3.3258,3.3346,3.3232,3.3006,3.2654,3.2283,3.1878,3.1492,3.1123,3.0683,3.023,2.9989,2.9661,2.9234,2.9044,2.8795,2.8448,2.8301,2.8137,2.7915,2.764,2.7488,2.7437,2.7089,2.6826,2.6747,2.6508,2.6613,2.7008,2.6971,2.6654,2.6283,2.6111,2.5853,2.5466,2.5269,2.4935,2.4729,2.4783,2.4797,2.4445,2.4312,2.4305,2.398,2.3436,2.2856,2.2307,2.1789,2.1357,2.1241,2.0976,2.0581,1.9991,1.951,1.926,1.9096,1.8707,1.8414,1.8196,1.7944,1.7798,1.769,1.7674,1.7627,1.7935,1.8056,1.8398,1.8627,1.901,1.9409,1.9669,1.9857,2.0076,2.0722,2.1431,2.1902,3.9563,3.957,3.9527,3.9521,3.9521,3.9521,3.9514,3.9533,3.9514,3.9514,3.9552,3.9595,3.9679,3.9789,3.9735,3.9758,3.9815,3.9834,3.9867,3.9922,3.9922,3.9922,3.9922,3.9848,3.9804,3.9751,3.9712,3.9658,3.9635,3.9514,3.9363,3.9205,3.8952,3.8328,3.7326,3.6294,3.5234,3.4124,3.3125,3.2536,3.2384,3.2503,3.2385,3.2021,3.1641,3.1302,3.0931,3.0543,3.0123,2.9695,2.9339,2.8989,2.8638,2.8383,2.8131,2.7839,2.7565,2.7316,2.7049,2.6919,2.6762,2.6539,2.6353,2.6096,2.5743,2.5536,2.5619,2.5854,2.5896,2.5797,2.5522,2.5545,2.542,2.5125,2.5094,2.5018,2.4774,2.4582,2.4431,2.4265,2.3908,2.3646,2.348,2.2999,2.2434,2.1965,2.1605,2.1474,2.1242,2.0974,2.0642,2.0218,1.9731,1.9186,1.8778,1.8371,1.813,1.7995,1.7827,1.7654,1.7719,1.7722,1.7804,1.7767,1.806,1.8281,1.839,1.8741,1.9136,1.9551,2.0232,2.0599,2.0979,2.1418,2.1645,3.94,3.94,3.9399,3.9391,3.936,3.933,3.9324,3.933,3.9311,3.933,3.9311,3.9301,3.9375,3.9502,3.9533,3.9588,3.9618,3.9618,3.9665,3.9705,3.9735,3.9705,3.9705,3.9647,3.9587,3.9533,3.9452,3.9401,3.9324,3.9137,3.8956,3.8766,3.852,3.7974,3.7147,3.6106,3.5118,3.4164,3.3019,3.2153,3.1819,3.1651,3.1548,3.1357,3.101,3.0649,3.0276,2.987,2.9467,2.9065,2.8622,2.824,2.7987,2.767,2.7357,2.7071,2.6745,2.6469,2.6203,2.6136,2.5974,2.5716,2.5633,2.5421,2.5062,2.498,2.4982,2.4997,2.5067,2.5074,2.5127,2.5163,2.5114,2.4846,2.4874,2.4834,2.4603,2.4316,2.4141,2.4041,2.3715,2.3225,2.3064,2.275,2.2408,2.1947,2.1747,2.1596,2.1331,2.1135,2.0829,2.0504,2.0002,1.9393,1.868,1.8244,1.8068,1.7943,1.7841,1.7688,1.7832,1.7859,1.7868,1.7697,1.8035,1.8265,1.8415,1.862,1.8948,1.9535,2.0168,2.0711,2.0904,2.1195,2.1387,3.9405,3.9386,3.9405,3.932,3.9229,3.921,3.917,3.9129,3.9115,3.9115,3.9101,3.905,3.9064,3.9142,3.9283,3.9425,3.942,3.9401,3.9452,3.9514,3.9495,3.9514,3.9514,3.9439,3.9376,3.9298,3.9219,3.9101,3.8902,3.8707,3.8491,3.8232,3.7964,3.772,3.7291,3.6266,3.5593,3.4972,3.3373,3.2275,3.1796,3.082,3.0522,3.0783,3.0377,2.9913,2.9473,2.8996,2.8591,2.8158,2.779,2.7454,2.7244,2.6919,2.6498,2.6042,2.5866,2.566,2.5467,2.5299,2.5129,2.5057,2.505,2.4943,2.4892,2.4844,2.4792,2.4732,2.4573,2.4651,2.5046,2.4995,2.4796,2.4462,2.4349,2.4226,2.4016,2.4028,2.392,2.3909,2.3801,2.348,2.3044,2.2973,2.2678,2.2344,2.2136,2.2002,2.1864,2.1625,2.1186,2.0659,2.0183,1.9689,1.9207,1.8482,1.8119,1.7971,1.7747,1.7539,1.7512,1.7521,1.7519,1.7599,1.7894,1.8178,1.8413,1.8704,1.9033,1.9464,1.9837,2.0294,2.0498,2.075,2.0992,3.9082,3.9082,3.9082,3.9054,3.8989,3.9007,3.9007,3.8979,3.8921,3.8906,3.8873,3.8785,3.8788,3.8855,3.8877,3.9017,3.921,3.9205,3.9237,3.9245,3.9245,3.9245,3.9232,3.9183,3.9101,3.9031,3.896,3.8785,3.8442,3.8216,3.7981,3.772,3.7396,3.7132,3.6759,3.5752,3.4964,3.4465,3.3146,3.221,3.173,3.1151,3.0766,3.0505,2.9671,2.9042,2.8717,2.82,2.779,2.7479,2.7071,2.6707,2.6365,2.5907,2.555,2.5342,2.5076,2.497,2.5061,2.4994,2.4942,2.4931,2.4814,2.4659,2.4494,2.4335,2.4275,2.4323,2.4196,2.4282,2.4625,2.474,2.46,2.4198,2.4347,2.4363,2.4143,2.3977,2.3913,2.3828,2.3588,2.3139,2.2777,2.2628,2.2515,2.2252,2.2149,2.1997,2.1759,2.1578,2.1229,2.0708,2.0217,1.9735,1.9342,1.8601,1.8062,1.7863,1.7681,1.7588,1.7553,1.7487,1.746,1.7496,1.7763,1.7987,1.8149,1.8422,1.8843,1.9112,1.9508,1.9706,1.9912,2.0284,2.0595,3.8785,3.88,3.8785,3.8803,3.8755,3.8755,3.8758,3.8743,3.8698,3.8667,3.8652,3.8541,3.8528,3.8549,3.8478,3.8554,3.8796,3.8902,3.8964,3.896,3.8979,3.8979,3.8964,3.8892,3.8803,3.8695,3.8525,3.8283,3.7964,3.7667,3.7414,3.719,3.6783,3.644,3.6082,3.5244,3.4527,3.3985,3.2966,3.2143,3.1667,3.109,3.0541,2.9927,2.9006,2.8551,2.85,2.8014,2.7595,2.7263,2.6856,2.64,2.5948,2.5488,2.5197,2.505,2.4771,2.4615,2.4677,2.463,2.4576,2.4571,2.4489,2.431,2.4102,2.4032,2.4068,2.405,2.3979,2.4023,2.4149,2.4225,2.4132,2.3979,2.421,2.4335,2.4055,2.3765,2.3545,2.3338,2.3065,2.2665,2.2402,2.2338,2.2225,2.2035,2.1949,2.1769,2.1578,2.131,2.1079,2.0566,2.004,1.9502,1.9025,1.836,1.8027,1.7891,1.7603,1.7553,1.7485,1.7432,1.7392,1.7432,1.7554,1.7757,1.7959,1.8161,1.8402,1.8634,1.8873,1.9112,1.9429,1.9854,2.0167,3.8585,3.8585,3.8618,3.8554,3.8491,3.851,3.8462,3.8415,3.8399,3.8382,3.8401,3.8303,3.829,3.8256,3.8153,3.8118,3.8201,3.8465,3.8606,3.86,3.8655,3.8673,3.8673,3.8541,3.8428,3.835,3.7914,3.7632,3.7469,3.7076,3.6801,3.6539,3.6105,3.5693,3.538,3.4788,3.439,3.3908,3.2903,3.2177,3.1675,3.0586,2.9723,2.9132,2.8497,2.8411,2.8861,2.8409,2.7869,2.7492,2.7049,2.6604,2.5964,2.5641,2.5456,2.509,2.4803,2.4571,2.4389,2.412,2.3956,2.4008,2.3948,2.3956,2.3944,2.3977,2.399,2.382,2.3781,2.3776,2.357,2.3427,2.3478,2.3813,2.3838,2.374,2.3556,2.3261,2.2889,2.259,2.244,2.2338,2.2176,2.2111,2.2035,2.1845,2.1655,2.1502,2.1349,2.1002,2.0576,2.0216,1.9666,1.9063,1.8585,1.8126,1.8037,1.7876,1.7592,1.7391,1.7334,1.7261,1.7188,1.7229,1.731,1.7505,1.7595,1.7797,1.7878,1.8112,1.8313,1.8554,1.8904,1.9262,1.9618,3.8267,3.8251,3.8267,3.8251,3.8218,3.8218,3.8201,3.8203,3.8153,3.8119,3.8103,3.8054,3.7968,3.7898,3.7845,3.7792,3.7757,3.7898,3.8052,3.8218,3.8269,3.8285,3.8269,3.8186,3.8016,3.7738,3.7358,3.7055,3.6823,3.6402,3.6062,3.5737,3.5266,3.4871,3.456,3.4053,3.3598,3.3193,3.2462,3.1809,3.1277,3.0511,2.9841,2.9243,2.88,2.8464,2.8097,2.7511,2.7069,2.6799,2.6329,2.5785,2.5199,2.4834,2.4531,2.4304,2.3976,2.3917,2.4026,2.3846,2.3815,2.3979,2.3856,2.372,2.3659,2.3492,2.3335,2.3113,2.3075,2.3001,2.2815,2.274,2.2852,2.3224,2.315,2.3038,2.2852,2.2665,2.2478,2.2252,2.2214,2.2101,2.1959,2.1883,2.1807,2.1655,2.155,2.1349,2.0964,2.0615,2.0177,1.9696,1.9103,1.8594,1.8152,1.77,1.7497,1.7465,1.7302,1.7188,1.7139,1.7098,1.7017,1.7017,1.7098,1.7221,1.731,1.7432,1.7514,1.7587,1.7829,1.8063,1.8345,1.8665,1.9024,3.7897,3.7915,3.7932,3.7915,3.7915,3.7915,3.7915,3.7915,3.788,3.7863,3.7845,3.7757,3.7649,3.7541,3.7504,3.743,3.7392,3.7391,3.7503,3.7703,3.7862,3.7879,3.7827,3.7667,3.7431,3.7094,3.6741,3.6399,3.6126,3.5715,3.5311,3.4918,3.4464,3.4045,3.3665,3.3114,3.2648,3.2198,3.1592,3.1013,3.048,2.9981,2.9407,2.873,2.8312,2.7789,2.7219,2.657,2.6271,2.6271,2.5851,2.5306,2.4853,2.4529,2.4212,2.3995,2.371,2.356,2.3649,2.3481,2.3487,2.3635,2.3446,2.3224,2.3139,2.2889,2.2703,2.2515,2.2478,2.244,2.2327,2.2149,2.2225,2.2402,2.2553,2.2478,2.2327,2.2289,2.2214,2.2063,2.1997,2.1921,2.1845,2.1693,2.1655,2.1502,2.131,2.1041,2.0527,2.0177,1.9627,1.9103,1.8634,1.8152,1.7708,1.7343,1.6976,1.6935,1.6935,1.6935,1.6935,1.6853,1.6812,1.682,1.6894,1.6935,1.7025,1.7066,1.7147,1.7261,1.7383,1.7659,1.7902,1.8095,1.8376,3.7558,3.7594,3.7594,3.7577,3.7577,3.7577,3.7577,3.7558,3.7558,3.754,3.754,3.7448,3.7336,3.7259,3.7127,3.705,3.697,3.695,3.695,3.705,3.7243,3.7357,3.7264,3.6997,3.6701,3.643,3.6037,3.5671,3.5357,3.4918,3.4529,3.4111,3.3665,3.3224,3.2691,3.2099,3.1563,3.1087,3.0525,2.9936,2.9411,2.8921,2.8325,2.7591,2.709,2.6629,2.6171,2.5517,2.5507,2.6067,2.5505,2.5026,2.4862,2.4587,2.4231,2.398,2.3731,2.3393,2.3228,2.2988,2.2909,2.2905,2.274,2.2553,2.2402,2.2289,2.2176,2.2035,2.2035,2.2035,2.1949,2.1731,2.1578,2.1578,2.1987,2.2176,2.2101,2.2101,2.2025,2.1883,2.1807,2.1769,2.1769,2.1617,2.1512,2.131,2.0925,2.0566,2.0137,1.9627,1.9073,1.8554,1.8152,1.7708,1.7302,1.7017,1.6681,1.6566,1.6566,1.6607,1.6648,1.6615,1.6574,1.6574,1.6656,1.6656,1.6656,1.6697,1.6738,1.6861,1.7017,1.7261,1.7456,1.7619,1.7781,3.7242,3.7223,3.7223,3.7225,3.7242,3.7223,3.7203,3.7145,3.7145,3.7145,3.7163,3.7126,3.7029,3.6911,3.6794,3.6693,3.6609,3.653,3.6409,3.6367,3.6433,3.6553,3.6516,3.6291,3.6037,3.5771,3.5311,3.4941,3.4633,3.4144,3.364,3.3145,3.2621,3.2099,3.1622,3.1028,3.048,2.9966,2.947,2.8826,2.8201,2.769,2.7043,2.633,2.5941,2.5429,2.4826,2.4154,2.419,2.4909,2.4683,2.4347,2.3984,2.3728,2.3471,2.3102,2.2879,2.2617,2.244,2.2214,2.2101,2.2101,2.1949,2.1807,2.1741,2.1578,2.1502,2.1436,2.1425,2.1436,2.1436,2.132,2.1282,2.132,2.154,2.1769,2.1845,2.1883,2.1873,2.1807,2.1769,2.1693,2.1578,2.1464,2.131,2.0954,2.0566,2.0177,1.9666,1.9063,1.8474,1.8103,1.77,1.7253,1.6894,1.664,1.6435,1.6245,1.6203,1.6245,1.6286,1.6294,1.6252,1.6252,1.6335,1.6376,1.6335,1.6294,1.6376,1.6533,1.6615,1.6771,1.6935,1.709,1.7302,3.693,3.6948,3.6948,3.693,3.693,3.6948,3.6871,3.6791,3.6788,3.6751,3.6731,3.671,3.665,3.6527,3.6406,3.6301,3.6191,3.6067,3.592,3.5793,3.5644,3.5732,3.5837,3.5644,3.5328,3.5052,3.4536,3.4078,3.3691,3.3224,3.2691,3.2127,3.1578,3.1102,3.0599,2.9995,2.9393,2.8876,2.8312,2.7637,2.6909,2.6445,2.5859,2.524,2.4826,2.4335,2.3534,2.3027,2.3139,2.3655,2.3607,2.3313,2.3001,2.2777,2.2478,2.2101,2.1949,2.1797,2.153,2.1349,2.13,2.1262,2.1185,2.1069,2.1041,2.0964,2.0925,2.0848,2.0819,2.0819,2.0809,2.0731,2.0731,2.077,2.0935,2.1156,2.1512,2.155,2.155,2.154,2.154,2.1512,2.1397,2.1233,2.0964,2.0644,2.0128,1.9657,1.9143,1.8545,1.7983,1.7578,1.7261,1.6894,1.6525,1.627,1.6147,1.5997,1.588,1.588,1.6004,1.6053,1.6087,1.6087,1.6095,1.6095,1.6053,1.6053,1.6177,1.6252,1.6245,1.6327,1.6484,1.6656,1.682,3.6661,3.6661,3.6661,3.664,3.664,3.6661,3.6564,3.6461,3.6461,3.6381,3.628,3.6276,3.6212,3.6122,3.5975,3.5844,3.5751,3.5577,3.5379,3.5155,3.4927,3.4887,3.5081,3.4823,3.4536,3.4235,3.3732,3.3224,3.2772,3.2253,3.1664,3.1116,3.0585,3.0086,2.9518,2.8935,2.8325,2.7743,2.7111,2.6445,2.5777,2.5299,2.4743,2.4143,2.3596,2.3102,2.2429,2.2025,2.209,2.2617,2.2402,2.2214,2.1987,2.1797,2.1454,2.1156,2.1041,2.0838,2.0566,2.0489,2.045,2.045,2.045,2.0411,2.0255,2.0284,2.0323,2.0177,2.0186,2.0186,2.0186,1.9981,2.002,2.0147,2.0216,2.045,2.0886,2.1128,2.1167,2.1215,2.1205,2.1215,2.1051,2.0848,2.0566,2.0177,1.9696,1.9222,1.8705,1.8103,1.7546,1.7017,1.6738,1.6492,1.6203,1.5906,1.5824,1.5707,1.559,1.5639,1.5805,1.5888,1.5971,1.5971,1.5846,1.5846,1.5888,1.5929,1.6012,1.6004,1.5963,1.5997,1.6079,1.6252,1.6458,3.631,3.631,3.631,3.631,3.6293,3.6293,3.6229,3.6105,3.6105,3.6019,3.5949,3.591,3.5844,3.5711,3.5549,3.5412,3.5344,3.5041,3.4715,3.4358,3.4084,3.3841,3.3834,3.3742,3.3707,3.3371,3.2911,3.2434,3.2003,3.142,3.0896,3.024,2.9552,2.8989,2.8376,2.7723,2.7056,2.6514,2.5953,2.5346,2.4684,2.4192,2.3621,2.2979,2.2241,2.1683,2.1252,2.0828,2.0634,2.0712,2.1069,2.1223,2.1088,2.0789,2.0479,2.0245,2.005,1.9844,1.9657,1.9578,1.9578,1.9578,1.9578,1.9539,1.9529,1.9529,1.9578,1.9499,1.9499,1.9508,1.946,1.946,1.942,1.946,1.9499,1.9618,1.9951,2.0527,2.0915,2.1089,2.1128,2.1089,2.077,2.0644,2.0245,1.9745,1.9231,1.8794,1.8273,1.7708,1.718,1.6607,1.636,1.6162,1.5955,1.5707,1.5624,1.5541,1.5472,1.5431,1.5597,1.568,1.5722,1.5639,1.5514,1.5597,1.568,1.5639,1.5639,1.568,1.5714,1.5748,1.5831,1.5963,1.6012,3.6101,3.6101,3.6084,3.6084,3.6101,3.6036,3.5927,3.5822,3.5739,3.5667,3.5571,3.552,3.5435,3.5327,3.5048,3.4923,3.4804,3.4374,3.3958,3.3636,3.3298,3.2911,3.2555,3.2458,3.2403,3.2434,3.2018,3.1521,3.0984,3.0376,2.9676,2.9066,2.8473,2.7855,2.7271,2.6595,2.6045,2.544,2.4826,2.4215,2.3621,2.3021,2.2397,2.1738,2.0944,2.045,2.0128,1.9844,1.9499,1.9381,1.9578,1.9971,2.0118,1.9932,1.9657,1.9381,1.9253,1.9015,1.8785,1.8714,1.8714,1.8705,1.8665,1.8714,1.8705,1.8705,1.8705,1.8714,1.8674,1.8714,1.8705,1.8665,1.8714,1.8714,1.8714,1.8825,1.9222,1.9854,2.0372,2.0527,2.0527,2.0372,2.0216,2.0128,1.9854,1.9271,1.8714,1.8273,1.7942,1.7416,1.6894,1.6409,1.6113,1.5865,1.5665,1.5548,1.5506,1.5465,1.5431,1.5389,1.5472,1.5472,1.5431,1.5431,1.5431,1.5431,1.5514,1.5431,1.5389,1.5472,1.5548,1.5541,1.5582,1.568,1.5722,3.591,3.5888,3.5888,3.5905,3.5866,3.5773,3.5639,3.5509,3.5418,3.5304,3.5198,3.5081,3.4994,3.4875,3.4546,3.4374,3.4084,3.3668,3.3208,3.2857,3.252,3.2074,3.1677,3.1304,3.1057,3.1405,3.1028,3.0465,2.9875,2.9192,2.8607,2.7887,2.7271,2.6765,2.6208,2.5629,2.5052,2.4468,2.3779,2.3117,2.2494,2.1869,2.1155,2.0343,1.9883,1.9469,1.9183,1.8904,1.8594,1.8175,1.8144,1.8385,1.8736,1.9015,1.8935,1.8545,1.8505,1.8304,1.8072,1.7919,1.791,1.7878,1.7829,1.7789,1.7789,1.7829,1.787,1.787,1.791,1.787,1.7789,1.787,1.787,1.7878,1.7878,1.8112,1.8505,1.9024,1.935,1.9824,1.9902,1.9824,1.9587,1.9429,1.9152,1.8834,1.8273,1.7789,1.7456,1.709,1.6525,1.6162,1.5873,1.5707,1.5548,1.5502,1.546,1.5455,1.5398,1.5447,1.5433,1.5389,1.5389,1.5389,1.5431,1.5389,1.5389,1.5389,1.5389,1.5389,1.5431,1.5465,1.5472,1.5431,1.5452,3.552,3.5429,3.5406,3.5412,3.5406,3.5383,3.5297,3.5182,3.5135,3.5018,3.4787,3.4643,3.4472,3.425,3.3975,3.3559,3.3124,3.2738,3.2355,3.199,3.1665,3.1305,3.0704,3.027,2.9966,2.9659,2.958,2.9442,2.902,2.8492,2.7664,2.7056,2.6377,2.5767,2.5146,2.4527,2.3984,2.3449,2.2718,2.2042,2.1423,2.0731,1.9991,1.9125,1.8785,1.8505,1.8224,1.8023,1.7789,1.7554,1.7375,1.7253,1.7375,1.7732,1.7902,1.7861,1.7708,1.7587,1.7432,1.7343,1.7253,1.718,1.7098,1.6976,1.6935,1.6935,1.7057,1.7188,1.7237,1.7204,1.6943,1.7188,1.7253,1.7286,1.7425,1.7629,1.7857,1.8117,1.8507,1.9115,1.9252,1.9262,1.8984,1.8745,1.8505,1.8184,1.7708,1.7302,1.7009,1.6607,1.6162,1.5831,1.5624,1.5506,1.5431,1.544,1.5435,1.5423,1.543,1.5437,1.5443,1.5425,1.5403,1.543,1.5449,1.5389,1.5389,1.5396,1.5389,1.5389,1.5389,1.5411,1.5526,1.5606,1.5592,3.536,3.5291,3.5222,3.5198,3.5175,3.5041,3.4923,3.4787,3.4707,3.4546,3.4325,3.4126,3.3908,3.361,3.3272,3.2749,3.2201,3.1936,3.1566,3.1146,3.0748,3.0284,2.9704,2.9331,2.878,2.8344,2.8163,2.8084,2.7861,2.7311,2.665,2.5963,2.5334,2.4779,2.4107,2.3449,2.2868,2.2344,2.1586,2.0895,2.0343,1.9638,1.8816,1.8224,1.787,1.7627,1.7212,1.709,1.6935,1.6738,1.6656,1.6533,1.6533,1.6648,1.6935,1.7,1.6927,1.682,1.6746,1.6615,1.6574,1.6574,1.6458,1.6368,1.6368,1.6417,1.6474,1.6588,1.6786,1.68,1.6698,1.6891,1.7,1.7059,1.7128,1.7289,1.7466,1.7542,1.7921,1.8427,1.8475,1.8426,1.8304,1.8063,1.7861,1.7538,1.7163,1.686,1.6596,1.6213,1.5799,1.5688,1.5472,1.5418,1.5397,1.5447,1.5454,1.5483,1.5455,1.5505,1.5498,1.5512,1.5483,1.5518,1.549,1.5443,1.5411,1.5418,1.5403,1.5447,1.5606,1.5709,1.5745,1.5767,1.5789,3.5158,3.5128,3.5018,3.497,3.4899,3.4715,3.4521,3.4349,3.4226,3.4009,3.372,3.3523,3.3288,3.2926,3.2434,3.1877,3.1277,3.1087,3.0658,3.0178,2.9749,2.9251,2.8698,2.8228,2.7736,2.7144,2.6663,2.6483,2.665,2.6205,2.5522,2.4898,2.4348,2.3779,2.3102,2.2446,2.1804,2.1155,2.043,1.9726,1.9094,1.8407,1.774,1.727,1.7147,1.6861,1.6484,1.6451,1.6319,1.6162,1.6087,1.6046,1.5963,1.5971,1.6046,1.6154,1.6278,1.6245,1.617,1.6046,1.6079,1.6079,1.6004,1.5963,1.6001,1.6095,1.6206,1.6232,1.6457,1.6639,1.6584,1.6773,1.6887,1.6953,1.6982,1.7064,1.7221,1.7313,1.7282,1.7589,1.7662,1.7755,1.778,1.773,1.7603,1.7385,1.6988,1.6669,1.6387,1.5945,1.5626,1.5533,1.5455,1.5396,1.5423,1.5514,1.5514,1.5558,1.5565,1.5565,1.5592,1.5604,1.5595,1.5567,1.5538,1.5476,1.5488,1.5536,1.5682,1.5791,1.5885,1.5972,1.6023,1.6082,1.6126,3.4707,3.4611,3.457,3.4497,3.4399,3.4349,3.4126,3.3797,3.3745,3.3497,3.3102,3.2819,3.2574,3.2132,3.1363,3.0881,3.0494,3.007,2.9625,2.916,2.8762,2.8293,2.7703,2.7258,2.6684,2.6055,2.5487,2.5522,2.5545,2.524,2.4731,2.402,2.3423,2.2852,2.2214,2.1433,2.0818,2.0313,1.9539,1.8674,1.7821,1.7212,1.6853,1.6566,1.6368,1.6203,1.6038,1.5997,1.5914,1.5741,1.5741,1.5665,1.5548,1.5465,1.5506,1.5631,1.5839,1.6121,1.6004,1.5873,1.5786,1.5793,1.5676,1.5521,1.5738,1.6042,1.6236,1.6374,1.6572,1.6624,1.6587,1.6647,1.6706,1.6846,1.6929,1.698,1.7082,1.7041,1.7063,1.7003,1.7172,1.7395,1.749,1.7467,1.7372,1.7139,1.6855,1.6504,1.6148,1.5727,1.5437,1.535,1.5411,1.5396,1.5456,1.5538,1.5639,1.5618,1.5618,1.5611,1.5628,1.5669,1.5635,1.561,1.5553,1.5641,1.5773,1.5906,1.6038,1.606,1.606,1.6177,1.6309,1.6382,1.6491,3.4126,3.4259,3.4126,3.4025,3.3924,3.3678,3.3429,3.3193,3.3007,3.2753,3.2425,3.2104,3.168,3.1073,3.0374,2.9903,2.9532,2.9139,2.868,2.8168,2.7756,2.7258,2.6684,2.6217,2.5639,2.5016,2.4492,2.4022,2.4131,2.4034,2.368,2.3065,2.2467,2.1852,2.1252,2.044,1.9844,1.9204,1.8416,1.7587,1.6935,1.6525,1.6203,1.5858,1.5775,1.5575,1.5409,1.5325,1.5284,1.5159,1.5159,1.5117,1.5041,1.4999,1.4999,1.5048,1.5388,1.5599,1.5676,1.5604,1.5659,1.5784,1.5758,1.5789,1.5928,1.6161,1.633,1.6382,1.6639,1.672,1.6734,1.6911,1.6978,1.7038,1.6964,1.6948,1.6903,1.6779,1.6752,1.6663,1.662,1.6866,1.7034,1.684,1.6766,1.6684,1.6426,1.6116,1.5851,1.5574,1.5352,1.5195,1.53,1.5418,1.5513,1.5608,1.5723,1.573,1.5737,1.5737,1.573,1.5709,1.5679,1.5706,1.5695,1.584,1.6063,1.599,1.5906,1.6061,1.6201,1.631,1.6487,1.6819,1.6914,3.3461,3.3626,3.3565,3.3497,3.3445,3.3049,3.2765,3.2574,3.2299,3.2007,3.1638,3.1219,3.0584,2.9962,2.9453,2.898,2.8468,2.8176,2.7703,2.7204,2.6697,2.6183,2.565,2.5111,2.4576,2.3938,2.339,2.2931,2.2569,2.2381,2.2231,2.2014,2.1471,2.0857,2.0167,1.9508,1.8865,1.8095,1.7408,1.6763,1.627,1.6031,1.5699,1.5443,1.5235,1.5068,1.4776,1.4734,1.4741,1.4741,1.4776,1.4811,1.4909,1.4944,1.5014,1.5084,1.536,1.5454,1.5512,1.5554,1.559,1.5713,1.5879,1.5878,1.633,1.6447,1.6572,1.6674,1.6873,1.6998,1.7018,1.714,1.7115,1.7051,1.698,1.6951,1.6864,1.6678,1.6542,1.6467,1.6406,1.6369,1.6422,1.6151,1.6084,1.6126,1.5941,1.5732,1.559,1.5499,1.5463,1.5388,1.5429,1.557,1.5631,1.5698,1.5792,1.5825,1.5825,1.5805,1.5772,1.5765,1.5765,1.5805,1.5825,1.5859,1.5945,1.5837,1.5767,1.6141,1.6412,1.6441,1.664,1.7005,1.721,3.2641,3.2385,3.2834,3.2938,3.2815,3.2574,3.2302,3.1994,3.1695,3.1277,3.0748,3.0101,2.9484,2.8931,2.8546,2.8078,2.7571,2.7061,2.6607,2.6126,2.5639,2.5099,2.4564,2.3986,2.3449,2.282,2.2258,2.1738,2.1262,2.0818,2.0818,2.0857,2.0421,1.9805,1.9222,1.8634,1.7861,1.7172,1.6558,1.6229,1.5816,1.5567,1.536,1.5117,1.4908,1.4734,1.4692,1.465,1.4608,1.4615,1.4663,1.4768,1.492,1.5017,1.5078,1.5193,1.5324,1.5396,1.5399,1.552,1.5611,1.5609,1.573,1.5984,1.6428,1.6517,1.6723,1.6982,1.7033,1.7123,1.712,1.7138,1.7012,1.6918,1.6824,1.669,1.6595,1.6534,1.6405,1.6305,1.6224,1.6163,1.6109,1.5971,1.6009,1.6054,1.6021,1.5816,1.5784,1.5704,1.5718,1.5678,1.5698,1.5758,1.5765,1.5825,1.5825,1.5825,1.5825,1.5825,1.5798,1.5825,1.5825,1.5825,1.5825,1.5825,1.5866,1.5859,1.5963,1.6362,1.6579,1.6502,1.6582,1.6821,1.7044,3.2051,3.1668,3.1737,3.1892,3.2104,3.1709,3.1451,3.1307,3.0837,3.0222,2.9563,2.9012,2.8487,2.8012,2.7497,2.7061,2.6595,2.607,2.5569,2.5075,2.4587,2.4082,2.3522,2.2968,2.2419,2.188,2.1231,2.0702,2.0372,1.9648,1.9332,1.9292,1.9292,1.9054,1.8505,1.7789,1.6935,1.6394,1.5982,1.5733,1.5416,1.5249,1.5033,1.465,1.4608,1.4447,1.437,1.4334,1.4334,1.4382,1.4511,1.4674,1.4838,1.4967,1.5072,1.5093,1.5214,1.5204,1.5177,1.5406,1.5697,1.5973,1.6113,1.6313,1.6518,1.6539,1.6635,1.6828,1.6918,1.6958,1.6864,1.6817,1.673,1.6683,1.6588,1.6407,1.6359,1.6305,1.6204,1.6076,1.5981,1.5927,1.5872,1.5852,1.5934,1.5981,1.5961,1.5879,1.5784,1.573,1.5689,1.5689,1.5689,1.5737,1.573,1.5778,1.5778,1.5825,1.5825,1.5825,1.5825,1.5825,1.5825,1.5825,1.5825,1.5825,1.5832,1.5927,1.6021,1.6204,1.6346,1.6379,1.6534,1.669,1.6824,3.1394,3.094,3.0777,3.0955,3.1263,3.0896,3.0673,3.0509,3.0023,2.931,2.8481,2.8026,2.755,2.7048,2.6517,2.607,2.5627,2.5111,2.4612,2.4082,2.3582,2.3065,2.2467,2.189,2.1318,2.0885,2.0226,1.9657,1.9539,1.8776,1.8425,1.8224,1.8063,1.7934,1.7659,1.6935,1.6154,1.5816,1.5526,1.5409,1.5131,1.4915,1.4783,1.444,1.4356,1.4286,1.4213,1.4267,1.4291,1.4378,1.4519,1.4632,1.4734,1.4822,1.4884,1.4884,1.4869,1.4905,1.4947,1.5206,1.567,1.5836,1.6073,1.629,1.6447,1.6494,1.6527,1.6622,1.6636,1.6588,1.6588,1.6548,1.6501,1.6407,1.6211,1.6076,1.6028,1.6021,1.592,1.5879,1.5825,1.5784,1.5642,1.5594,1.5642,1.5642,1.5594,1.5553,1.5506,1.5452,1.5499,1.5458,1.5506,1.5594,1.5689,1.5689,1.5683,1.5825,1.5825,1.5825,1.5825,1.5825,1.5825,1.5825,1.5825,1.5825,1.5832,1.5879,1.5832,1.5825,1.6021,1.6163,1.6312,1.6454,1.6595,3.0644,3.0146,3.0129,3.0267,3.0389,3.0237,2.9931,2.9623,2.9198,2.856,2.7696,2.7074,2.6552,2.6092,2.5581,2.5123,2.4719,2.4166,2.3666,2.3213,2.2569,2.1966,2.1346,2.0779,2.0245,1.9814,1.9222,1.8785,1.8705,1.8055,1.7668,1.7343,1.7139,1.6886,1.6689,1.6113,1.5741,1.565,1.5284,1.5173,1.4957,1.4657,1.4482,1.4363,1.4304,1.4211,1.4208,1.4409,1.4496,1.4469,1.4752,1.4843,1.4898,1.4943,1.4973,1.4956,1.5,1.4991,1.5045,1.5317,1.5421,1.559,1.5846,1.5961,1.6123,1.6218,1.6265,1.64,1.6494,1.6494,1.6501,1.6359,1.6265,1.6123,1.5981,1.5879,1.5879,1.5832,1.5825,1.573,1.573,1.5689,1.5499,1.5363,1.5309,1.5309,1.522,1.5172,1.522,1.5267,1.5315,1.5315,1.5315,1.5363,1.5452,1.5499,1.5594,1.573,1.5825,1.5825,1.5825,1.5825,1.5825,1.5832,1.5825,1.5825,1.5832,1.5838,1.5945,1.6046,1.5872,1.5933,1.6123,1.632,1.6484,2.9681,2.9432,2.9432,2.9198,2.8949,2.9293,2.923,2.8789,2.8143,2.7417,2.671,2.6151,2.5652,2.5146,2.4623,2.4202,2.3875,2.3202,2.2703,2.2252,2.1596,2.0982,2.0391,1.9805,1.9301,1.8935,1.8416,1.7942,1.7829,1.7294,1.6968,1.6689,1.6319,1.6064,1.5982,1.5733,1.5609,1.5325,1.5124,1.4964,1.465,1.4482,1.4328,1.4222,1.4305,1.4349,1.4389,1.4656,1.4708,1.4665,1.4864,1.493,1.4847,1.4871,1.4861,1.4682,1.4544,1.44,1.4304,1.443,1.4962,1.5302,1.5547,1.5689,1.5879,1.5933,1.6021,1.6069,1.6163,1.6163,1.6021,1.6021,1.5927,1.5927,1.5832,1.5832,1.5825,1.5825,1.5778,1.5635,1.5594,1.5452,1.5267,1.5022,1.4975,1.5022,1.4933,1.5029,1.5077,1.5124,1.5172,1.5172,1.5178,1.5178,1.522,1.5261,1.5404,1.5547,1.5683,1.5825,1.5825,1.5798,1.5872,1.5892,1.5858,1.5832,1.5945,1.6072,1.6246,1.6286,1.6126,1.6052,1.6209,1.638,1.6496,2.8535,2.8502,2.8375,2.808,2.7782,2.8365,2.8333,2.7716,2.7061,2.638,2.5744,2.5312,2.4814,2.4263,2.3692,2.3261,2.3001,2.2327,2.1672,2.1262,2.0702,2.0118,1.9499,1.8953,1.8554,1.8144,1.77,1.7253,1.7049,1.6689,1.6402,1.6105,1.5699,1.5575,1.5492,1.5409,1.5284,1.5033,1.4873,1.4699,1.4489,1.4334,1.4304,1.4305,1.4409,1.4556,1.4716,1.4821,1.4929,1.4819,1.4824,1.4871,1.4772,1.4659,1.4646,1.4304,1.4016,1.3871,1.3775,1.3775,1.4346,1.4921,1.5213,1.5452,1.5642,1.5689,1.5784,1.5784,1.5778,1.5825,1.5825,1.5825,1.5778,1.5778,1.5778,1.5778,1.5683,1.5683,1.554,1.5452,1.5309,1.5172,1.4975,1.4783,1.4586,1.464,1.4694,1.4802,1.491,1.4892,1.4885,1.4885,1.4885,1.4885,1.4933,1.5029,1.5166,1.5309,1.5538,1.5769,1.5803,1.5836,1.5898,1.6012,1.6126,1.6213,1.6226,1.6326,1.6493,1.652,1.6406,1.6373,1.6413,1.6516,1.6626,2.7291,2.7323,2.7006,2.6909,2.7056,2.7397,2.7129,2.6358,2.599,2.5523,2.4909,2.4394,2.3922,2.3482,2.274,2.2289,2.2025,2.1425,2.0799,2.0245,1.9766,1.9213,1.8696,1.8193,1.7789,1.7392,1.6984,1.664,1.6394,1.6121,1.5873,1.5658,1.5291,1.5117,1.5082,1.5033,1.4908,1.4741,1.4608,1.4523,1.4409,1.4282,1.4352,1.4476,1.4649,1.4803,1.4945,1.5048,1.5041,1.5019,1.504,1.4864,1.4682,1.4442,1.416,1.3877,1.3588,1.3443,1.334,1.3394,1.3727,1.4298,1.4736,1.5118,1.5404,1.5547,1.5635,1.573,1.5778,1.5778,1.5825,1.5778,1.5737,1.5737,1.5689,1.5642,1.5499,1.5404,1.5309,1.5172,1.5077,1.4885,1.4736,1.449,1.4467,1.457,1.4649,1.4704,1.4722,1.4562,1.4556,1.4496,1.4496,1.4496,1.4604,1.4846,1.5047,1.5229,1.5522,1.5706,1.577,1.5912,1.6115,1.6297,1.6533,1.6613,1.6607,1.6647,1.6734,1.6727,1.678,1.672,1.6767,1.6734,1.6811,2.6228,2.6641,2.6323,2.6206,2.6148,2.5779,2.5487,2.5358,2.5004,2.4515,2.3948,2.3361,2.299,2.2665,2.1921,2.1492,2.1069,2.0566,1.9942,1.9429,1.8984,1.8465,1.7942,1.7456,1.7066,1.682,1.6492,1.6154,1.5906,1.5631,1.5423,1.5208,1.495,1.4783,1.465,1.4615,1.4587,1.4517,1.4439,1.4477,1.4471,1.4439,1.4583,1.477,1.4997,1.5137,1.5251,1.5292,1.5228,1.5123,1.493,1.4646,1.4172,1.4027,1.3835,1.3152,1.291,1.271,1.2759,1.2905,1.3244,1.3678,1.4118,1.4598,1.5029,1.5309,1.5445,1.5547,1.5648,1.5648,1.5695,1.5714,1.5706,1.5691,1.565,1.5512,1.5422,1.5326,1.5229,1.5036,1.4891,1.4746,1.4576,1.4503,1.4479,1.4552,1.4569,1.458,1.4623,1.4479,1.4461,1.4455,1.4437,1.4528,1.4607,1.4789,1.4948,1.515,1.5415,1.575,1.5927,1.6134,1.6355,1.6567,1.682,1.6927,1.7038,1.7072,1.7041,1.7248,1.7315,1.7201,1.7159,1.7054,1.7068,2.4984,2.5358,2.5184,2.5105,2.5016,2.4479,2.419,2.3998,2.3961,2.3644,2.3102,2.2505,2.2128,2.1807,2.1079,2.0566,2.0343,1.9726,1.9143,1.8674,1.8273,1.7821,1.7294,1.6894,1.6607,1.6327,1.6079,1.5831,1.5541,1.5291,1.5082,1.4908,1.4685,1.4524,1.4474,1.4486,1.4475,1.4469,1.4467,1.4515,1.462,1.4703,1.4883,1.5149,1.5344,1.5431,1.5518,1.5488,1.5248,1.5035,1.4748,1.4268,1.3835,1.3642,1.3303,1.2716,1.2419,1.237,1.2467,1.2565,1.291,1.3255,1.3593,1.4022,1.4502,1.4831,1.5118,1.5315,1.5423,1.5538,1.5562,1.5586,1.5616,1.5645,1.5511,1.5377,1.5329,1.528,1.5139,1.4949,1.4808,1.466,1.4544,1.4453,1.439,1.4377,1.441,1.4445,1.4551,1.4686,1.4731,1.4769,1.4727,1.4708,1.4783,1.4844,1.4991,1.5171,1.5401,1.5701,1.5979,1.6348,1.6616,1.6848,1.7088,1.7181,1.7313,1.736,1.7361,1.7528,1.7589,1.7455,1.7348,1.7341,1.7388,2.3634,2.386,2.3827,2.3873,2.3793,2.3593,2.3113,2.2402,2.2841,2.2815,2.2252,2.1652,2.1252,2.0915,2.0216,1.9736,1.9411,1.8935,1.8385,1.7919,1.7668,1.7253,1.6853,1.6566,1.6229,1.5858,1.5609,1.5499,1.534,1.509,1.4824,1.465,1.4551,1.4452,1.4414,1.4572,1.4663,1.472,1.4727,1.477,1.4968,1.503,1.513,1.5371,1.5484,1.5551,1.5603,1.541,1.5083,1.4844,1.446,1.3985,1.3593,1.3206,1.2716,1.2419,1.2175,1.2175,1.2273,1.2419,1.2716,1.3061,1.3363,1.3753,1.4219,1.4617,1.4933,1.5191,1.5326,1.5551,1.5592,1.5558,1.5579,1.5587,1.5476,1.5382,1.5283,1.5233,1.5133,1.4939,1.484,1.4689,1.4489,1.441,1.4412,1.4292,1.431,1.4378,1.4533,1.4765,1.4823,1.4907,1.4956,1.492,1.4968,1.5048,1.5089,1.5251,1.5434,1.5667,1.6015,1.6439,1.6918,1.71,1.7231,1.7435,1.7515,1.7508,1.7488,1.7542,1.7589,1.7589,1.7562,1.7528,1.7542,2.2948,2.3143,2.3153,2.3176,2.3154,2.2852,2.2327,2.1693,2.152,2.1482,2.1349,2.0673,2.0245,2.0098,1.9381,1.8895,1.8625,1.8175,1.7578,1.7261,1.7017,1.6771,1.6286,1.6113,1.5858,1.565,1.5409,1.5159,1.4908,1.4692,1.458,1.4481,1.4442,1.4448,1.4515,1.471,1.4923,1.5057,1.5144,1.5157,1.5264,1.5331,1.5418,1.5618,1.5732,1.5678,1.5642,1.5363,1.5172,1.4987,1.4316,1.3786,1.3292,1.2759,1.2419,1.217,1.2073,1.2078,1.2175,1.2327,1.2629,1.3035,1.3383,1.3779,1.4117,1.4497,1.4781,1.502,1.5256,1.5493,1.5619,1.5576,1.5544,1.5493,1.5492,1.5397,1.5251,1.52,1.5092,1.499,1.4883,1.4679,1.4481,1.4407,1.4402,1.4418,1.4492,1.4566,1.465,1.4814,1.474,1.4877,1.5035,1.5056,1.5203,1.5288,1.5378,1.5463,1.5621,1.5805,1.603,1.6493,1.697,1.7193,1.7358,1.7536,1.7589,1.7575,1.7575,1.7589,1.7589,1.7589,1.7589,1.7562,1.7569,2.2224,2.2236,2.2286,2.2404,2.2515,2.2176,2.1655,2.1069,2.0547,2.0284,2.0177,1.9745,1.9469,1.9262,1.8576,1.8224,1.7991,1.7497,1.7139,1.6779,1.6451,1.6245,1.5948,1.5782,1.5658,1.5499,1.5242,1.495,1.4608,1.4496,1.4432,1.4462,1.4506,1.4609,1.4716,1.4997,1.5224,1.5378,1.5498,1.5565,1.5571,1.5598,1.5638,1.5805,1.5778,1.5784,1.5547,1.5267,1.5077,1.4742,1.4124,1.3491,1.305,1.2613,1.237,1.2219,1.2122,1.2073,1.2181,1.2342,1.2628,1.3035,1.3353,1.3745,1.397,1.431,1.4658,1.4921,1.5133,1.5356,1.5491,1.5532,1.5609,1.5637,1.568,1.5652,1.5553,1.5455,1.535,1.5246,1.5083,1.4762,1.4605,1.45,1.4439,1.4081,1.4194,1.4283,1.4486,1.4713,1.4677,1.4803,1.4982,1.5311,1.5553,1.5614,1.5656,1.5747,1.5789,1.5948,1.6153,1.658,1.7008,1.7166,1.7331,1.7536,1.7589,1.7589,1.7589,1.7589,1.7589,1.7589,1.7589,1.7589,1.7589,2.1588,2.1424,2.137,2.166,2.1952,2.1578,2.1031,2.0489,1.9805,1.9292,1.8913,1.8794,1.8665,1.8376,1.7893,1.77,1.7375,1.6935,1.6656,1.6451,1.6203,1.5955,1.579,1.5616,1.5458,1.5249,1.4992,1.4699,1.4363,1.4396,1.4467,1.4496,1.4649,1.477,1.503,1.5277,1.5491,1.5551,1.5611,1.5738,1.5771,1.5778,1.5764,1.5771,1.573,1.5635,1.5452,1.5172,1.4939,1.4502,1.3973,1.3443,1.2953,1.2613,1.2467,1.2316,1.2224,1.225,1.2384,1.2508,1.2826,1.3093,1.3391,1.3629,1.3925,1.4213,1.4566,1.4828,1.4993,1.5143,1.5329,1.5461,1.5593,1.5724,1.5766,1.5796,1.5695,1.5595,1.5488,1.5387,1.5108,1.4781,1.4626,1.4578,1.432,1.3964,1.3807,1.3807,1.391,1.4234,1.4415,1.4686,1.4953,1.5335,1.5737,1.5825,1.5807,1.5825,1.5896,1.6033,1.6264,1.6577,1.6842,1.706,1.7272,1.7529,1.7589,1.7589,1.7589,1.7589,1.7589,1.7589,1.7589,1.7589,1.7589,2.1379,2.1435,2.0864,2.1058,2.1659,2.1069,2.0479,1.9981,1.935,1.8754,1.8233,1.7708,1.7578,1.7853,1.7172,1.6894,1.6894,1.6409,1.6113,1.5865,1.5831,1.5665,1.5548,1.5465,1.5208,1.4964,1.472,1.4419,1.4372,1.4435,1.4506,1.4583,1.5084,1.5231,1.5324,1.5545,1.5705,1.5691,1.5644,1.5737,1.5642,1.5635,1.5683,1.5635,1.5547,1.5404,1.5172,1.4933,1.4783,1.4496,1.3973,1.3443,1.3007,1.2667,1.2532,1.2525,1.2428,1.2522,1.2673,1.278,1.3073,1.3276,1.3572,1.3719,1.3991,1.4281,1.4545,1.4767,1.4925,1.4885,1.5053,1.5111,1.5263,1.5482,1.5613,1.5613,1.5512,1.5405,1.5298,1.503,1.4756,1.4541,1.439,1.4283,1.4175,1.3862,1.3813,1.3807,1.3753,1.391,1.4126,1.4504,1.4874,1.5202,1.5517,1.582,1.5861,1.5879,1.5885,1.5998,1.6152,1.6471,1.6736,1.6895,1.7213,1.7529,1.7582,1.7589,1.7589,1.7589,1.7589,1.7589,1.7589,1.7589,1.7589]}]]